GFSCGP_prec_cloud_003.txt.gz
Cloud_Cover
5 5 40 15 5 5 5 6 57 100 33 6 100 98 100 100 100 100 100 79 5 5 1 0 0 0 0 0 4 5 5 5 5 5 5 5 5 5 5 0 0 0 0 4
79 68 14 6 5 5 32 5 81 100 100 90 92 96 100 100 100 100 100 100 100 100 100 80 24 0 0 0 0 0 4 3 4 5 5 5 5 5 5 5 5 4 1 0
40 6 5 5 5 1 40 75 38 12 68 90 74 100 100 100 100 100 100 100 100 100 100 100 100 94 53 29 0 0 2 5 14 8 4 35 65 8 4 4 3 4 6 5
59 99 94 37 35 2 44 49 23 6 7 80 56 29 100 100 100 100 100 100 100 100 100 80 98 100 100 100 73 6 0 0 0 3 5 4 10 100 58 6 1 0 0 0
100 100 100 85 22 93 100 76 5 54 95 13 100 34 100 100 100 100 100 100 100 84 16 52 100 60 31 3 8 5 70 18 0 0 0 0 0 5 97 80 78 65 5 1
60 67 100 98 97 98 26 6 5 5 7 6 96 14 100 100 100 100 100 100 100 100 100 100 100 100 100 100 100 100 100 91 8 2 0 0 0 0 5 15 36 97 86 100
79 92 99 57 8 46 95 77 23 27 5 5 1 7 100 100 100 100 100 100 44 21 99 100 94 99 100 100 100 100 100 100 100 92 50 1 0 3 7 4 9 5 93 48
79 100 98 99 7 9 22 97 100 100 55 2 3 1 98 100 100 100 100 74 5 8 6 64 100 86 100 86 100 100 100 100 100 100 100 100 98 9 2 6 86 92 13 99
74 10 68 59 90 100 100 96 100 100 100 99 81 21 5 100 100 100 43 19 100 100 52 23 6 70 99 68 100 100 24 100 100 100 100 100 100 100 100 24 5 16 99 100
100 97 5 36 100 20 100 100 100 100 100 100 100 100 74 100 100 100 100 100 99 100 100 85 81 70 94 10 100 100 67 58 100 100 100 100 100 100 93 100 100 51 87 76
98 100 57 100 100 100 100 100 100 100 100 100 100 100 100 86 100 100 100 100 100 100 100 100 100 100 99 16 90 100 97 85 100 100 100 100 100 100 100 10 63 100 80 91
100 100 100 100 100 100 100 100 100 100 100 100 100 100 100 100 100 100 100 100 100 100 100 100 100 100 100 62 43 92 100 88 100 100 100 99 100 100 100 13 5 48 84 100
100 100 100 100 100 100 100 100 100 100 100 100 100 100 100 100 100 100 100 100 100 100 100 100 100 100 100 100 100 92 84 78 98 100 100 100 100 100 100 80 99 100 100 100
100 100 100 100 94 22 42 53 73 76 96 77 84 97 54 31 72 98 100 96 12 7 82 100 80 100 100 98 100 91 80 96 71 100 100 100 100 100 100 100 100 100 100 100
100 100 97 77 87 100 99 89 8 93 86 100 96 100 4 18 5 0 4 7 4 0 0 0 5 11 18 47 94 98 100 100 100 100 100 100 100 100 100 100 100 100 100 100
73 94 100 69 5 64 98 5 5 5 70 100 100 33 5 5 5 5 2 0 0 1 17 90 15 5 5 5 5 29 74 72 100 58 100 100 100 100 100 100 100 100 100 100
100 100 100 95 19 100 98 1 0 2 0 0 0 2 7 5 5 5 5 5 5 7 5 5 5 4 0 0 0 0 96 100 46 15 5 14 5 37 95 100 100 100 100 100
100 96 100 100 99 99 2 5 0 3 17 18 39 79 79 83 59 39 90 100 65 77 15 5 5 0 0 0 0 0 5 3 14 88 18 97 100 14 9 92 100 100 100 100
28 5 75 68 41 9 0 2 0 1 10 5 5 54 42 13 3 2 7 8 2 1 1 1 3 0 0 0 0 2 5 0 0 3 2 27 83 13 28 64 32 100 100 100
1 9 97 100 100 82 0 0 0 0 2 5 5 0 0 5 13 0 0 0 0 0 0 0 0 0 0 0 0 0 3 0 0 0 0 0 15 64 5 98 30 100 100 100
3 67 99 89 100 74 3 6 13 13 3 5 5 2 0 23 1 0 0 0 0 0 0 0 0 0 0 0 0 0 0 0 0 0 0 0 0 8 39 44 43 60 32 55
0 3 18 59 74 78 5 55 63 92 98 34 5 2 3 4 2 2 1 0 0 0 0 0 0 0 0 0 0 0 0 0 1 0 0 0 0 1 70 75 14 47 63 84
6 2 19 5 45 31 6 92 100 100 71 5 9 5 33 5 5 3 0 0 0 0 0 0 0 0 0 0 0 0 0 0 5 5 0 0 0 0 0 15 94 74 54 90
3 2 4 26 17 100 100 100 100 99 69 10 5 5 0 0 1 5 0 0 0 0 0 0 0 0 0 0 0 5 2 5 5 5 5 5 8 5 5 5 5 5 46 100
1 9 32 23 5 100 52 50 19 7 24 5 3 1 3 5 5 5 5 4 0 0 0 0 2 5 0 0 4 5 12 52 70 97 100 100 72 33 49 30 13 39 61 100
29 15 67 16 13 87 3 4 4 0 1 3 4 5 5 5 5 5 0 0 0 0 0 0 2 6 7 13 36 95 99 100 100 100 100 100 100 100 100 100 92 28 76 96

GFSCGP_prec_cloud_006.txt.gz
Cloud_Cover
77 6 23 5 5 13 5 5 8 98 100 71 100 18 100 100 100 100 98 100 100 100 93 5 5 4 0 0 4 4 5 1 2 0 0 5 5 3 0 0 0 0 1 4
100 44 88 20 8 98 50 17 20 61 12 69 100 100 100 70 23 6 61 91 99 91 62 58 58 14 7 8 17 56 12 31 100 94 28 5 3 4 5 53 4 4 0 1
98 86 99 100 96 71 64 96 100 68 51 64 99 100 100 100 100 64 70 5 5 27 5 21 100 100 100 100 100 98 100 77 52 89 100 100 100 92 37 4 5 5 4 5
100 100 100 100 100 100 100 100 77 43 5 98 100 99 100 100 100 100 79 41 54 9 100 99 100 100 100 100 100 100 83 19 97 80 30 28 97 100 100 100 100 84 5 2
79 99 100 100 100 100 100 100 100 100 100 100 100 92 100 100 100 100 94 88 37 100 100 100 100 100 83 98 99 56 54 95 55 9 19 34 4 8 95 100 96 9 91 19
40 29 14 5 6 79 84 81 89 80 80 64 100 100 100 100 100 100 100 100 24 20 82 100 100 100 100 100 84 51 7 77 83 36 88 96 40 43 9 30 82 97 21 4
49 47 94 8 5 48 75 9 12 8 21 88 76 19 99 100 34 34 56 19 5 6 39 11 65 99 100 100 100 100 100 100 100 98 20 7 33 49 100 83 19 22 5 2
6 97 50 74 5 23 7 78 100 87 4 26 7 63 99 100 92 5 5 5 5 5 4 3 5 19 28 61 100 100 100 100 100 100 100 100 99 86 2 18 72 70 99 31
92 28 65 19 14 37 18 27 96 100 82 53 4 44 98 100 70 33 70 40 14 5 9 5 8 15 39 46 5 5 97 100 100 100 100 100 100 100 100 100 90 19 27 98
100 82 5 97 96 88 100 92 28 93 100 98 44 15 4 52 88 100 100 100 100 88 35 54 91 32 81 100 99 5 5 97 100 100 59 100 100 100 100 100 100 100 100 100
100 100 8 5 26 69 78 75 100 100 100 100 100 100 100 100 100 100 100 100 100 100 100 100 100 74 92 98 100 77 5 100 100 100 86 96 100 81 18 98 100 94 100 100
100 100 98 100 99 55 100 100 100 100 100 100 100 100 100 100 100 100 100 100 100 100 100 100 100 100 100 100 100 100 99 100 100 100 100 100 100 100 92 100 100 100 100 100
100 100 100 100 100 100 100 100 100 100 100 100 100 100 100 100 100 100 100 81 5 52 63 9 82 100 100 99 100 100 100 68 100 100 100 100 100 100 100 100 100 100 100 100
100 100 100 100 100 100 100 100 100 100 100 100 100 100 100 100 100 56 5 28 5 3 0 5 4 3 5 39 75 97 100 100 83 60 52 98 100 100 100 100 100 100 100 100
100 100 100 100 100 100 100 100 100 99 91 100 35 97 3 4 100 12 5 5 5 0 0 0 0 0 0 3 5 3 2 6 46 69 52 44 100 95 100 100 100 100 100 100
98 100 77 6 5 24 76 5 5 27 46 96 97 72 5 4 0 4 5 0 0 0 0 0 0 2 5 4 1 0 0 0 0 0 0 4 14 5 5 58 100 66 100 100
92 99 72 83 23 100 100 8 4 0 0 0 0 1 0 0 0 1 5 5 5 5 5 5 3 5 0 3 3 0 0 0 0 0 0 0 0 0 0 2 7 100 31 77
93 100 100 91 93 97 0 0 0 0 0 2 5 3 47 58 46 37 85 22 11 5 4 5 4 4 4 2 2 0 0 0 0 0 0 0 0 0 0 0 0 3 98 70
5 28 100 100 94 38 4 0 0 1 0 5 5 8 61 36 8 5 30 6 0 0 0 0 0 0 0 0 0 0 0 0 0 0 0 0 0 0 0 0 0 0 72 100
1 65 97 84 97 8 0 0 0 0 6 6 19 46 66 21 1 0 5 5 5 5 4 0 0 0 0 0 0 0 0 0 0 0 0 0 0 0 0 0 0 0 0 6
4 62 81 39 99 84 2 0 4 63 7 12 100 10 5 5 5 0 2 2 2 0 0 0 0 0 0 0 0 0 0 0 0 0 0 0 0 2 0 0 0 0 0 0
0 0 3 51 67 72 0 0 5 7 40 50 11 5 5 5 2 4 2 0 0 0 0 0 0 0 0 0 0 0 0 0 2 5 5 5 5 5 9 8 5 5 5 5
3 0 4 2 33 0 5 5 5 9 5 5 7 5 5 5 5 1 0 0 0 5 5 5 0 0 0 0 0 0 0 4 5 5 5 5 48 95 100 100 99 99 79 64
2 0 2 29 1 5 12 97 99 100 25 5 5 5 5 3 0 0 0 0 5 5 0 0 0 0 0 0 0 5 5 5 5 12 54 98 100 100 100 100 100 100 100 100
0 5 17 21 16 6 5 5 5 5 8 5 5 21 5 5 5 5 5 5 5 0 0 4 4 0 1 2 5 5 5 22 89 100 100 100 100 100 100 100 100 100 100 100
9 16 55 10 65 63 0 5 5 5 5 6 63 100 100 6 5 5 5 5 0 0 0 2 5 5 5 5 5 24 88 100 100 100 100 100 100 100 100 100 100 100 100 100

GFSCGP_prec_cloud_009.txt.gz
Cloud_Cover
100 75 100 100 100 100 32 25 100 100 100 100 100 82 91 43 100 100 46 5 1 4 5 5 5 5 18 5 41 31 83 65 10 14 5 5 8 5 5 0 0 0 0 0
74 35 92 99 100 100 100 72 99 100 100 100 37 66 48 80 5 86 95 81 69 27 6 1 4 5 7 5 6 100 100 100 99 68 25 100 100 100 98 52 12 12 5 6
100 99 78 79 78 96 84 100 100 100 100 100 100 100 98 100 22 5 2 12 96 74 100 91 44 37 4 3 12 100 100 100 100 100 100 100 100 100 100 100 96 92 49 24
82 100 83 7 97 100 100 100 85 99 100 100 100 100 100 100 97 29 100 74 5 82 100 100 100 57 84 95 72 5 92 100 100 100 100 100 100 75 89 100 100 100 61 6
100 100 100 100 100 77 100 97 55 19 5 60 100 60 100 100 100 100 100 100 98 81 98 99 99 89 5 4 87 83 14 12 95 100 99 100 21 12 80 13 57 100 98 91
93 7 37 100 100 100 100 100 100 100 100 63 99 84 100 98 97 100 100 100 100 100 7 5 22 53 100 100 97 31 12 88 85 63 6 98 100 73 44 5 20 5 7 20
87 14 5 56 16 61 81 98 48 6 21 100 96 10 99 100 100 9 91 100 100 57 7 4 2 5 37 56 90 53 64 100 87 83 23 79 19 25 5 3 13 5 9 26
100 98 96 9 99 100 98 100 100 96 18 6 47 98 100 100 100 99 12 1 72 100 39 5 0 4 0 4 5 22 69 23 59 100 100 100 100 100 93 73 70 7 0 5
100 100 100 80 100 100 100 100 100 100 17 51 96 86 100 100 96 91 15 100 3 71 36 0 0 0 0 1 5 5 2 5 6 19 66 100 100 100 100 100 100 100 100 87
100 100 100 100 96 94 100 100 100 100 100 100 16 8 98 100 11 66 5 13 77 6 18 2 5 1 0 4 5 5 49 22 14 93 100 100 100 100 100 100 100 100 100 100
100 100 17 100 100 100 100 100 100 100 100 100 90 6 8 9 81 9 44 13 3 25 7 15 79 3 4 5 5 76 38 100 95 100 100 95 100 100 100 100 100 100 100 100
100 100 100 100 100 100 100 100 100 100 100 100 100 100 99 98 96 96 100 97 81 92 75 99 78 43 100 99 90 100 100 100 95 100 100 100 100 100 100 100 100 100 100 100
100 100 95 99 100 100 100 100 100 100 100 100 100 100 100 100 100 100 96 97 100 100 100 100 100 100 100 100 100 100 100 100 100 100 100 100 95 100 99 100 100 100 100 100
100 89 12 37 4 14 98 94 100 100 100 100 100 100 100 100 100 84 46 19 56 100 100 99 99 95 100 52 1 0 0 1 51 90 16 55 78 49 99 100 94 100 100 100
78 23 34 42 7 5 84 100 38 28 14 77 89 100 100 88 81 93 100 41 15 16 1 0 0 0 0 0 0 0 0 0 0 0 0 0 0 1 3 27 100 100 100 100
72 81 63 5 5 5 5 0 0 3 5 5 6 67 3 12 0 4 2 0 0 5 5 4 1 5 1 1 0 0 0 0 0 0 0 0 0 0 0 0 0 0 86 100
5 28 13 4 2 5 55 0 2 0 0 6 75 8 0 0 0 0 0 0 2 8 8 47 59 6 5 5 3 0 0 0 0 0 0 0 0 0 0 0 0 0 0 0
32 30 80 40 22 95 0 0 0 0 0 0 0 2 0 2 3 3 5 64 96 100 100 99 68 31 9 4 1 0 0 0 0 0 0 0 0 0 0 0 0 0 0 0
3 49 100 100 64 8 0 0 0 0 0 0 0 1 5 7 5 1 80 23 3 58 66 36 12 1 0 0 0 0 0 0 0 0 0 0 0 0 0 0 0 0 0 0
4 5 87 23 99 8 0 0 0 0 0 5 0 3 5 94 81 0 5 0 4 5 5 5 5 5 5 4 0 0 0 0 0 0 0 0 0 0 5 5 5 5 5 5
4 5 9 10 54 24 4 5 5 25 1 5 5 3 5 11 22 4 0 2 5 0 5 5 4 0 0 0 0 0 0 0 0 0 2 5 5 6 5 5 74 97 96 81
0 0 1 52 61 77 0 1 1 0 0 0 2 12 29 2 1 1 1 0 0 0 0 0 0 0 0 0 0 0 0 0 0 3 5 5 5 5 52 92 82 100 100 100
3 0 2 41 82 12 1 5 0 0 0 0 3 0 4 2 0 0 0 0 0 0 0 0 0 0 0 0 0 0 0 4 5 5 5 10 46 79 99 100 100 100 100 100
0 0 97 17 0 0 1 5 5 5 5 2 0 0 0 5 5 5 6 5 4 3 0 0 0 1 0 0 0 5 5 5 34 79 98 100 100 100 100 100 100 100 100 100
0 7 0 53 0 1 0 5 18 86 51 19 13 5 3 5 22 69 77 5 5 5 0 0 0 0 0 0 5 5 5 18 100 100 100 100 100 100 100 100 100 100 100 100
0 0 36 37 5 33 0 4 39 72 14 34 63 9 14 69 75 74 6 56 23 4 0 0 0 5 5 5 5 5 9 97 90 100 100 100 100 100 100 100 100 100 100 100

GFSCGP_prec_cloud_012.txt.gz
Cloud_Cover
6 26 40 54 58 29 70 98 100 100 33 17 100 57 5 96 100 100 100 9 5 1 1 5 21 5 5 1 5 5 86 40 6 90 97 85 10 86 100 100 100 100 100 81
5 5 5 38 8 5 5 38 100 100 100 100 79 98 100 100 96 96 100 100 9 5 5 5 7 5 4 7 7 4 49 95 100 100 100 100 100 99 100 100 99 100 100 100
5 5 7 5 18 9 87 99 64 64 64 100 100 100 100 100 100 100 100 100 100 71 27 20 5 5 32 98 86 83 5 3 5 44 100 100 100 100 100 100 100 100 100 100
5 5 4 5 2 7 61 10 38 100 100 100 100 93 100 100 100 100 100 100 100 100 100 98 76 23 32 6 56 84 88 80 56 47 11 22 100 100 100 100 100 100 100 74
5 5 14 56 64 5 32 45 30 64 8 93 100 100 100 100 100 100 100 100 100 100 100 100 100 100 100 100 90 100 90 57 28 0 1 7 11 58 92 100 95 100 100 100
53 85 100 56 62 81 55 56 21 63 37 54 85 35 100 99 100 56 69 100 100 100 100 100 100 100 100 100 100 100 100 100 45 1 5 4 5 5 24 7 5 10 46 97
27 71 77 51 99 95 95 100 81 28 47 47 70 14 58 34 62 5 32 94 18 6 87 100 100 100 100 100 100 100 100 100 100 100 100 60 20 41 2 66 61 14 8 5
99 93 84 21 98 100 100 100 100 100 100 100 100 72 98 47 50 71 7 18 8 5 4 8 50 100 99 33 98 100 100 100 100 65 17 56 33 88 86 13 5 5 7 5
100 100 98 100 100 100 100 100 100 100 100 100 94 100 100 100 100 64 36 7 48 15 5 5 5 5 5 4 7 5 4 56 100 100 90 70 12 5 5 17 90 93 55 60
90 99 99 100 100 100 100 100 100 100 100 62 5 44 5 40 71 99 97 100 80 5 6 59 27 5 5 5 7 18 3 4 44 91 35 13 56 5 5 5 5 6 58 95
100 100 100 100 100 100 100 100 100 100 92 100 100 100 100 95 98 100 94 16 71 6 83 100 100 100 58 34 5 60 5 16 44 5 17 80 45 5 14 9 5 64 34 24
100 100 100 68 100 100 100 95 100 100 100 100 99 100 100 100 100 100 100 98 89 75 79 24 64 68 100 77 24 93 95 99 96 98 37 5 24 5 29 6 5 26 47 71
100 100 100 99 100 100 95 38 15 77 42 70 100 33 58 70 5 23 29 65 90 100 100 100 100 100 100 100 100 84 100 100 100 100 100 100 36 96 41 71 50 46 76 100
100 75 98 100 56 100 97 71 35 62 95 11 32 12 0 0 80 100 99 6 5 5 0 8 5 14 10 0 0 2 1 1 1 22 99 10 93 100 98 99 100 100 100 100
100 100 100 100 100 54 6 5 5 5 5 90 1 2 0 0 0 2 4 3 3 5 5 3 0 0 0 0 0 0 5 5 5 4 0 0 4 12 26 6 5 8 21 62
100 100 100 81 5 5 5 0 0 0 0 0 0 4 0 12 77 5 0 0 0 0 0 0 0 1 5 16 44 64 49 47 9 5 3 0 3 0 0 0 0 0 0 0
100 61 69 52 5 4 46 0 0 0 0 0 4 2 5 1 1 3 0 0 0 0 0 4 23 81 95 100 98 70 80 86 76 46 5 5 5 5 4 0 0 0 0 0
100 100 44 45 5 86 0 0 0 0 0 0 3 5 1 0 0 0 0 0 0 0 5 26 98 42 16 87 71 48 33 2 2 1 5 3 0 0 0 0 0 0 0 2
9 45 98 77 16 0 0 3 4 25 1 3 4 1 0 0 0 0 1 5 2 0 4 3 3 3 2 0 0 0 0 0 0 0 0 0 0 0 0 0 1 5 5 5
0 5 92 72 100 18 4 5 5 5 0 5 1 0 0 0 4 0 0 5 28 32 5 0 0 0 0 0 0 0 0 4 0 0 0 0 0 0 2 5 5 5 5 5
5 67 84 95 100 62 4 0 0 6 0 4 0 0 0 0 2 0 0 0 0 0 0 0 0 0 0 0 0 0 0 0 0 0 2 5 5 5 5 5 5 5 53 88
58 97 94 40 9 68 0 0 0 0 4 4 5 4 4 0 0 1 0 0 0 0 0 0 0 0 0 1 0 0 0 0 0 4 5 5 5 5 5 30 56 98 100 100
99 22 1 0 0 0 0 0 0 0 0 0 1 0 4 0 1 1 1 0 5 5 5 5 3 5 5 4 5 3 0 0 5 5 5 5 5 55 80 100 100 100 100 100
0 0 0 1 0 0 0 0 3 5 0 0 0 4 5 5 5 5 5 5 5 22 5 5 5 5 5 5 3 5 2 5 5 10 59 71 60 10 5 71 100 100 100 100
0 0 0 2 2 2 0 0 0 0 1 5 5 9 17 36 5 5 43 96 5 5 37 11 10 15 27 3 5 5 5 5 7 97 88 78 67 38 96 100 100 100 100 100
0 0 0 4 2 27 5 5 4 4 5 5 5 5 5 5 13 34 17 44 78 100 98 100 100 74 5 5 5 5 5 5 60 100 100 100 100 100 100 100 100 100 100 100

GFSCGP_prec_cloud_015.txt.gz
Cloud_Cover
5 5 4 0 0 0 5 68 38 100 100 25 100 100 100 100 100 100 100 100 100 68 6 4 0 3 5 5 0 5 5 5 5 3 48 82 5 35 100 100 100 100 100 100
5 28 8 4 6 46 6 5 5 27 5 6 74 100 100 100 100 100 100 100 100 100 100 99 79 9 5 5 4 5 5 5 0 0 5 4 75 61 100 100 100 100 100 100
10 44 6 15 5 6 22 5 0 3 4 7 59 93 100 100 100 100 100 100 100 100 100 100 100 100 98 39 11 8 24 5 5 30 9 19 1 5 54 80 100 100 100 100
90 13 5 5 5 5 18 5 5 4 3 6 11 2 100 64 100 100 100 100 100 100 100 100 100 100 100 100 100 99 81 96 71 21 11 42 11 5 18 10 19 76 83 52
23 88 13 5 5 8 44 52 5 5 5 10 80 6 50 6 84 99 98 100 98 100 100 100 100 100 100 100 100 100 100 100 100 99 98 36 21 6 5 5 5 0 61 99
26 44 54 7 66 44 6 16 57 95 53 5 6 5 86 14 5 5 7 10 57 51 94 100 100 100 100 100 100 100 100 100 100 100 100 100 100 100 67 10 0 0 0 0
54 28 10 66 34 14 87 56 96 100 98 84 90 7 35 5 3 3 0 5 63 99 100 74 80 100 92 99 100 100 100 100 100 100 100 100 100 100 100 100 100 80 6 6
12 82 40 5 9 15 91 98 97 100 100 100 100 94 57 99 3 5 91 74 100 100 100 100 89 39 68 25 67 34 67 100 100 100 100 100 100 100 100 100 100 100 100 18
84 34 33 100 76 98 100 100 100 100 100 100 100 100 100 99 99 46 100 58 97 100 99 99 99 100 100 96 97 93 96 100 100 81 100 100 100 100 100 100 100 100 100 100
82 66 9 83 90 100 100 100 100 100 100 100 100 94 7 5 73 97 100 100 100 76 30 30 11 87 99 49 19 10 11 6 7 46 79 100 100 78 69 61 67 100 85 90
100 100 99 86 99 100 100 100 100 88 100 100 58 6 24 77 100 6 6 10 15 66 98 100 100 100 96 100 41 5 71 95 26 5 3 3 1 7 94 21 34 5 3 5
100 100 91 100 100 100 100 100 100 100 100 34 97 20 52 98 100 100 79 4 4 6 9 35 60 92 100 100 100 89 26 100 100 52 3 1 2 1 3 40 71 98 22 5
100 98 100 99 100 100 100 100 100 100 94 100 100 100 100 100 100 94 5 0 0 0 19 92 100 85 74 41 52 12 3 5 2 0 0 2 0 0 1 0 0 3 4 5
100 100 100 77 100 100 100 100 100 100 100 100 100 100 100 100 85 5 5 0 0 2 5 5 9 60 100 96 94 52 83 64 9 5 3 4 3 0 2 2 4 5 4 4
100 100 100 100 100 100 100 100 100 100 100 100 100 100 56 18 1 1 1 0 3 5 4 2 0 0 0 0 0 5 5 5 19 29 49 58 5 5 5 5 0 1 4 0
100 100 100 100 100 100 100 100 100 100 100 100 29 0 0 0 0 0 0 5 5 4 5 4 3 0 0 0 7 79 8 29 5 5 5 2 0 0 0 0 0 0 0 0
100 100 100 100 100 100 100 100 100 59 0 0 0 0 5 0 2 0 3 5 5 5 4 0 0 5 5 5 5 5 5 5 5 5 5 2 4 4 0 1 0 0 0 0
100 100 100 100 100 100 99 41 0 0 0 0 2 5 5 0 0 0 0 0 0 0 0 1 5 5 5 5 5 5 5 4 3 5 5 5 3 5 4 0 0 0 0 4
100 100 100 100 100 100 82 24 1 4 0 0 5 5 4 4 0 0 0 0 0 0 0 2 0 0 0 0 3 0 0 0 1 0 3 5 5 5 0 0 4 5 5 5
100 100 32 100 91 66 5 5 5 29 6 91 5 5 0 0 0 0 0 0 0 0 0 0 0 0 0 0 0 0 2 5 3 1 0 0 0 5 5 5 5 5 5 5
91 18 88 82 96 28 5 39 95 92 13 5 0 0 0 0 0 0 0 0 0 0 0 0 0 0 0 0 0 0 0 2 4 4 2 4 5 5 5 5 5 5 24 96
10 46 20 96 100 80 47 24 46 2 4 1 0 0 0 0 0 0 0 0 0 0 0 2 4 5 5 5 5 2 4 1 4 5 5 5 5 5 5 5 5 61 82 98
92 40 79 5 21 5 5 5 5 0 0 0 0 0 0 0 0 0 0 0 0 0 0 5 5 5 5 5 5 5 2 3 5 5 5 5 5 5 5 5 5 5 30 100
5 5 5 4 1 5 80 6 5 4 0 0 0 0 0 0 0 0 0 3 5 5 5 53 87 5 36 16 5 5 5 5 5 5 5 5 5 5 5 6 42 76 100 100
0 0 2 1 0 5 3 2 0 0 0 0 0 0 0 3 5 4 5 5 5 5 23 8 5 5 27 5 5 5 5 5 20 5 5 5 16 35 77 87 99 100 100 100
0 0 0 4 3 5 0 0 0 0 1 4 5 2 1 5 0 5 5 5 5 5 44 14 11 17 67 99 8 12 5 5 12 67 8 48 98 100 99 78 98 75 100 100

GFSCGP_prec_cloud_021.txt.gz
Cloud_Cover
47 74 42 5 5 5 10 36 94 93 5 17 7 6 28 5 5 5 5 5 60 92 100 100 100 100 97 62 100 99 59 97 30 5 5 100 100 87 100 99 99 100 100 100
14 80 36 15 6 5 5 5 22 8 5 5 5 20 5 5 5 5 5 4 5 5 33 50 55 38 100 97 48 13 5 38 53 18 5 17 99 100 100 100 16 5 9 1
5 7 5 5 8 12 5 5 4 4 4 1 5 5 12 5 5 5 5 5 4 4 4 5 3 5 5 5 12 47 91 100 5 17 14 4 13 85 100 100 100 99 38 90
19 31 5 5 5 57 94 5 5 5 5 5 6 5 85 50 75 9 5 6 5 5 5 5 5 3 3 1 5 22 5 5 0 5 12 69 37 12 62 35 100 100 100 100
5 5 7 5 7 15 57 10 2 3 1 5 94 16 6 100 86 43 12 6 7 5 6 11 17 5 5 6 8 5 5 3 4 5 4 0 24 95 72 44 68 90 100 100
40 15 11 100 100 55 99 35 12 5 3 5 11 8 22 18 35 45 9 16 60 5 5 5 4 2 3 4 4 1 5 5 5 4 4 2 5 5 10 70 100 100 100 100
50 7 50 100 100 63 82 21 44 45 77 80 20 41 53 7 49 79 95 7 10 50 5 5 5 5 5 1 0 2 1 2 2 2 2 5 5 4 3 5 99 100 100 100
69 100 24 100 83 100 96 100 100 10 95 98 95 85 99 98 58 94 99 97 90 5 19 10 10 19 17 5 5 5 5 5 6 23 5 5 5 4 0 0 69 100 100 100
82 54 100 98 100 100 100 100 92 20 85 73 90 100 100 97 100 61 93 98 8 5 5 5 4 7 18 71 100 100 92 100 67 100 98 17 11 44 14 1 0 41 100 100
95 71 96 100 100 98 100 61 90 100 76 86 6 36 96 98 82 100 100 100 81 46 6 7 97 100 100 100 100 100 83 100 100 100 100 100 85 66 98 91 85 30 5 9
58 83 100 96 100 100 100 90 100 68 84 100 16 48 17 99 100 100 100 98 21 6 87 100 67 73 73 92 100 100 100 100 100 100 89 59 58 11 3 5 14 42 16 0
99 47 92 100 100 92 40 91 78 55 68 69 34 5 68 100 100 100 99 19 5 71 100 100 100 100 100 100 100 100 100 100 11 0 1 0 0 0 0 0 0 0 0 0
100 91 100 100 91 57 63 75 92 80 96 94 100 70 100 100 100 100 96 38 13 95 99 100 100 100 100 99 92 31 5 4 5 1 0 0 0 0 0 0 0 0 3 5
100 76 43 97 94 87 30 65 39 71 100 100 100 100 100 100 100 93 47 10 79 100 100 100 100 54 5 4 5 5 5 5 1 0 0 0 0 0 0 0 0 0 0 1
100 95 62 76 43 64 5 7 43 98 100 100 100 94 100 100 100 92 21 27 85 99 100 100 40 0 2 5 5 5 5 0 1 2 0 0 5 4 1 3 4 0 0 0
100 88 100 100 72 17 28 51 100 100 100 100 100 18 100 92 98 90 85 100 100 100 93 5 5 5 5 6 40 90 99 16 3 5 5 5 4 3 4 3 0 0 0 0
87 100 97 64 77 100 83 96 100 100 100 100 80 100 100 100 100 100 100 100 100 100 37 11 61 97 89 32 5 1 2 5 17 5 5 5 5 5 2 0 0 0 0 0
100 100 100 100 100 100 54 22 100 100 100 100 100 100 100 100 100 100 100 100 100 85 43 53 27 5 3 0 0 0 0 4 2 5 5 5 2 3 1 0 0 0 0 0
100 100 100 100 100 88 39 99 100 100 100 100 100 100 100 99 100 100 100 62 5 5 5 5 2 0 0 0 0 2 0 0 0 2 5 5 4 5 5 5 5 3 5 5
100 100 100 100 100 76 99 100 100 100 100 100 100 100 97 68 99 84 27 7 5 5 4 0 0 0 0 0 0 0 0 0 0 5 5 5 5 5 5 5 5 5 5 5
100 100 100 100 100 100 100 100 100 85 100 85 100 98 86 66 5 12 5 5 5 0 0 0 0 0 0 0 0 0 0 0 4 8 25 63 55 5 5 5 5 5 5 5
100 100 100 100 100 100 100 100 100 100 100 39 5 7 5 8 0 0 0 0 0 0 0 0 0 0 0 2 0 0 0 5 60 95 98 97 99 62 5 8 5 5 5 7
100 100 100 100 100 100 100 100 100 90 5 5 5 5 0 0 0 0 0 0 0 0 0 0 3 0 0 4 2 0 5 92 100 100 100 100 90 18 5 48 6 5 5 53
100 100 100 100 100 100 97 35 11 30 5 5 4 0 0 0 0 0 0 0 0 0 0 5 5 5 5 5 5 5 45 100 100 100 100 100 100 63 5 5 5 58 54 68
100 100 100 100 100 98 36 18 8 29 8 1 2 5 2 4 5 5 2 0 0 3 5 5 5 5 5 5 5 5 99 95 96 81 100 100 100 94 5 5 5 22 63 100
100 100 100 100 100 95 90 77 68 5 4 5 5 5 5 2 0 0 0 0 5 5 5 5 5 5 5 5 5 5 99 89 84 91 100 97 41 5 5 5 5 6 78 100

GFSCGP_prec_cloud_024.txt.gz
Cloud_Cover
37 96 53 7 58 12 5 5 6 5 4 20 29 5 6 5 5 5 5 5 5 44 9 56 62 5 11 6 5 5 6 5 5 6 42 100 50 31 23 15 0 100 100 100
16 52 22 71 39 64 39 4 5 5 5 5 29 36 10 5 5 5 0 1 5 17 20 28 50 75 64 58 61 39 51 53 57 5 1 1 7 10 64 1 0 0 3 5
5 5 28 8 5 43 5 5 1 5 3 5 4 3 5 4 5 0 4 8 5 4 4 5 3 4 5 5 5 12 6 47 22 10 5 5 5 4 0 0 3 1 2 2
8 54 5 13 77 3 5 0 5 0 3 5 5 4 5 11 5 5 6 7 1 1 4 3 2 2 5 5 5 1 34 72 77 9 10 5 5 7 10 5 4 2 5 2
40 49 40 38 5 5 5 5 5 5 19 66 100 4 5 7 88 100 99 73 55 14 6 2 5 5 4 5 5 4 7 25 5 5 5 5 5 4 4 0 0 0 0 0
92 33 25 75 45 5 84 34 5 19 39 11 97 71 99 100 100 100 100 100 100 97 91 52 45 63 5 6 67 46 42 46 5 30 20 21 5 5 5 4 5 3 4 2
40 13 98 92 70 44 5 21 41 31 100 99 100 100 100 98 92 100 100 100 90 20 64 37 30 69 97 82 20 100 61 8 9 5 8 5 44 47 6 48 83 89 41 38
22 100 93 100 99 97 23 40 44 36 92 87 98 94 100 91 66 100 100 100 100 100 30 41 5 5 5 8 68 5 8 32 60 84 99 91 100 100 100 100 100 92 100 100
74 52 100 100 100 100 100 100 44 8 66 20 98 100 98 100 100 100 94 9 76 93 6 5 5 5 5 5 6 8 10 68 96 97 96 80 97 100 100 100 100 100 100 100
100 100 100 100 100 100 100 100 100 100 60 75 100 100 100 100 100 92 5 29 13 12 5 5 5 61 7 81 100 100 100 100 96 95 100 100 100 100 100 100 90 94 100 98
100 100 100 100 100 100 100 100 100 100 53 14 39 74 100 100 100 100 16 41 9 5 10 100 100 41 5 5 20 71 44 92 90 100 100 84 8 3 4 6 5 5 4 3
100 100 100 100 100 100 100 100 100 100 100 53 34 85 76 48 47 23 5 5 35 6 100 100 100 40 100 74 24 100 100 100 100 94 15 4 5 28 50 61 42 18 5 3
100 100 100 100 100 100 100 100 100 100 94 14 99 81 60 22 6 22 32 18 22 100 12 72 38 100 5 90 100 100 100 98 24 5 5 5 5 13 5 5 5 3 1 0
100 100 100 100 100 100 100 73 82 100 92 74 68 68 74 98 100 38 31 82 99 5 39 100 100 80 24 100 92 80 49 34 39 5 0 5 5 1 0 0 0 0 0 0
100 100 100 100 100 100 100 100 100 100 100 100 97 100 100 100 45 92 100 100 98 40 100 100 41 99 99 100 41 5 25 94 44 4 3 0 4 5 2 0 1 0 0 0
100 100 100 100 100 100 100 100 100 100 100 100 100 43 98 100 100 100 100 82 87 100 88 94 100 100 96 33 26 5 37 5 5 5 5 4 0 3 4 2 0 0 0 0
100 100 100 100 100 100 100 100 100 78 7 36 61 92 100 100 99 93 100 100 98 23 100 100 100 94 93 52 5 5 5 5 5 5 5 5 5 5 2 0 0 0 0 0
100 100 100 100 100 97 16 6 61 85 5 74 100 100 100 97 58 99 100 76 43 100 100 100 89 100 10 5 5 5 5 5 5 5 5 5 4 5 5 1 3 0 0 0
100 100 100 100 100 90 5 77 96 99 100 69 100 100 68 12 100 63 59 55 100 100 100 100 100 40 75 1 0 0 5 5 3 1 5 5 3 5 5 5 5 5 4 4
100 100 100 100 100 100 5 82 100 100 84 100 100 100 100 99 100 100 100 100 100 100 100 79 31 49 0 0 0 5 5 5 0 2 5 5 5 5 5 5 5 5 7 5
100 100 100 100 100 100 100 100 100 100 100 100 100 36 54 100 100 100 100 100 100 95 20 99 6 0 0 0 4 5 5 2 4 5 5 5 5 22 5 6 5 5 5 5
100 100 100 100 100 100 100 100 100 100 100 100 100 68 97 96 100 100 100 99 18 89 98 6 0 0 0 2 5 5 4 4 5 5 5 7 98 58 61 5 22 34 5 5
100 100 100 100 100 100 100 100 100 100 100 15 6 95 100 98 51 100 71 66 99 30 0 0 0 0 0 5 4 5 5 5 5 5 16 100 97 97 73 9 66 100 100 41
100 100 100 100 100 100 100 100 100 88 5 53 100 14 5 47 56 94 100 26 7 0 0 2 5 5 5 5 5 4 5 5 5 5 72 100 89 100 90 63 100 100 97 5
100 100 100 100 100 100 100 100 100 95 94 46 42 57 100 32 69 41 3 0 0 0 4 5 5 5 5 5 5 5 5 5 5 5 89 96 98 100 100 100 100 96 81 56
100 100 100 100 100 100 100 100 96 47 28 41 80 30 72 87 13 0 0 0 0 1 5 5 5 5 5 5 5 5 5 5 5 5 55 92 34 98 88 99 100 69 93 100

GFSCGP_prec_cloud_027.txt.gz
Cloud_Cover
57 80 85 5 39 54 18 20 10 5 0 5 5 65 99 7 8 5 5 5 1 0 0 0 2 4 4 4 5 1 62 100 100 100 100 100 5 5 4 4 4 0 4 5
16 49 6 5 66 39 66 25 93 5 5 3 0 32 79 5 5 0 3 3 2 5 5 6 29 62 88 11 5 5 3 33 36 8 2 3 4 5 6 5 5 1 3 2
23 100 15 5 5 12 5 41 81 10 5 0 0 3 3 5 5 5 5 2 2 26 68 66 85 22 63 46 7 66 38 35 6 5 5 4 5 1 1 19 5 5 0 0
20 94 53 51 59 8 20 79 87 34 2 0 1 5 5 5 7 34 31 34 63 100 100 88 89 100 99 85 96 100 97 100 69 7 12 69 47 50 6 20 24 5 5 3
95 74 99 100 88 9 24 5 5 5 5 5 100 1 57 100 100 81 100 100 76 19 68 58 60 14 5 5 5 66 83 5 6 9 72 36 5 5 5 5 5 5 3 5
100 96 100 100 100 100 100 62 5 23 5 16 71 5 100 100 100 100 100 100 100 100 88 5 5 5 15 5 3 5 5 5 3 5 5 69 18 21 15 63 72 75 85 93
100 100 100 100 100 100 83 71 34 10 30 5 63 8 100 74 100 100 100 100 100 100 97 84 100 100 100 88 38 7 5 5 5 5 5 13 5 70 86 100 100 100 100 100
100 100 100 100 96 10 49 80 99 94 63 100 100 100 100 100 100 100 100 100 100 100 100 100 100 100 72 60 41 21 5 43 5 5 5 45 82 72 77 81 79 96 100 100
100 72 100 100 100 90 99 100 100 100 100 100 98 100 100 100 99 100 100 100 100 100 89 74 89 6 5 5 5 5 5 2 5 5 50 100 100 100 96 46 74 96 100 100
100 100 100 100 99 100 100 100 100 100 100 99 94 100 100 100 100 100 100 100 100 100 100 100 100 64 9 34 5 4 5 16 66 73 35 90 90 48 70 43 80 98 99 97
100 100 100 100 100 100 100 100 100 100 100 100 100 100 100 100 100 88 93 100 100 74 62 30 14 16 52 12 5 62 86 63 46 5 41 100 100 5 75 100 100 96 40 7
100 100 100 100 100 100 100 100 100 100 100 100 100 100 100 100 100 100 5 5 77 73 61 12 5 5 6 27 92 100 89 82 69 6 6 99 38 16 6 82 15 5 5 0
100 100 100 100 100 100 100 100 100 100 100 100 100 100 100 100 100 100 100 100 100 15 36 5 5 5 37 5 5 5 5 5 95 88 96 21 28 5 33 1 0 0 0 0
100 100 100 100 100 100 100 100 100 100 100 100 100 100 100 100 100 100 100 71 19 97 93 81 9 71 9 11 21 5 62 100 85 100 80 84 100 39 0 0 0 0 0 0
100 100 100 100 100 100 100 100 100 100 100 100 100 100 100 100 100 100 100 100 100 86 79 90 96 14 92 10 7 5 42 99 10 19 60 100 10 0 0 0 0 0 0 0
92 100 77 100 99 100 100 100 100 100 100 100 100 100 100 100 100 100 57 96 76 80 9 84 39 100 100 5 25 100 100 100 5 20 97 58 0 3 4 0 0 0 0 0
100 100 100 100 100 100 100 100 100 100 100 100 100 100 100 100 87 59 27 38 30 72 89 99 22 100 51 6 100 100 51 20 44 45 17 4 5 5 5 4 1 0 0 0
100 100 100 100 100 93 100 100 100 100 100 100 100 99 100 94 23 9 66 100 52 100 100 100 100 98 59 100 100 100 35 86 74 55 5 5 5 5 0 0 0 0 0 2
100 100 100 100 100 90 10 100 100 100 100 91 38 100 100 78 96 100 87 18 97 100 100 100 57 94 100 100 53 56 86 26 11 0 4 5 4 5 0 2 0 0 5 5
100 100 100 100 100 100 99 95 94 90 30 81 100 100 100 100 24 60 51 100 100 100 100 100 99 96 100 100 98 96 21 5 5 2 1 5 5 5 5 0 4 5 5 5
100 100 100 100 100 100 80 100 100 88 77 100 100 65 19 81 84 92 100 100 100 100 99 99 100 100 100 96 94 8 5 4 4 5 5 5 5 5 5 5 37 82 80 5
100 100 100 100 100 100 100 100 100 100 100 100 99 34 72 43 93 68 81 100 100 100 100 100 100 100 100 97 38 4 4 4 5 5 5 5 5 4 5 24 70 64 45 5
100 100 100 100 100 100 100 100 100 100 100 83 82 100 100 23 79 100 100 100 100 100 100 99 100 100 100 20 5 5 4 5 5 5 5 5 5 5 5 70 33 7 49 56
100 100 100 100 100 100 100 100 100 100 90 75 54 51 100 100 100 18 58 95 100 100 100 99 42 27 2 5 5 4 5 5 5 5 5 5 5 5 7 14 21 76 37 24
100 100 100 100 100 100 100 100 100 100 96 100 93 99 100 100 100 100 100 100 100 100 100 17 22 0 0 5 5 5 5 5 5 5 5 5 5 5 5 75 100 81 66 37
100 100 100 100 100 100 100 100 100 100 100 100 100 100 100 92 97 100 100 100 100 44 60 43 5 5 5 5 5 5 5 5 5 5 5 5 5 5 5 8 23 77 78 99

GFSCGP_prec_cloud_030.txt.gz
Cloud_Cover
5 5 99 0 5 5 5 5 6 5 5 3 5 74 5 0 5 5 0 5 0 0 0 0 5 0 1 1 87 100 100 100 100 100 100 100 5 2 2 9 0 0 0 0
10 45 7 5 5 5 5 5 13 5 5 2 5 98 82 0 1 4 1 0 0 0 0 0 0 0 48 41 30 97 100 100 86 86 56 10 8 0 0 0 0 1 2 0
5 23 20 5 5 5 5 5 10 5 18 5 8 89 100 9 0 0 0 2 2 5 5 21 91 62 4 5 5 0 7 23 16 17 4 8 1 3 3 0 0 0 0 0
6 53 82 5 24 7 4 5 5 5 5 21 81 27 100 67 5 6 5 5 5 5 24 57 67 25 94 99 100 93 100 100 92 56 100 100 81 37 1 0 0 0 0 0
70 99 73 49 98 5 5 5 5 5 5 5 98 16 94 100 100 65 13 6 28 65 99 100 100 100 100 100 100 100 100 100 99 4 0 45 54 1 39 5 5 1 2 5
27 59 48 99 99 17 12 93 97 6 5 19 100 71 15 100 100 100 98 99 100 100 60 100 100 100 100 100 100 100 100 99 26 9 5 2 13 26 5 2 5 3 5 20
100 100 91 61 100 100 70 63 5 5 6 13 99 33 69 97 100 100 100 100 100 100 100 100 100 100 100 100 100 100 100 60 56 27 6 5 4 5 5 5 5 54 76 90
81 99 100 100 100 100 76 32 54 5 6 5 11 88 99 80 86 100 100 100 100 100 100 48 98 100 100 100 100 100 100 99 54 5 4 5 5 5 5 5 5 67 83 60
26 44 99 100 100 98 80 20 100 73 12 5 5 72 100 100 100 100 100 100 100 100 100 100 100 100 100 94 24 57 68 5 5 0 0 0 2 5 68 23 5 7 3 4
100 14 5 49 100 100 100 100 100 100 18 5 52 70 83 100 100 100 100 100 100 100 100 100 100 100 100 86 89 93 25 5 5 5 6 5 5 9 80 5 5 1 5 5
100 100 100 31 71 100 100 100 100 100 79 93 82 8 100 85 100 100 100 100 100 100 100 100 100 100 100 100 100 100 100 51 7 13 6 18 6 25 5 5 5 5 4 5
100 100 100 100 100 100 77 68 100 100 100 34 7 72 100 100 100 100 100 100 100 100 100 100 100 100 100 100 100 100 92 6 89 100 45 22 100 12 5 5 5 24 5 3
100 100 100 100 99 100 100 100 100 100 100 100 62 88 92 100 100 100 100 100 100 100 100 100 100 100 100 100 97 5 6 7 90 73 5 5 5 5 5 36 46 32 38 4
100 98 62 53 100 100 100 100 100 100 91 100 84 100 100 100 100 100 100 100 100 100 100 100 100 100 100 27 20 76 80 18 5 3 5 33 5 5 62 94 92 8 0 0
100 95 100 96 100 96 73 90 100 100 100 35 95 100 100 100 100 99 100 100 100 100 55 100 100 100 100 75 90 11 5 5 4 5 5 10 5 8 100 88 12 0 0 0
100 100 100 100 100 100 100 74 100 94 100 100 100 74 100 100 100 100 100 100 100 100 100 45 85 21 62 71 15 27 31 5 32 5 13 12 5 68 97 50 0 0 0 0
100 100 100 100 98 100 100 52 22 100 100 100 94 95 100 100 100 100 100 100 100 57 86 100 100 77 5 54 94 68 5 8 5 15 1 5 48 86 99 2 0 0 0 0
100 100 100 100 100 100 12 8 79 99 100 100 93 88 100 98 99 97 100 82 71 85 74 82 16 50 87 56 5 5 57 49 100 91 9 97 27 83 5 3 0 0 0 0
100 100 100 100 100 98 12 10 66 100 77 100 100 100 100 81 67 95 100 100 100 86 72 99 71 15 5 21 72 65 76 100 10 97 17 24 99 5 0 0 0 0 0 0
100 100 100 100 100 95 6 78 100 100 77 100 100 100 100 100 100 99 39 54 47 99 99 74 70 71 84 100 100 100 100 66 86 8 80 83 5 5 5 0 0 0 0 0
100 100 100 100 100 100 99 100 100 100 85 100 100 100 100 77 66 80 100 100 100 100 96 77 100 100 100 100 100 100 99 74 30 89 12 4 5 5 0 0 0 5 3 4
100 100 100 100 100 100 96 100 100 100 100 100 100 100 100 100 100 100 100 100 100 100 100 100 100 100 100 100 100 90 52 100 100 8 5 5 5 0 3 5 5 5 5 5
100 100 100 100 100 100 100 100 100 100 100 100 100 100 100 100 100 100 100 100 100 100 100 100 100 100 100 100 100 98 100 100 64 5 5 5 5 5 5 5 4 1 5 5
100 100 100 100 100 100 100 100 100 100 100 100 100 100 100 100 100 100 100 100 100 100 100 100 100 100 100 94 100 100 99 5 5 5 5 5 5 5 5 4 2 1 2 5
100 100 100 100 100 100 100 100 100 100 100 100 100 100 100 100 100 100 100 100 100 100 100 100 90 90 100 100 100 37 5 5 5 5 5 5 5 5 4 1 0 2 5 5
100 100 100 100 100 100 100 100 100 100 100 100 94 100 97 74 100 100 100 100 100 100 94 96 100 100 99 86 46 5 5 5 5 5 5 5 4 0 0 0 4 5 5 92

GFSCGP_prec_cloud_033.txt.gz
Cloud_Cover
7 5 99 4 0 5 5 5 5 2 0 3 5 5 5 5 5 5 5 0 0 5 1 0 0 0 0 59 100 100 100 100 100 100 100 100 100 54 1 25 16 0 0 4
37 15 25 5 2 2 5 5 98 2 5 2 5 12 4 4 42 14 4 0 3 40 9 5 0 0 0 57 100 100 100 100 100 97 8 14 47 76 11 0 0 0 0 0
5 6 16 5 5 5 5 5 44 2 2 0 4 42 6 3 7 39 5 5 0 0 0 0 0 0 0 6 99 100 100 100 100 86 86 97 100 100 80 5 0 0 0 0
5 37 100 5 10 19 5 5 5 5 2 0 1 7 70 98 5 6 5 5 0 0 0 2 5 48 20 5 15 100 100 100 100 100 100 100 100 100 100 66 5 4 0 0
72 100 100 89 67 5 5 6 6 5 2 0 2 2 94 100 100 51 6 26 22 5 5 5 5 5 39 14 36 100 100 100 100 100 100 100 100 100 100 100 99 5 4 0
48 93 98 100 100 5 5 22 68 33 3 4 12 18 5 92 100 100 100 97 34 5 5 5 5 5 5 7 78 84 100 100 100 100 100 100 97 52 5 10 5 0 0 1
97 22 67 87 93 12 5 6 5 5 13 5 14 96 5 81 100 100 100 100 92 5 5 25 85 23 22 86 100 100 100 100 100 100 100 100 15 5 3 2 5 5 5 3
100 65 26 95 98 16 5 5 29 9 5 7 5 1 34 99 90 100 100 100 81 32 31 59 98 100 100 100 100 100 100 100 100 100 100 100 100 74 73 65 72 7 67 100
100 71 66 44 10 5 16 92 100 80 5 5 12 98 92 100 100 100 100 74 99 100 100 100 100 99 100 100 100 100 100 100 100 100 100 100 100 100 92 89 6 14 48 5
62 30 5 11 94 66 100 73 99 100 25 32 1 4 33 100 100 100 100 91 100 100 55 51 100 100 100 100 100 100 100 100 100 100 100 89 74 33 5 5 13 95 78 42
89 61 5 3 37 100 92 19 38 56 10 5 5 10 22 23 97 100 100 100 100 100 99 100 100 100 100 100 100 100 100 100 100 100 100 99 100 100 52 97 86 5 3 14
100 95 26 5 5 99 67 99 100 100 100 100 65 24 6 46 100 100 100 100 100 100 100 100 100 100 100 100 100 100 100 100 100 100 100 21 5 5 81 73 3 5 9 5
100 100 42 49 51 66 100 100 100 100 100 12 75 72 62 31 22 79 100 100 100 100 100 100 100 100 100 100 100 100 100 100 100 100 77 6 6 4 4 2 2 5 9 5
100 100 30 40 100 100 100 100 100 100 95 91 70 100 100 100 100 100 100 100 100 100 100 100 100 100 100 100 99 79 10 38 57 35 9 13 5 5 1 0 3 95 100 8
100 100 100 100 100 100 98 97 100 100 100 70 82 56 100 100 100 100 100 40 55 100 100 100 100 100 88 86 83 82 14 53 95 14 11 6 5 6 5 2 5 82 51 16
100 100 100 89 94 100 100 63 6 57 100 78 99 16 100 100 100 100 85 29 13 96 100 100 100 100 100 99 98 74 45 83 98 98 91 53 12 5 4 5 88 67 73 1
100 100 100 96 100 100 100 26 97 17 5 66 32 89 100 100 100 100 96 100 100 100 100 100 100 100 100 95 30 17 68 6 5 5 5 5 5 0 2 94 28 99 5 4
100 100 100 100 100 100 23 100 29 5 5 56 35 99 100 100 100 98 94 100 98 91 90 95 87 97 82 34 5 5 5 5 5 5 5 4 3 4 85 100 55 36 5 5
100 100 100 100 100 100 6 6 74 96 20 36 66 95 100 100 100 76 100 100 100 95 100 100 86 80 97 87 68 56 51 49 6 5 3 5 5 100 83 13 21 5 5 5
100 100 100 100 100 97 6 76 64 99 26 98 100 100 100 99 100 96 100 100 100 100 100 100 100 100 100 99 88 100 83 5 43 11 5 38 100 100 90 58 5 22 5 1
100 100 100 100 100 100 100 98 84 96 19 96 45 84 100 99 100 100 100 100 100 100 100 100 100 100 100 100 100 77 44 78 30 60 100 100 100 100 70 5 5 5 5 1
100 100 100 100 100 100 62 96 100 54 85 81 98 98 96 100 100 100 100 100 100 100 100 100 100 100 100 100 99 78 46 85 95 100 100 100 99 19 16 56 67 5 5 5
100 100 100 100 100 100 100 100 100 100 100 100 100 100 99 100 100 74 100 100 100 100 100 100 100 100 100 85 54 22 94 99 100 100 100 100 99 90 12 5 5 5 5 5
100 100 100 100 100 100 100 100 100 100 100 100 100 88 100 100 100 100 100 100 100 100 100 100 100 100 98 86 96 100 100 100 100 100 100 92 100 65 10 5 5 5 5 5
100 100 100 100 100 100 100 100 100 100 100 98 86 99 100 100 100 100 100 100 100 100 100 100 100 100 92 100 100 100 100 100 100 100 100 85 6 5 5 5 3 0 0 2
100 100 100 100 100 100 100 100 100 100 100 100 100 100 100 100 100 100 100 100 100 100 100 100 100 100 100 100 100 100 100 100 96 100 94 7 26 5 5 5 5 5 5 5

GFSCGP_prec_cloud_036.txt.gz
Cloud_Cover
6 88 100 37 0 5 0 5 5 2 0 0 0 5 0 5 5 0 5 5 1 4 1 0 2 1 0 18 90 100 100 100 100 100 100 100 100 100 78 35 5 5 5 9
72 87 100 5 5 0 0 5 5 5 0 0 0 5 5 5 15 4 5 5 5 6 5 2 2 2 3 17 90 100 100 100 100 100 100 100 100 88 92 100 96 50 90 17
50 82 100 59 9 1 2 0 5 1 0 0 0 3 0 0 6 7 0 0 39 55 68 5 0 0 0 21 99 100 100 100 100 100 100 53 37 94 100 72 100 100 100 100
16 97 94 88 5 5 5 5 5 5 0 0 0 1 5 5 0 0 12 4 1 5 5 2 0 0 0 24 100 100 100 100 100 64 7 48 47 88 100 100 100 100 100 100
5 85 11 99 100 15 5 5 4 5 0 0 3 0 84 38 6 92 3 5 6 87 16 5 5 0 0 2 48 96 94 68 94 93 100 100 100 100 100 100 100 100 100 90
14 20 63 100 100 35 28 28 5 5 3 0 27 12 1 98 100 32 10 6 5 5 5 5 5 5 5 5 31 90 100 100 100 100 100 100 100 100 100 100 100 100 100 100
100 6 38 89 99 99 38 58 4 1 5 2 5 1 10 24 84 100 100 72 50 5 11 6 5 5 5 28 85 100 100 100 100 100 100 100 100 100 100 100 100 100 100 100
100 100 100 100 100 45 5 5 5 5 2 2 5 17 100 91 10 90 100 100 93 70 96 90 5 27 100 100 100 100 100 100 100 100 100 100 100 100 100 100 100 100 100 100
100 100 99 100 100 86 6 6 99 38 5 4 1 46 41 98 100 100 100 100 100 100 100 56 22 99 63 67 97 100 100 100 100 100 100 100 100 100 100 100 100 100 100 100
100 61 18 83 81 39 7 90 100 94 6 5 1 5 83 98 100 97 100 100 100 100 100 100 72 32 52 81 100 100 100 100 100 100 100 100 100 100 100 100 100 96 52 5
100 100 12 5 18 99 94 13 74 100 28 8 4 0 3 52 100 100 100 100 100 100 98 68 70 100 100 100 100 100 100 100 100 100 100 100 100 100 97 28 37 16 5 30
100 100 40 37 53 100 59 5 83 100 81 11 3 21 5 5 32 100 100 100 100 48 11 24 90 100 100 100 100 100 100 100 100 100 100 100 100 90 34 44 7 6 9 5
100 100 100 90 5 6 87 100 99 100 32 0 5 27 88 56 5 13 30 49 98 64 98 100 100 100 100 100 100 100 100 100 100 100 90 63 66 5 10 13 8 6 5 5
100 100 89 70 65 100 6 81 100 85 5 65 4 87 100 91 6 46 71 100 100 100 100 100 100 100 100 100 100 100 100 100 100 78 71 29 57 79 69 7 5 5 5 3
100 100 100 100 100 100 40 58 73 60 55 42 88 81 100 100 100 99 26 41 99 100 100 100 100 100 100 100 100 89 79 90 40 58 48 14 20 39 91 22 5 5 0 0
100 100 100 100 100 100 100 92 60 100 100 100 100 2 100 100 91 8 5 11 30 47 100 100 100 100 100 100 100 100 20 9 87 63 8 71 100 99 8 5 3 0 0 1
100 100 100 82 100 100 100 6 100 85 10 38 20 15 43 70 15 40 17 81 97 93 100 95 100 100 100 98 100 98 48 91 50 27 95 96 98 13 5 5 2 5 0 5
100 100 100 100 100 100 23 57 98 100 26 36 62 84 33 12 62 89 67 100 100 100 97 100 100 97 100 51 90 100 49 35 26 98 100 77 5 5 5 6 11 5 5 9
100 100 100 100 100 43 5 75 100 100 49 100 98 99 100 100 100 100 100 100 100 100 100 92 100 100 100 94 94 92 34 72 96 66 82 41 5 6 35 14 5 5 45 100
100 100 100 100 100 96 5 100 100 100 84 100 100 100 100 100 100 100 100 100 100 100 100 100 100 100 100 100 94 70 91 68 100 72 17 61 54 87 5 5 7 100 100 95
100 100 100 100 100 91 45 100 100 100 98 100 100 100 100 100 100 100 100 100 100 100 100 100 100 100 100 100 100 100 99 100 53 57 34 95 84 19 5 5 22 100 100 70
100 100 100 100 100 100 28 72 90 95 71 73 68 100 100 100 100 100 100 100 100 100 100 100 100 100 100 100 100 96 100 64 5 29 98 83 26 50 63 89 100 95 99 100
100 100 100 100 100 100 100 100 100 100 100 100 100 95 92 92 99 100 100 100 100 100 100 100 96 60 58 72 65 98 88 5 5 14 40 12 91 79 99 100 100 100 100 100
100 100 100 100 100 100 100 100 100 100 100 100 100 100 100 100 100 100 100 100 100 100 100 100 99 84 81 100 100 99 80 64 18 24 52 95 100 100 100 100 100 100 100 100
100 100 100 100 100 100 100 100 100 100 100 100 100 100 100 100 100 100 100 100 100 100 100 100 100 100 100 100 100 100 84 36 48 58 100 100 100 100 100 100 100 100 100 38
100 100 100 100 100 100 100 100 100 100 100 100 100 100 100 100 100 100 100 100 100 100 100 100 100 100 100 100 100 85 81 94 100 99 98 100 100 100 100 52 72 97 50 35

GFSCGP_prec_cloud_039.txt.gz
Cloud_Cover
5 16 100 10 1 5 5 0 5 0 0 0 0 0 0 0 0 3 0 0 0 0 0 0 0 0 0 0 0 8 89 84 96 100 100 100 100 100 100 100 28 5 1 5
100 99 87 10 5 16 45 1 4 0 0 0 1 0 0 0 5 0 0 0 0 0 0 0 5 5 5 1 0 24 53 100 100 100 100 100 99 100 100 31 5 8 5 18
100 100 100 100 100 8 5 5 5 0 0 0 2 4 5 5 18 5 1 2 3 0 0 0 5 5 5 5 5 40 74 100 100 100 100 96 98 94 84 32 69 53 67 98
100 100 100 100 100 100 6 28 5 0 0 0 0 28 5 5 3 21 6 0 4 25 1 0 0 4 5 5 17 36 37 48 75 100 100 23 43 7 91 99 96 100 100 100
100 99 100 100 100 100 6 5 3 0 0 0 8 0 100 44 9 29 1 2 0 0 4 0 3 5 4 5 5 14 52 95 100 100 99 72 93 100 100 100 100 100 100 100
100 100 100 100 100 83 5 6 4 0 0 0 13 1 5 100 100 100 25 2 0 5 4 5 4 0 0 5 7 49 82 83 93 69 80 100 100 100 100 100 100 100 100 100
100 100 54 100 100 96 77 47 1 0 0 0 4 0 62 100 100 100 100 77 1 3 3 4 5 5 5 5 7 31 94 100 100 100 100 100 100 100 100 100 100 100 100 100
100 100 100 100 100 100 99 5 5 5 0 0 0 1 5 7 95 100 100 96 97 97 56 14 3 5 5 5 5 26 85 85 85 100 100 100 100 100 100 100 100 100 100 100
100 100 100 99 70 100 18 9 100 2 4 15 0 0 0 3 5 36 100 100 100 92 72 62 12 6 5 5 6 10 62 62 64 100 100 100 100 100 100 100 100 84 99 100
100 68 95 99 100 38 6 65 70 13 3 5 0 0 0 5 4 71 100 100 100 84 77 22 34 92 95 79 62 82 59 66 68 100 100 100 97 90 93 100 100 100 100 100
100 77 5 8 6 92 86 12 76 86 5 5 2 0 2 5 5 6 100 100 100 96 42 8 52 96 100 100 89 70 97 100 100 100 100 74 98 100 100 100 100 96 89 76
100 100 70 5 5 6 5 7 29 42 36 8 4 24 0 2 21 99 96 100 100 96 8 8 70 93 85 64 100 100 100 100 100 100 100 100 100 100 100 11 59 93 84 56
100 100 100 100 100 29 21 51 100 100 42 5 5 24 1 27 83 6 4 6 32 26 36 60 100 44 53 78 100 100 100 100 100 100 100 100 100 97 80 72 30 52 62 8
100 100 100 100 100 100 100 89 65 100 79 22 0 0 5 22 5 53 100 88 4 5 5 66 74 56 100 100 100 100 100 100 100 100 100 100 100 100 99 33 73 78 93 46
100 100 100 100 100 100 100 100 100 24 3 58 5 1 100 76 100 39 11 17 9 63 60 74 56 33 84 82 80 100 100 100 100 100 100 100 100 99 98 58 92 76 11 99
100 100 100 100 100 100 100 100 11 50 23 5 1 0 100 100 94 6 65 34 22 6 13 16 57 90 80 100 100 88 100 100 100 100 100 100 79 69 56 100 86 36 100 57
100 100 100 95 100 100 100 10 77 71 16 7 5 11 100 100 97 87 100 99 98 65 69 12 52 100 100 100 100 100 99 100 100 100 100 100 92 90 96 100 83 100 37 9
100 100 100 81 100 100 24 94 5 5 18 75 74 60 100 80 100 100 94 100 100 100 100 100 97 99 100 69 100 100 100 100 100 100 100 99 99 100 85 96 100 100 36 64
100 100 100 100 99 44 13 89 100 100 61 100 100 100 100 100 100 5 93 100 100 87 43 77 90 100 64 73 100 100 98 100 100 100 100 100 100 100 100 100 98 80 99 55
100 100 100 100 100 94 34 100 100 100 27 100 100 100 100 100 100 95 100 85 100 100 100 98 100 86 100 100 100 100 100 100 100 100 100 100 100 100 100 87 100 100 85 73
100 100 100 100 100 71 50 12 58 100 50 100 100 100 100 100 100 100 100 100 100 100 100 100 100 100 100 100 100 100 100 100 100 100 100 100 100 100 100 100 100 92 60 7
100 100 100 100 100 100 34 28 76 80 80 87 73 100 100 100 100 100 100 100 100 100 100 100 100 100 100 100 100 100 100 100 98 100 100 100 100 100 99 97 82 6 5 5
100 100 100 100 100 100 100 100 100 92 100 100 99 100 100 100 100 100 100 100 100 100 100 100 100 100 100 100 100 100 90 97 100 100 100 100 98 83 42 64 5 5 18 76
100 100 100 100 100 100 100 100 100 100 100 100 100 100 100 100 100 100 100 100 100 100 100 100 100 100 100 100 100 100 100 100 100 100 98 80 52 60 64 30 59 82 100 100
100 100 100 100 100 100 100 100 100 100 100 100 100 100 100 100 100 100 100 100 100 100 100 100 100 100 100 100 100 100 100 96 74 49 29 27 27 23 85 98 100 100 99 79
100 100 100 100 100 100 100 100 100 100 100 100 100 100 100 100 100 100 100 100 100 100 100 100 100 100 86 99 100 88 90 88 90 54 19 57 82 100 100 100 100 94 100 100

GFSCGP_prec_cloud_042.txt.gz
Cloud_Cover
8 25 100 90 33 32 5 5 5 5 0 1 5 5 0 0 0 0 0 0 0 0 0 0 0 0 0 0 0 0 0 52 75 73 73 100 62 100 100 98 78 38 11 0
100 100 100 100 100 100 99 6 7 2 0 0 5 23 2 0 5 5 0 0 0 0 0 0 0 0 0 0 0 0 1 10 50 20 72 34 100 100 100 100 83 1 2 5
100 100 100 100 100 100 100 48 6 2 0 0 0 18 5 10 12 6 5 0 0 0 0 0 0 0 0 0 0 2 4 5 5 35 95 100 100 96 90 88 37 5 5 18
97 100 100 100 100 100 66 100 29 5 0 0 0 9 45 78 14 5 5 0 3 4 1 0 0 0 0 0 0 0 0 0 49 100 100 90 96 76 94 53 16 86 91 11
100 100 100 100 100 100 100 96 5 1 0 0 5 0 98 100 93 24 5 5 5 5 0 0 0 0 5 2 0 2 5 24 44 100 100 100 100 99 100 100 100 100 100 100
100 100 100 100 100 100 100 15 5 0 0 0 41 0 15 100 100 31 5 5 5 1 5 5 0 0 0 0 0 7 15 22 99 100 100 100 100 100 100 100 98 100 100 100
100 100 100 100 100 100 99 80 2 0 0 0 1 0 94 99 100 100 82 8 3 5 5 5 5 5 5 4 3 9 6 66 100 100 100 100 100 100 99 88 100 100 100 92
100 100 100 100 100 100 100 59 2 0 3 2 0 1 5 5 79 100 100 100 97 31 5 12 5 5 5 5 5 5 6 70 95 100 76 100 100 100 100 100 100 100 99 100
83 51 86 90 33 100 23 1 89 6 23 27 0 0 0 0 5 74 100 52 6 10 5 9 6 5 5 5 6 14 56 75 66 23 92 100 100 100 97 83 100 100 90 46
93 26 16 63 18 5 66 88 15 3 0 20 1 0 0 0 1 5 10 18 17 5 5 6 45 95 93 88 99 100 81 15 38 100 100 100 95 88 100 96 25 29 95 100
100 100 98 100 100 100 100 20 6 60 5 5 5 0 3 1 5 5 3 5 13 5 5 5 5 62 100 100 98 16 36 70 93 95 100 97 24 5 61 100 99 100 100 100
100 100 84 11 21 20 32 2 3 7 4 2 1 23 17 5 5 5 5 5 16 8 5 5 20 51 71 76 15 5 39 51 42 31 92 100 85 30 100 100 100 100 47 10
100 100 100 100 18 6 12 100 95 92 40 0 2 8 8 4 5 5 36 5 4 0 8 63 50 11 5 5 5 5 7 63 95 96 62 34 6 12 40 7 5 22 48 26
100 100 100 100 100 100 48 38 7 97 34 1 0 0 2 5 5 4 4 1 5 5 13 5 5 8 5 5 5 5 92 100 12 5 5 5 5 68 79 76 48 54 83 85
100 100 100 100 100 100 100 100 99 19 28 35 2 2 88 58 0 38 1 1 4 4 3 23 5 5 15 14 76 100 100 91 99 60 78 70 5 8 89 79 83 90 99 100
100 90 99 99 100 100 100 100 98 29 34 69 12 4 100 100 14 2 3 0 1 5 7 79 57 80 100 85 38 11 45 100 26 40 100 77 88 78 96 100 100 100 100 100
100 100 100 82 99 100 100 8 46 74 8 5 4 2 100 86 100 11 4 5 5 5 14 50 5 5 7 76 78 60 100 88 93 70 90 100 96 98 96 100 100 100 100 100
100 100 100 97 99 100 19 47 68 36 95 59 20 81 100 100 100 100 97 89 58 8 12 18 14 9 92 99 91 100 81 90 94 95 100 100 100 100 100 100 100 100 100 100
100 100 100 100 100 85 21 74 100 100 21 24 5 82 100 100 96 86 100 100 84 88 100 100 100 100 100 100 100 100 100 100 100 100 100 100 100 100 100 100 100 100 100 100
100 100 100 100 100 96 5 96 100 100 32 97 100 100 100 100 47 99 100 100 100 87 49 58 82 100 97 92 100 100 100 100 100 100 100 100 100 100 100 100 100 100 100 100
100 100 100 100 100 82 0 3 74 98 44 96 99 98 100 99 99 63 100 100 100 100 100 98 100 100 100 100 100 100 100 100 100 100 100 100 100 100 100 100 100 100 100 100
100 100 100 100 100 99 29 56 85 80 38 99 100 100 100 100 100 100 97 53 61 100 100 100 100 100 100 100 100 100 100 100 100 100 100 100 100 100 100 100 100 100 100 100
100 100 100 100 100 100 100 100 96 98 94 53 51 93 66 71 46 87 100 98 100 100 100 100 100 100 100 100 100 100 100 100 100 100 100 100 100 100 100 100 100 100 100 100
100 100 100 100 100 100 100 100 100 100 100 100 100 100 94 100 98 100 99 88 46 60 98 100 100 100 100 100 100 100 100 100 100 100 100 100 100 100 100 100 100 100 100 100
100 100 100 100 100 100 100 100 100 100 100 100 100 100 100 100 100 100 85 97 100 100 100 100 100 100 100 100 100 100 100 100 100 100 100 100 100 100 100 100 100 100 100 100
97 100 100 100 100 100 100 100 100 100 100 100 100 100 100 100 100 100 100 100 100 100 100 100 100 100 100 100 100 100 100 100 100 100 100 100 100 100 100 100 100 100 96 96

GFSCGP_prec_cloud_045.txt.gz
Cloud_Cover
5 24 100 31 5 5 5 5 72 55 5 0 5 5 0 5 5 3 0 0 0 0 0 0 0 0 0 7 13 1 13 95 99 36 59 81 70 100 100 98 88 100 100 100
60 100 100 100 96 36 5 5 75 71 5 0 0 5 5 0 5 5 10 0 0 0 0 0 0 0 0 7 11 4 4 32 75 30 0 1 95 68 100 100 89 100 96 32
100 100 100 100 100 100 62 78 99 19 19 0 0 2 8 53 4 0 5 5 0 0 0 0 0 0 0 7 20 7 1 4 20 33 52 75 100 68 96 100 100 100 81 20
100 100 100 100 100 100 71 84 49 12 3 0 0 0 34 100 100 84 3 0 5 4 0 0 0 0 0 0 2 0 0 6 25 48 50 7 4 5 81 100 100 100 98 89
100 100 100 100 100 100 100 100 40 5 0 0 0 0 91 100 100 100 5 0 0 5 4 0 0 0 0 0 11 0 0 2 24 24 28 33 100 35 29 97 100 100 100 100
100 100 100 100 100 100 100 53 28 5 0 0 0 0 57 97 100 100 49 0 0 0 0 0 0 0 0 0 18 15 2 29 27 29 81 98 100 99 46 8 100 100 99 77
100 100 100 100 100 100 100 100 9 2 0 0 0 0 40 87 89 65 98 4 0 0 0 0 0 0 0 6 27 26 11 48 37 24 56 97 100 100 87 14 51 83 76 86
100 100 100 100 100 100 100 90 43 10 3 0 0 0 0 8 43 6 5 57 4 3 2 4 5 5 5 5 8 29 24 44 75 42 50 100 100 100 100 100 100 100 100 100
100 100 100 100 100 100 100 100 100 87 27 12 0 0 0 0 14 4 0 9 98 36 6 5 5 5 5 5 11 53 87 100 100 95 100 100 100 100 100 100 100 100 100 90
100 100 100 100 100 100 100 65 40 14 1 4 0 0 0 5 5 10 0 3 5 5 5 5 4 0 5 5 5 6 5 8 16 68 87 92 100 100 100 100 100 100 87 75
100 100 92 51 61 73 24 5 4 11 2 5 4 0 0 5 5 5 5 5 5 5 5 5 5 5 5 5 5 5 5 5 5 5 29 54 74 100 100 94 54 85 38 46
100 100 8 5 5 5 5 4 5 5 5 79 2 0 5 0 3 5 0 5 2 5 20 5 5 5 5 4 5 5 5 8 6 5 5 31 35 68 96 20 5 5 5 5
100 100 21 6 30 53 60 100 100 100 88 5 2 1 81 0 3 5 0 0 0 0 0 3 14 9 5 5 5 5 5 5 12 63 54 59 62 99 73 10 6 10 17 72
100 100 100 49 63 36 32 9 49 99 8 4 0 2 5 78 5 5 0 0 0 0 0 5 5 16 80 92 95 75 16 5 5 13 29 45 36 80 86 95 82 57 67 98
100 100 100 100 100 100 47 21 94 43 4 7 0 1 93 100 96 4 4 1 2 0 1 5 5 8 47 50 8 5 5 10 5 43 68 92 100 100 100 99 88 100 98 100
100 100 100 100 96 100 84 51 93 100 15 82 64 19 100 100 99 6 6 3 1 0 4 0 0 0 0 5 5 5 6 71 66 95 95 100 100 100 100 100 100 100 100 100
100 100 100 100 98 100 100 6 8 75 26 5 4 54 100 100 100 98 98 100 73 14 5 3 0 0 5 5 5 13 11 58 68 45 93 100 100 100 100 100 100 100 100 100
100 100 100 100 94 100 16 92 18 42 40 22 27 100 100 100 100 100 100 100 100 100 30 4 5 9 5 5 6 32 6 32 67 78 98 100 100 100 100 100 100 100 100 100
100 100 100 100 100 94 11 5 5 58 31 78 6 70 100 100 100 100 100 100 100 45 75 6 5 97 100 73 67 80 99 100 100 100 100 100 100 100 100 100 100 100 100 100
100 100 100 100 100 99 1 73 100 100 53 97 99 24 93 99 45 98 100 100 100 57 7 42 97 51 63 90 100 100 100 100 100 100 100 100 100 100 100 100 100 100 100 100
100 100 100 100 100 100 30 17 8 95 23 19 100 100 100 78 55 83 100 100 100 100 100 99 100 100 100 100 100 100 96 100 100 100 100 100 100 100 100 100 100 100 100 100
100 100 100 100 100 99 20 43 85 81 100 35 28 45 96 82 91 100 58 44 43 36 74 99 100 100 96 98 98 83 74 100 100 100 100 100 100 100 100 100 100 100 100 100
100 100 100 100 100 100 100 100 100 100 100 99 30 5 5 5 61 85 91 99 91 84 88 100 95 76 76 74 93 97 100 100 100 100 100 100 100 100 100 100 100 100 100 100
100 100 100 100 100 100 100 100 100 100 100 100 100 100 100 100 100 100 100 100 97 100 100 100 100 100 100 100 100 100 100 100 100 100 100 100 100 100 100 100 100 100 100 100
100 100 100 100 100 100 100 100 100 100 100 100 100 100 100 100 100 100 100 100 100 100 99 89 100 100 100 100 100 100 100 100 100 100 100 100 100 100 100 100 100 100 100 100
100 100 100 100 100 100 100 100 100 100 100 100 100 100 100 100 100 100 100 100 100 100 100 100 100 100 100 100 100 100 100 100 100 100 100 100 100 100 100 100 100 100 100 100

GFSCGP_prec_cloud_048.txt.gz
Cloud_Cover
52 6 40 5 1 5 6 5 7 5 0 0 0 16 5 0 0 0 0 5 0 0 0 0 0 0 0 0 16 12 43 23 92 100 100 100 94 100 100 100 100 100 100 100
51 84 33 5 5 8 9 37 98 5 0 0 0 1 5 5 5 4 1 0 4 2 0 0 0 0 0 0 7 18 39 56 99 100 100 65 41 96 67 100 100 100 98 100
83 97 100 16 46 74 20 27 87 65 23 0 0 0 2 71 12 5 5 0 0 0 0 0 0 0 0 0 8 18 33 50 100 100 99 12 25 53 55 100 100 100 89 100
47 100 100 100 90 44 46 76 23 12 5 5 0 0 3 97 100 88 99 5 0 0 0 0 0 0 0 0 0 3 21 22 92 100 100 29 5 6 5 27 100 100 100 100
93 100 100 100 100 99 55 100 90 26 5 3 0 0 5 100 100 100 100 61 0 0 0 0 0 0 0 0 1 14 25 25 30 100 100 60 26 7 2 31 98 100 100 100
100 88 100 100 100 100 100 100 66 5 5 0 0 0 17 43 84 100 100 9 0 0 0 0 0 0 0 0 13 43 38 38 30 46 62 90 100 63 87 31 100 100 100 93
100 100 100 100 100 100 100 100 100 53 3 0 0 0 0 100 1 47 5 0 0 0 0 0 0 0 0 13 18 61 60 54 26 51 47 66 93 49 64 100 100 100 98 92
100 100 100 100 100 100 100 100 100 27 5 1 0 0 0 1 99 0 0 3 0 0 0 0 0 0 0 0 9 57 90 50 19 50 66 57 57 60 100 100 100 99 100 100
100 100 100 100 100 100 100 100 100 100 40 4 0 0 0 4 22 9 2 59 16 0 0 0 0 0 0 0 5 31 62 34 7 38 58 68 12 39 100 100 100 100 100 100
100 100 100 100 100 100 100 100 100 100 100 67 4 0 0 5 3 0 0 2 7 0 0 0 0 0 0 0 1 6 23 18 5 34 41 58 6 33 100 100 100 100 100 100
100 100 100 100 100 100 100 100 100 94 24 5 5 5 0 4 2 0 2 3 0 0 0 0 0 0 0 0 0 5 15 3 5 14 37 52 37 76 100 100 100 100 100 100
100 98 66 91 96 85 74 37 10 5 19 44 7 0 5 0 0 5 5 1 0 0 0 0 0 0 0 0 2 0 3 0 0 3 10 41 55 96 100 100 100 100 100 100
100 100 48 7 38 98 94 100 95 46 46 0 1 10 100 0 3 5 5 0 0 4 5 0 0 0 0 1 5 0 0 0 0 0 8 39 46 95 100 100 100 100 100 100
100 100 31 5 30 22 79 84 99 100 94 2 9 15 34 56 89 72 17 0 0 0 0 0 3 5 67 71 36 5 2 0 0 0 2 25 34 84 100 100 100 100 100 100
100 100 86 62 98 95 8 9 100 71 4 9 8 2 100 100 100 96 11 0 0 0 2 3 1 3 3 5 5 5 5 7 8 22 57 69 77 97 99 100 100 100 100 100
100 100 100 11 96 100 100 95 63 5 5 90 5 2 99 100 100 68 65 5 1 0 0 1 5 4 0 5 6 90 73 84 44 66 94 70 34 42 97 100 100 100 100 100
100 100 100 82 6 100 100 30 5 16 5 4 4 4 100 100 100 100 38 58 98 90 25 5 5 1 5 8 49 100 100 100 100 99 100 86 82 97 94 100 100 100 100 100
100 100 100 92 80 100 14 10 16 22 46 88 62 87 100 100 100 100 100 100 84 53 5 46 74 98 100 100 100 100 100 100 100 100 93 100 96 100 100 100 100 100 100 100
100 100 100 100 100 93 12 5 5 5 29 84 48 97 100 100 100 100 100 100 94 41 72 100 85 88 100 100 100 100 100 100 100 100 68 100 100 100 100 100 100 100 100 100
100 100 100 100 100 81 0 17 96 100 100 38 92 62 100 100 55 89 82 100 100 100 100 100 100 100 100 100 100 100 100 100 100 100 100 100 100 100 100 100 100 100 100 100
100 100 100 100 100 100 2 4 90 100 64 38 100 100 100 100 92 5 69 77 16 73 99 92 100 100 100 100 100 100 100 100 100 100 100 100 100 100 100 100 100 100 100 100
100 100 100 100 100 100 51 64 4 56 100 100 100 100 100 100 94 13 9 12 51 69 44 18 35 31 83 100 100 85 91 97 100 100 100 100 100 100 100 100 100 100 100 100
100 100 100 100 100 100 100 100 100 100 100 53 100 100 100 91 12 12 85 100 100 100 88 5 28 60 58 96 100 100 100 100 100 100 100 100 100 100 100 100 100 100 100 100
100 100 100 100 100 100 100 100 100 100 100 100 100 100 100 98 100 100 100 35 68 99 100 100 99 100 96 100 99 100 99 100 100 100 100 100 100 100 100 100 100 100 100 100
100 100 100 100 100 100 100 100 100 100 100 100 100 100 100 100 100 100 100 100 100 100 100 100 100 100 100 100 100 100 100 100 100 100 100 100 100 100 100 100 100 100 100 100
71 100 100 97 100 100 100 100 100 100 100 100 100 100 100 100 100 100 100 100 100 100 100 100 100 100 100 100 100 100 100 100 100 100 100 100 100 100 100 100 100 100 100 100

GFSCGP_prec_cloud_051.txt.gz
Cloud_Cover
34 38 5 4 0 0 0 0 3 0 0 0 0 0 0 0 0 5 5 0 0 0 0 0 0 0 0 0 0 0 10 48 60 34 100 99 100 100 100 100 100 100 100 100
17 22 5 5 5 5 5 5 5 0 0 0 0 0 0 0 0 0 50 6 0 0 0 0 0 0 0 0 0 0 2 49 70 10 32 83 100 100 100 100 100 100 100 100
5 5 7 5 5 5 5 5 3 0 0 0 0 0 1 0 0 0 5 5 2 0 0 0 0 0 0 0 0 0 1 34 35 7 4 76 100 100 100 100 100 100 100 100
7 51 69 30 20 5 5 5 4 4 2 0 0 0 37 89 11 6 15 5 5 0 0 0 0 0 0 0 0 0 0 42 34 8 29 27 98 100 100 90 91 47 100 100
66 22 72 98 11 5 5 9 5 5 5 0 0 0 93 100 100 100 100 100 8 0 0 0 0 0 0 0 0 0 1 43 36 1 40 97 100 36 3 13 31 27 93 100
90 43 65 79 100 100 8 48 51 10 5 0 0 0 95 23 73 100 100 81 5 0 0 0 0 0 0 0 0 0 18 56 76 66 57 99 99 98 10 8 34 18 78 100
100 100 100 100 100 94 70 39 20 17 5 2 0 0 97 100 0 88 68 100 39 5 0 0 0 0 0 0 0 1 19 78 87 59 99 100 100 100 99 65 38 30 79 100
100 100 100 100 100 100 100 62 5 5 5 5 0 1 100 100 96 2 0 14 74 1 0 0 0 0 0 0 0 0 38 44 88 31 59 100 100 100 38 98 90 56 100 100
100 100 100 100 100 100 100 100 100 62 6 3 0 3 94 100 100 99 2 18 0 0 0 0 0 0 0 0 0 3 18 66 65 23 41 65 92 100 63 100 99 17 100 100
100 48 97 100 100 100 99 98 100 100 100 12 0 1 100 100 100 100 42 0 0 0 0 0 0 0 0 0 0 0 2 65 41 2 11 31 82 100 100 100 60 17 100 100
100 100 83 100 100 100 100 97 100 81 30 5 3 3 97 100 100 100 92 25 0 0 0 0 0 0 0 0 0 1 37 59 36 1 0 4 42 97 100 74 20 79 100 100
100 100 100 100 100 100 98 100 100 100 100 100 71 1 64 35 6 98 86 62 5 0 0 0 0 0 0 0 5 5 40 50 10 0 0 0 24 94 100 51 0 96 100 100
100 100 100 13 7 5 10 11 67 100 100 54 4 2 100 2 6 96 100 89 14 5 0 0 0 0 0 0 0 1 26 44 6 5 4 0 18 58 100 71 91 75 100 100
100 100 78 5 5 13 5 30 98 96 98 0 3 3 76 85 100 100 100 5 4 5 0 0 0 4 42 2 0 0 0 11 7 5 30 26 5 21 41 29 100 100 100 100
100 100 84 12 19 30 5 24 100 100 3 25 4 0 96 100 100 100 100 69 0 0 1 0 3 1 1 1 5 5 13 47 10 44 97 85 79 98 99 99 100 100 100 100
100 100 100 5 18 10 14 100 81 5 5 96 0 0 99 100 100 100 100 25 10 5 6 25 11 5 0 0 0 4 5 5 5 20 96 100 100 100 100 100 100 100 100 100
100 100 100 76 5 50 100 5 12 5 4 2 5 1 99 100 100 100 40 6 78 76 62 9 5 5 5 9 7 24 91 100 100 100 100 100 100 100 100 100 100 100 100 100
94 100 100 100 53 100 14 7 10 60 19 13 5 14 95 100 100 86 29 98 99 91 46 55 25 62 94 100 100 100 98 100 100 100 100 100 100 100 100 100 100 100 100 100
100 100 100 100 66 86 81 2 12 18 5 96 64 7 88 100 54 19 100 100 100 25 32 32 87 100 100 100 75 76 100 100 100 100 100 100 100 100 100 100 100 100 100 100
100 100 100 100 100 100 5 4 5 82 53 44 64 8 96 100 68 85 96 99 96 52 9 5 5 18 82 97 100 100 100 100 100 100 100 100 100 100 100 100 100 100 100 100
100 100 100 100 100 100 5 5 17 89 11 9 71 81 85 78 66 34 55 14 5 9 84 66 5 77 100 97 100 100 100 100 100 99 100 100 100 100 99 53 86 100 100 100
100 100 100 100 100 100 100 100 100 100 100 100 89 84 97 94 99 100 43 30 20 11 9 13 59 86 74 91 73 72 73 77 100 100 100 100 100 100 99 81 87 100 100 100
100 100 100 100 100 100 100 100 100 100 100 100 100 100 100 100 100 92 91 25 16 5 17 53 43 6 8 10 28 20 44 88 100 100 100 94 74 94 73 98 100 100 100 100
32 71 100 100 98 100 100 100 100 100 100 100 100 100 100 100 100 100 100 100 100 100 100 98 56 86 100 100 93 100 99 76 91 80 100 100 100 88 95 100 100 100 100 100
89 100 100 99 80 100 67 100 100 100 100 100 100 100 100 100 100 100 100 100 100 100 100 100 100 100 100 100 100 100 100 100 100 100 100 100 100 100 100 100 100 100 100 100
6 0 31 20 88 100 35 100 100 100 100 100 100 100 97 100 100 100 100 100 100 100 100 100 100 100 100 100 100 100 100 100 100 100 100 100 100 100 100 100 100 100 100 100

GFSCGP_prec_cloud_054.txt.gz
Cloud_Cover
100 100 100 92 5 5 5 1 0 0 0 0 0 0 0 0 0 0 0 0 0 4 0 0 0 0 0 0 0 0 0 0 0 0 0 12 0 58 100 100 94 76 100 100
100 100 100 73 6 5 5 1 0 0 0 0 0 0 0 0 0 0 0 0 0 0 0 0 0 0 0 0 0 0 0 0 0 0 0 0 0 49 100 100 99 100 100 100
100 100 100 81 28 6 5 5 1 0 0 0 0 0 0 0 0 0 3 5 1 0 0 0 0 0 0 0 0 0 0 0 0 0 0 5 18 36 100 100 100 100 100 100
100 100 100 100 76 12 6 5 5 2 0 0 0 0 0 5 5 5 5 0 5 0 0 0 0 0 0 0 0 0 0 0 0 0 0 0 0 31 85 100 100 100 100 100
100 100 100 97 9 5 5 5 5 1 0 0 0 0 94 93 60 15 5 5 0 0 0 0 0 0 0 0 0 0 0 0 0 0 0 0 0 17 31 100 100 100 100 100
100 100 96 87 55 5 5 5 5 5 0 0 0 0 87 100 100 24 54 64 5 4 0 0 0 0 0 0 0 0 0 0 0 0 0 0 0 7 33 100 100 100 100 100
93 100 100 100 100 42 5 5 15 5 5 0 0 0 94 99 49 100 100 81 54 10 5 5 0 0 0 0 0 0 0 0 0 0 0 0 0 13 2 63 64 87 93 83
100 99 99 100 100 100 100 19 5 4 5 5 0 0 19 100 19 71 87 100 100 89 5 1 0 0 0 0 0 0 0 0 0 1 0 0 0 26 12 39 92 0 0 0
100 100 100 100 100 100 100 98 80 5 5 0 0 1 5 100 100 14 100 86 60 18 4 5 0 0 0 0 0 0 0 0 0 0 0 0 0 6 0 11 100 76 89 3
100 100 100 100 100 100 100 100 100 96 24 5 0 0 4 100 14 100 95 100 100 75 4 0 0 0 0 0 1 0 0 2 2 0 0 3 23 29 2 53 53 100 6 35
100 100 100 100 100 100 100 100 100 100 87 5 0 0 49 100 57 20 99 65 41 100 5 0 0 0 0 0 0 0 4 5 5 5 5 10 6 18 79 100 32 71 15 100
94 76 100 100 93 100 100 100 100 45 53 76 35 0 28 71 2 5 50 98 5 5 5 2 0 0 0 0 0 0 0 0 0 3 0 0 0 0 8 32 38 71 98 100
100 100 78 91 34 30 33 99 100 100 100 53 5 0 100 5 5 17 67 75 16 0 0 0 4 0 0 0 0 0 0 0 0 0 0 0 0 0 0 12 39 100 100 100
100 100 96 31 32 82 11 48 99 100 100 1 5 0 41 62 68 95 100 42 1 0 1 4 19 6 0 0 0 0 0 0 0 0 0 1 3 4 5 11 54 100 100 94
100 89 36 100 100 94 20 100 100 100 2 5 0 2 5 100 100 100 8 17 6 4 1 0 3 5 5 5 5 5 5 5 4 2 4 5 5 5 5 6 50 100 100 97
100 100 87 5 77 91 25 78 52 5 5 19 0 4 95 100 65 5 75 8 0 0 0 0 5 4 5 7 60 38 20 5 67 100 80 47 99 99 60 100 100 100 100 100
100 100 100 100 15 100 100 8 20 8 5 5 5 5 90 81 100 100 88 0 0 1 0 0 1 5 5 5 5 6 21 29 59 92 20 94 100 100 100 100 100 100 100 100
100 100 100 100 90 100 45 75 86 97 71 43 18 29 93 100 100 100 32 13 38 19 5 5 6 39 13 5 13 5 5 17 31 5 33 30 86 100 100 100 100 100 100 100
100 100 100 100 100 99 10 5 18 76 6 20 8 75 100 100 100 6 100 100 76 30 44 78 74 87 71 52 54 48 64 81 92 32 34 73 100 100 100 100 100 100 100 100
100 100 100 100 100 100 8 6 5 73 79 31 90 94 100 100 54 10 100 100 11 94 100 100 100 100 93 33 28 48 60 77 100 80 77 80 100 100 100 100 100 100 100 100
100 100 100 100 100 98 16 84 97 100 11 2 2 5 85 100 93 76 100 100 58 14 5 5 5 5 5 24 92 77 94 100 98 99 100 100 100 100 91 77 62 100 99 100
100 100 100 100 100 100 19 18 31 66 91 100 100 100 95 79 45 37 34 70 72 5 5 6 25 5 5 9 86 100 100 100 100 100 100 100 100 100 100 100 90 100 100 100
4 35 99 100 100 100 100 100 100 100 88 6 47 46 70 100 100 100 100 100 98 90 50 55 53 74 50 36 35 56 100 88 52 96 100 100 95 99 100 89 96 99 100 100
4 91 41 38 28 43 24 37 88 98 100 100 100 98 100 100 100 100 100 100 100 100 100 100 100 100 100 100 100 100 100 91 84 89 99 100 100 100 100 100 100 100 100 100
95 43 5 41 15 69 6 41 99 100 100 68 100 100 100 100 100 100 100 100 100 100 100 100 100 100 100 100 100 100 100 100 100 100 100 100 100 100 100 100 100 100 100 100
21 11 100 39 3 60 3 78 100 100 100 96 95 99 100 100 100 100 100 100 100 100 100 95 100 100 100 100 100 100 100 100 100 100 100 100 100 100 100 100 100 100 100 100

GFSCGP_prec_cloud_057.txt.gz
Cloud_Cover
99 100 100 100 62 17 58 50 75 5 4 5 0 0 0 0 0 0 0 0 0 0 0 0 0 0 0 0 0 0 0 0 0 0 0 0 0 0 14 45 98 100 78 100
100 100 100 100 100 56 94 56 85 11 5 4 0 0 0 0 0 0 0 0 0 0 0 0 0 0 0 0 0 0 0 0 0 0 0 0 0 0 0 80 98 50 100 100
100 100 100 100 100 100 100 100 60 14 5 5 0 0 0 0 0 0 0 0 0 0 0 0 0 0 0 0 0 0 0 0 0 0 0 0 0 0 4 73 100 100 100 100
100 100 100 100 100 100 100 100 78 5 5 5 4 4 0 0 0 0 0 0 0 0 0 0 0 0 0 0 0 0 0 0 0 0 0 0 0 0 0 1 57 100 100 100
100 100 100 100 100 100 100 100 17 7 5 5 2 0 1 0 0 0 0 0 0 0 0 0 0 0 0 0 0 0 0 0 0 0 0 0 0 0 0 3 55 92 100 100
100 100 100 100 100 86 100 91 58 8 5 2 0 0 5 4 2 1 3 0 0 0 0 0 0 0 0 0 0 0 0 0 0 0 0 0 0 0 0 5 93 53 97 100
100 100 100 100 100 100 100 100 98 12 5 0 0 0 5 24 5 5 5 5 4 3 0 3 0 0 0 0 0 0 0 0 0 0 0 0 0 0 0 0 50 44 99 100
99 93 76 97 100 100 100 98 27 5 4 4 0 1 5 9 8 5 5 5 6 5 6 56 52 5 5 1 0 0 0 0 0 0 0 0 0 0 0 0 4 42 99 100
100 100 100 100 100 100 99 79 96 17 5 0 0 1 5 90 100 6 5 6 5 5 31 80 98 5 5 5 2 0 0 0 0 0 0 0 0 0 0 0 0 36 70 96
100 100 100 100 100 100 100 100 84 45 14 10 5 5 3 29 19 94 16 0 5 24 86 100 100 97 6 10 5 0 0 0 5 5 0 3 3 3 5 5 5 23 53 10
100 95 80 100 100 100 100 100 100 100 100 62 5 3 88 100 100 100 99 6 5 5 6 61 6 5 5 2 4 0 0 0 5 5 5 4 4 5 5 5 5 5 7 5
100 49 5 64 100 100 100 100 100 100 100 100 100 5 100 100 100 100 100 70 5 5 0 0 2 2 0 0 0 0 0 0 0 0 0 5 5 5 5 3 0 2 5 0
100 100 41 27 5 5 5 53 100 100 100 17 7 2 100 56 70 100 100 100 49 4 0 0 0 0 0 0 0 0 0 4 5 5 8 5 5 0 0 0 5 5 5 5
100 100 100 73 94 97 63 80 86 100 97 3 2 1 100 76 96 100 100 80 4 5 1 5 5 5 5 0 0 0 0 0 1 2 5 26 27 16 8 16 8 11 31 74
100 100 100 6 82 100 100 100 100 100 22 91 5 35 37 100 100 100 30 5 5 0 0 3 49 29 5 3 0 0 0 5 0 0 2 18 81 100 86 98 90 96 71 89
100 100 100 14 59 100 100 100 32 6 5 46 5 4 96 100 100 92 71 25 3 0 1 0 2 5 0 0 0 0 0 0 2 4 1 5 10 81 46 68 80 88 99 100
100 100 100 86 91 100 100 27 5 5 5 19 79 13 96 54 100 100 81 5 1 0 5 0 0 0 0 0 0 0 1 4 5 5 6 11 8 32 93 97 100 100 100 100
100 100 100 95 100 100 10 5 10 8 27 33 100 14 42 38 100 100 58 58 81 88 67 43 42 43 2 2 3 2 0 0 4 6 95 93 97 99 100 100 100 100 100 100
100 100 100 100 87 48 17 33 96 100 100 100 100 98 5 55 96 1 100 100 12 52 100 34 2 3 10 6 23 93 86 87 43 32 72 97 100 51 53 75 81 100 100 100
100 100 100 100 100 66 5 3 6 58 97 86 100 100 100 100 23 6 100 100 99 100 18 44 38 18 5 5 10 7 5 5 8 7 47 72 100 99 15 37 51 62 100 100
100 100 100 100 100 100 34 68 100 100 90 82 72 71 100 100 100 72 99 100 100 100 100 74 12 6 12 63 83 85 99 100 100 98 97 100 100 100 100 100 100 100 100 100
100 100 100 100 100 100 95 100 100 100 97 100 77 79 96 100 96 94 71 27 38 44 5 5 5 25 60 84 48 6 5 5 5 5 12 37 100 97 89 100 100 100 100 100
17 85 95 100 99 97 63 75 99 100 100 87 100 100 100 100 100 100 88 100 100 100 65 100 100 100 100 100 100 100 61 30 20 7 12 32 34 64 87 86 90 50 84 100
0 7 4 12 0 5 7 17 64 100 100 38 47 6 46 5 38 94 100 100 100 100 58 78 100 92 70 94 100 100 100 100 100 100 100 100 100 100 98 100 100 100 100 100
29 45 4 41 1 5 0 0 0 16 93 10 0 1 41 74 0 4 5 38 74 81 100 100 100 100 100 100 100 85 64 84 77 76 87 99 100 100 91 82 64 84 100 100
0 4 48 15 3 99 7 2 3 1 1 5 4 0 4 20 11 44 21 33 100 100 100 100 100 100 86 99 100 100 100 100 96 97 88 99 100 100 100 100 100 100 100 100

GFSCGP_prec_cloud_060.txt.gz
Cloud_Cover
9 96 100 100 19 100 100 100 93 42 60 4 0 4 0 4 0 0 0 0 0 0 0 0 0 0 0 0 0 0 0 0 0 0 8 3 0 0 0 9 68 100 100 56
100 100 100 76 44 23 32 12 73 31 47 2 5 10 5 0 0 0 0 0 0 0 0 0 0 0 0 0 0 0 0 0 0 0 0 0 0 0 0 0 0 1 97 100
100 100 100 100 86 77 86 92 96 36 12 5 2 18 5 6 5 0 0 0 0 0 0 0 0 0 0 0 0 0 0 0 0 0 0 0 0 0 0 0 0 0 78 100
100 100 100 100 100 100 100 100 100 92 5 5 5 74 56 21 5 4 0 0 0 0 0 0 0 0 0 0 0 0 0 0 0 0 0 0 0 0 0 0 0 0 70 100
100 100 100 100 100 97 100 100 100 100 39 44 89 80 100 19 5 5 0 0 0 0 0 0 0 0 0 0 0 0 0 0 0 0 0 0 0 0 0 0 0 0 67 100
100 100 100 100 100 97 100 93 74 100 53 6 100 84 100 97 16 5 0 0 0 0 0 0 0 0 0 0 0 0 0 0 0 0 0 0 0 0 0 0 0 33 100 100
100 100 100 100 100 100 100 92 100 96 30 57 66 59 100 91 98 65 5 0 0 0 0 0 0 0 0 0 0 0 0 0 0 0 0 0 0 0 0 0 0 5 88 100
100 100 100 100 100 100 100 99 60 42 59 88 84 93 100 90 100 100 5 4 4 5 2 0 0 0 0 0 0 0 0 0 0 0 0 0 0 0 0 0 0 0 11 79
100 100 100 100 100 100 100 97 100 36 7 34 15 91 100 100 100 100 100 73 33 5 10 35 5 5 5 5 2 4 5 5 5 1 2 5 5 5 5 2 0 0 0 0
100 100 100 100 100 100 100 100 100 69 6 5 18 96 100 100 100 100 55 5 5 64 43 8 5 5 5 5 5 3 5 5 5 4 14 50 5 17 35 35 6 5 5 3
85 26 5 70 100 100 100 100 100 100 100 94 46 26 100 100 100 100 100 100 78 8 85 57 5 5 9 15 6 7 5 4 4 5 0 0 0 4 5 5 5 5 5 5
94 60 5 5 11 83 100 100 100 100 100 100 100 36 100 100 100 100 100 100 100 27 3 3 57 100 98 77 61 12 5 5 0 0 0 0 0 0 3 5 5 5 15 38
100 94 48 5 5 5 5 77 100 100 99 5 5 4 100 96 100 100 100 100 100 18 20 7 5 5 5 4 4 0 0 0 0 0 0 2 5 5 2 4 5 5 5 5
100 100 77 59 94 85 60 90 100 100 57 20 4 28 100 100 100 100 100 79 100 99 25 5 5 5 5 5 1 0 0 2 5 5 10 26 5 5 5 5 44 9 5 5
100 100 100 28 99 100 100 100 99 59 5 45 6 4 96 100 100 100 100 100 100 13 3 2 3 15 34 34 5 0 0 0 0 5 5 15 12 6 4 5 5 4 5 5
74 100 100 100 100 100 100 100 35 100 50 99 5 5 99 100 92 30 41 71 7 5 11 6 4 0 5 42 5 1 0 0 0 0 1 4 5 5 5 5 5 6 46 90
100 100 100 41 99 100 100 5 76 71 96 100 100 3 49 83 100 99 59 94 77 59 5 3 1 1 0 0 4 0 1 0 0 0 2 0 1 5 5 2 5 29 37 92
96 100 100 88 100 100 5 6 13 10 9 100 100 92 98 95 100 100 100 93 17 28 46 80 71 31 4 4 2 2 5 5 4 4 99 92 11 19 69 100 99 88 100 100
100 100 100 100 100 58 5 97 100 100 79 100 100 100 6 5 5 59 100 100 70 12 41 52 23 2 2 9 21 5 2 0 12 11 84 99 88 85 100 100 100 100 100 100
100 100 100 98 97 12 0 62 100 100 98 78 100 100 42 7 6 88 100 100 100 96 19 5 5 8 2 1 17 10 5 5 6 51 45 58 54 89 100 94 99 90 61 96
100 100 100 100 100 94 4 12 93 100 43 38 9 80 100 88 100 97 100 100 100 91 89 99 95 94 7 5 5 13 40 18 45 77 19 22 18 10 57 22 50 43 61 100
100 100 100 100 100 96 91 100 99 100 100 100 100 100 100 100 100 90 79 60 29 22 68 38 18 99 100 95 82 42 26 32 26 99 100 50 20 22 6 5 43 41 49 99
100 99 100 100 92 99 23 100 100 100 100 100 100 100 100 100 100 100 100 100 100 100 94 74 21 83 100 100 100 100 100 100 100 98 88 95 96 99 100 85 22 98 100 100
94 100 100 99 94 93 9 8 42 98 100 24 46 85 100 96 57 29 47 82 70 81 74 58 5 5 56 78 99 100 100 98 100 99 80 94 100 99 70 76 98 100 100 100
3 5 27 46 1 3 11 5 3 1 4 2 12 27 40 91 30 5 35 5 5 34 22 4 5 5 28 100 69 94 100 98 81 86 100 100 100 93 100 100 99 100 93 94
0 0 1 2 2 70 7 0 0 2 14 59 3 0 0 0 2 0 15 37 1 4 10 6 5 8 87 62 100 100 100 100 100 100 100 100 100 99 96 100 100 100 100 100

GFSCGP_prec_cloud_063.txt.gz
Cloud_Cover
100 92 63 56 27 6 5 22 71 77 19 36 94 79 57 14 0 0 0 0 0 0 0 0 0 0 0 0 0 0 0 0 0 0 0 14 0 0 0 0 0 0 11 66
100 100 83 11 5 5 5 6 100 100 59 57 11 56 5 4 5 4 0 0 3 1 0 0 0 0 0 0 0 0 0 0 0 0 0 0 0 0 0 0 0 0 9 67
100 100 77 100 78 32 19 25 82 80 91 76 13 47 5 5 5 4 0 3 5 5 0 0 0 0 0 0 0 0 0 0 0 0 0 0 10 6 0 0 0 0 0 66
100 82 100 100 100 56 89 13 10 5 5 7 5 50 76 87 5 16 8 5 5 5 0 0 0 0 0 0 0 0 0 0 0 0 0 0 0 1 0 0 0 0 0 31
100 100 100 100 100 91 86 35 5 6 5 77 48 100 100 11 5 70 31 5 5 0 0 0 0 0 0 0 0 0 0 0 0 0 0 0 0 0 0 0 0 0 8 15
100 100 100 100 100 88 52 100 85 95 85 31 86 77 100 91 16 54 98 51 5 5 5 1 0 0 0 0 0 0 0 0 0 0 0 0 3 5 5 5 3 15 4 6
100 100 100 100 100 96 100 100 96 37 6 35 56 74 100 100 100 100 100 100 55 5 7 5 4 0 0 0 0 0 0 0 0 0 0 0 0 0 5 5 5 10 16 12
100 100 100 100 100 100 100 100 44 11 33 42 33 68 100 95 100 100 100 100 100 88 44 5 1 0 0 0 0 0 0 0 0 0 0 0 0 5 5 5 5 5 6 6
100 100 100 100 100 100 100 100 100 100 29 6 7 37 100 100 100 100 100 100 100 100 100 48 5 1 0 0 0 0 0 0 0 0 0 4 3 5 5 5 5 8 5 4
100 100 100 100 100 100 100 100 100 100 100 100 100 100 100 100 100 100 100 100 100 100 100 100 100 61 34 5 0 0 0 0 0 0 1 2 5 37 17 5 5 5 5 5
100 90 100 100 100 100 100 100 100 100 100 100 100 100 100 100 100 100 100 100 100 100 100 100 100 100 100 46 9 5 5 5 5 5 6 5 6 63 81 71 15 5 2 4
85 86 92 66 6 36 88 70 44 90 79 89 5 26 100 100 100 100 100 100 100 100 100 100 100 100 100 100 100 98 78 82 95 98 100 100 100 47 5 5 5 5 5 0
100 30 67 34 12 48 68 68 100 100 19 5 5 51 100 65 100 100 100 100 100 100 97 62 63 61 60 55 33 41 57 70 35 98 91 92 100 100 38 46 8 2 1 0
100 76 98 77 95 84 75 96 99 69 18 5 2 88 100 100 100 100 98 87 81 13 8 5 7 5 5 6 8 24 100 94 84 47 58 99 71 35 62 100 94 73 46 21
92 98 55 97 100 73 97 94 100 68 65 24 51 5 100 100 100 100 100 29 6 7 5 5 5 5 5 5 5 5 5 5 4 5 5 9 28 69 84 94 37 42 100 80
98 100 100 100 100 100 100 47 77 5 21 5 15 13 100 100 100 100 100 99 99 66 5 5 5 5 5 41 100 100 13 3 5 4 20 30 18 5 3 3 0 0 4 5
100 100 100 100 100 100 100 5 5 56 93 99 98 22 100 100 100 99 74 66 29 20 11 5 5 5 34 42 11 70 100 68 3 4 4 5 2 3 5 2 22 5 17 37
100 100 100 100 100 100 3 5 19 5 83 100 100 9 91 71 100 98 51 12 12 65 100 100 83 18 5 5 5 5 5 2 2 2 50 100 35 2 6 12 3 12 6 56
94 97 100 95 87 100 14 5 63 98 100 100 100 50 0 0 12 94 97 42 31 38 62 62 71 5 3 25 84 5 5 5 15 5 14 85 100 19 23 16 9 11 5 14
100 100 100 92 62 34 89 86 100 100 68 6 100 100 93 8 5 44 15 13 40 12 5 53 36 5 48 18 29 5 5 48 88 52 5 4 38 24 23 61 20 29 58 70
100 100 100 56 95 9 81 48 12 95 10 12 5 76 100 100 84 22 26 5 5 5 5 5 5 41 15 47 5 5 8 6 7 63 46 37 34 59 88 51 79 65 68 100
100 100 100 100 100 72 24 4 14 5 30 5 35 40 6 26 75 42 5 5 6 20 27 58 54 6 34 5 5 5 5 7 17 17 57 71 63 75 74 59 83 95 91 100
100 100 100 100 100 94 92 73 52 90 91 58 65 100 99 99 95 95 98 93 47 45 64 75 20 5 5 8 18 5 52 25 12 24 98 89 75 98 94 81 99 100 89 100
100 100 100 98 87 88 29 22 8 99 100 82 95 85 98 100 100 100 99 100 100 100 94 95 100 100 100 100 100 100 100 90 76 79 83 99 100 100 100 100 79 21 74 97
100 100 100 100 100 100 100 100 100 100 99 50 97 86 23 25 35 48 7 7 35 41 29 10 29 33 22 12 23 57 5 5 29 54 66 74 94 100 97 100 66 77 100 100
1 36 70 99 67 93 100 100 100 44 5 8 15 12 5 5 11 10 3 2 3 4 3 7 10 15 53 63 66 100 52 32 84 100 94 93 100 100 100 100 100 100 100 100

GFSCGP_prec_cloud_066.txt.gz
Cloud_Cover
100 100 100 100 26 20 100 69 94 49 54 3 5 5 5 28 42 14 5 4 0 0 0 0 0 0 0 0 0 0 0 0 0 0 0 0 0 26 1 100 26 53 62 87
100 100 100 98 98 90 98 88 100 5 5 42 5 5 5 96 94 5 7 5 5 0 0 0 0 0 0 0 0 0 0 0 0 0 0 0 0 1 1 3 14 59 47 100
100 100 100 100 100 100 65 68 84 84 8 5 3 17 5 40 100 6 5 11 5 5 3 0 0 0 0 0 0 0 0 0 0 0 4 1 29 22 5 24 1 3 12 64
100 100 100 100 100 100 100 100 29 68 40 5 5 92 70 6 26 6 16 5 6 6 1 4 4 0 0 0 0 0 0 0 0 0 6 0 1 32 0 0 0 12 69 100
100 100 100 88 100 100 76 98 95 40 5 5 48 60 87 19 94 84 6 5 14 7 5 5 5 0 0 0 0 0 0 0 0 3 0 0 0 0 0 0 0 0 13 47
100 100 100 100 100 93 69 14 25 30 5 27 94 27 100 100 88 76 100 96 98 99 14 5 5 5 5 3 0 0 0 0 0 0 0 0 0 0 0 0 0 0 3 25
100 100 100 100 100 72 67 99 83 47 5 6 7 24 99 100 100 100 100 100 100 76 41 6 5 5 5 5 1 0 0 0 0 0 0 0 0 0 0 0 0 2 1 14
100 100 100 100 100 100 94 40 11 5 5 5 16 86 100 100 100 100 100 100 76 97 44 5 5 5 5 5 3 0 0 0 0 0 0 0 0 0 0 0 5 4 1 1
100 100 100 100 100 100 100 100 96 28 5 5 5 56 100 100 100 100 100 100 100 15 7 5 5 5 5 5 5 5 0 0 0 0 0 0 0 0 0 0 2 5 5 5
100 100 100 100 100 100 100 100 100 70 35 18 59 98 100 100 100 97 92 100 100 100 100 100 97 72 21 5 3 3 3 2 1 3 5 5 5 5 2 4 5 5 5 5
100 100 100 100 100 100 100 100 100 100 100 52 52 100 100 100 100 100 81 99 100 100 100 100 100 100 100 92 42 8 6 24 38 52 58 59 52 49 46 28 13 25 19 5
100 100 100 100 100 100 100 100 100 100 100 100 100 100 100 100 100 100 100 100 100 100 100 100 100 100 100 100 100 100 100 100 100 100 100 100 100 100 99 100 100 100 88 62
100 98 100 100 100 100 100 100 100 100 100 100 98 98 100 100 100 100 100 100 81 67 40 61 71 98 100 100 100 100 100 100 100 100 100 100 100 100 100 100 100 100 100 74
100 100 100 91 80 100 100 95 29 73 95 100 99 100 100 100 100 100 100 100 30 5 5 5 5 5 5 15 77 100 100 100 100 100 100 100 100 100 100 100 100 100 100 97
100 100 100 100 100 99 89 62 48 51 76 44 97 44 100 100 100 100 100 100 23 35 71 53 7 14 27 74 90 91 88 91 100 100 100 100 99 69 100 100 100 100 97 100
100 100 100 100 100 100 100 88 83 80 66 37 75 96 100 100 100 100 100 100 81 92 57 5 13 20 26 33 48 8 6 6 60 96 96 99 98 74 70 95 99 66 5 5
100 100 100 99 100 100 96 100 98 98 89 83 70 100 100 100 100 100 100 99 56 78 87 68 27 31 6 14 23 5 10 39 14 26 81 37 41 9 5 5 3 4 4 5
100 100 100 95 100 95 34 52 67 55 100 100 76 100 100 100 100 100 100 100 99 81 59 41 21 5 5 4 2 0 0 0 0 2 4 8 27 98 8 7 7 5 5 11
100 100 100 100 100 10 16 84 94 97 94 100 41 32 98 100 100 100 100 77 62 58 33 17 8 5 5 3 0 0 0 3 1 1 1 2 6 99 29 75 100 99 90 50
100 100 100 100 100 52 4 5 100 98 56 6 67 100 100 12 10 97 39 24 10 10 5 8 28 6 5 0 0 4 5 5 5 5 11 38 45 100 86 65 60 51 29 40
100 100 99 100 100 20 4 4 52 100 26 47 77 100 100 28 12 8 5 5 5 18 10 6 5 16 7 14 13 5 5 5 5 5 6 15 22 47 35 19 13 19 75 90
100 100 88 100 100 66 34 5 31 56 12 5 20 49 75 54 37 9 5 5 38 6 5 3 2 4 8 8 5 5 5 3 5 11 18 50 68 44 29 17 56 42 65 100
100 99 100 100 46 12 5 5 5 9 13 5 6 21 5 5 10 22 5 5 4 4 4 4 0 0 3 1 5 5 5 5 6 61 96 100 97 58 99 100 100 100 100 100
100 100 99 77 8 7 5 4 3 5 5 5 5 5 10 8 12 10 5 8 51 69 40 30 16 8 22 87 85 13 88 96 96 95 100 91 38 48 68 98 100 98 41 93
100 100 100 100 100 100 84 61 10 5 5 14 6 5 24 90 98 89 79 100 100 100 100 100 98 95 97 97 53 17 98 60 64 85 69 39 32 72 97 100 100 91 92 100
100 100 100 100 100 100 100 100 100 96 100 100 100 100 100 98 100 100 100 86 24 5 5 5 5 36 10 6 30 29 83 98 84 94 100 70 87 96 100 100 100 100 100 100

GFSCGP_prec_cloud_069.txt.gz
Cloud_Cover
100 100 100 100 100 18 99 53 47 90 100 39 100 96 7 73 6 5 5 1 5 5 5 2 0 0 0 0 0 0 0 0 5 53 69 80 56 39 46 49 52 67 99 100
100 100 100 94 100 96 100 80 94 100 94 99 88 100 66 5 9 5 5 5 6 5 5 5 3 0 0 0 0 0 0 0 0 0 17 36 52 43 7 27 100 91 100 100
100 100 100 100 100 100 100 98 86 77 94 100 100 100 100 11 5 5 4 5 5 5 2 0 0 1 0 0 0 0 0 0 0 0 6 22 57 73 66 57 32 39 66 100
100 100 100 100 100 100 100 100 93 91 98 100 100 100 76 25 5 5 4 3 0 3 3 0 0 0 5 2 1 0 0 0 0 0 7 1 3 48 10 0 3 12 1 51
100 100 100 100 100 100 100 100 100 46 98 99 100 100 100 99 73 5 5 5 0 5 4 4 0 0 1 5 2 0 0 0 0 7 2 27 20 0 0 0 0 1 14 85
100 100 100 94 100 90 83 11 9 94 98 95 100 100 100 99 5 5 23 5 0 0 0 0 0 0 0 5 5 5 0 10 13 23 10 11 10 7 20 0 5 9 10 18
97 100 100 100 100 98 98 96 99 98 93 47 56 71 100 100 82 36 5 5 3 0 2 5 4 3 3 5 5 5 5 2 4 16 18 8 5 5 5 0 0 1 0 11
100 100 100 100 100 100 100 94 29 5 5 5 43 89 100 100 100 100 58 5 5 5 14 5 16 5 5 5 5 5 5 5 5 5 5 5 5 5 5 5 5 5 4 1
100 100 100 100 100 100 100 100 100 74 5 5 5 28 100 100 82 73 100 100 97 39 35 7 57 5 15 5 5 5 5 5 5 5 5 5 7 5 40 60 65 66 47 20
100 100 100 100 100 82 78 92 43 14 5 6 13 78 100 100 24 4 20 100 100 100 94 59 10 5 5 5 5 5 5 2 5 6 13 38 73 62 88 98 100 97 100 67
100 100 100 100 100 100 100 100 100 100 59 5 29 95 78 26 12 51 5 6 98 100 100 100 100 100 86 52 22 10 5 5 5 14 64 74 48 99 100 100 100 100 100 100
100 100 100 100 100 100 79 30 74 92 94 97 100 100 100 100 100 99 99 96 85 100 100 100 100 100 100 100 100 100 99 97 96 93 99 98 59 86 93 100 100 100 100 100
100 100 100 100 100 100 100 100 100 100 100 100 100 100 100 100 100 100 100 93 36 9 8 50 83 99 100 100 100 100 100 100 100 100 100 100 100 100 100 100 100 100 100 100
100 100 100 93 100 100 100 100 100 100 92 77 82 100 100 100 100 100 100 57 8 30 19 28 77 94 98 100 100 100 100 100 100 100 100 100 100 100 100 100 100 100 100 100
100 100 100 100 95 90 52 57 100 100 100 86 100 100 100 100 100 100 96 6 5 10 73 76 100 100 100 100 100 100 100 100 100 100 100 100 100 100 100 100 100 100 100 100
100 100 100 100 100 100 83 68 45 22 23 81 100 100 100 100 100 100 100 100 100 99 76 81 100 100 100 100 100 100 100 100 100 100 100 100 100 100 100 100 100 98 68 100
100 100 100 100 100 100 97 83 100 100 93 99 100 100 100 99 100 100 100 98 34 98 51 32 82 90 75 91 100 92 96 100 100 97 96 64 97 100 87 26 22 5 24 5
100 100 100 100 100 100 100 100 100 100 100 100 100 100 100 100 100 100 100 100 100 100 100 66 96 68 59 81 99 100 94 60 29 65 81 66 77 30 7 33 6 3 3 5
100 100 100 100 100 100 100 100 100 100 100 100 100 100 100 100 100 100 100 100 100 100 78 47 64 66 59 38 23 42 32 20 27 31 5 5 1 5 91 85 15 14 29 15
100 100 100 100 100 58 86 90 99 100 95 100 100 100 99 99 100 100 98 93 94 60 21 20 7 5 5 5 8 46 5 5 5 5 4 14 57 100 95 71 42 15 6 5
100 100 100 100 100 48 21 66 20 78 100 100 100 97 100 100 68 31 54 52 37 5 5 10 80 79 6 5 5 5 5 5 13 5 5 12 5 53 28 61 69 67 8 15
100 100 100 100 100 46 14 67 95 100 100 31 27 28 10 6 20 86 76 5 5 3 0 1 0 1 5 3 2 2 6 19 78 5 6 5 74 71 33 85 60 57 64 12
100 100 100 100 100 54 22 16 6 9 20 92 99 92 100 76 8 5 8 28 17 6 5 5 5 5 4 0 3 5 5 5 5 5 5 23 97 61 29 75 60 63 69 74
100 95 94 100 91 75 9 20 47 64 23 89 82 6 5 5 5 5 5 5 5 5 5 5 5 5 54 48 5 5 5 11 78 83 15 92 100 68 61 66 43 22 19 31
100 100 77 55 100 100 89 56 15 9 5 5 5 5 5 5 7 11 5 5 4 2 3 5 5 5 5 5 5 5 5 25 95 100 74 86 100 84 72 11 18 52 85 93
100 100 100 100 100 100 100 100 78 63 64 36 5 5 5 5 5 7 38 30 18 12 7 5 11 37 59 58 48 78 83 87 68 68 100 100 100 98 79 42 38 76 97 99

GFSCGP_prec_cloud_072.txt.gz
Cloud_Cover
100 100 100 100 100 100 100 87 70 82 100 100 79 31 100 52 100 100 100 0 3 0 0 0 0 0 0 0 0 0 0 0 34 88 100 100 100 100 100 83 81 100 96 100
99 100 100 98 71 100 100 100 100 100 100 85 78 46 64 79 95 100 99 47 1 0 0 0 0 0 0 0 0 0 0 0 16 20 44 34 80 98 100 97 72 68 100 100
100 100 100 100 77 97 100 100 100 100 99 58 84 90 36 5 30 100 100 25 7 1 0 0 0 0 0 0 0 0 0 0 0 0 40 59 60 82 87 93 97 93 82 97
100 87 96 100 100 98 100 100 70 100 60 100 62 55 100 19 18 53 99 89 39 6 0 0 0 0 0 0 0 0 0 0 0 0 14 25 46 87 56 56 27 34 72 100
100 100 100 100 100 100 100 100 100 100 16 99 99 98 100 100 100 85 48 97 32 4 0 4 0 0 0 0 0 0 0 0 3 7 2 25 17 5 5 5 5 13 28 36
100 100 84 100 100 100 100 93 100 100 39 38 38 38 100 100 87 92 98 71 77 5 5 4 0 0 0 0 0 0 0 2 9 22 18 21 21 15 44 28 27 21 16 21
30 100 92 97 100 100 100 100 96 100 100 98 65 82 88 95 100 90 84 5 5 5 5 5 5 5 0 0 4 5 5 15 42 55 42 41 30 27 18 7 12 17 14 19
100 100 100 100 100 100 100 100 100 57 36 6 9 16 5 9 100 100 22 5 5 5 5 5 5 5 2 5 5 5 5 5 5 14 24 28 36 37 31 24 30 45 18 5
100 100 100 100 100 100 100 89 100 75 60 6 89 85 11 28 97 53 99 100 97 16 5 5 5 5 5 5 5 5 5 5 6 5 6 5 5 5 7 18 65 98 100 100
100 100 100 100 100 100 100 100 100 50 30 31 14 56 88 27 33 82 43 100 100 100 97 53 10 5 4 5 5 5 5 5 5 6 45 46 10 5 5 23 14 75 66 76
100 100 100 100 100 100 100 100 100 100 95 28 28 55 18 21 7 9 6 66 35 89 100 100 100 96 86 53 5 4 4 5 5 5 5 5 5 5 5 5 5 5 11 22
100 100 100 100 100 100 100 96 86 100 92 95 45 10 30 31 27 22 17 30 88 59 57 100 100 100 100 100 99 98 95 55 23 19 5 5 13 24 18 12 49 74 62 90
100 100 89 70 58 75 9 15 37 95 100 100 68 20 71 51 56 17 36 36 28 69 33 5 5 57 100 100 100 100 100 100 100 100 100 100 100 100 100 100 100 100 100 100
100 90 92 76 49 100 100 100 100 100 99 86 98 100 68 100 100 55 83 100 100 100 37 7 19 51 18 43 100 100 100 100 100 100 100 100 100 100 100 100 100 100 100 100
100 100 100 100 95 100 100 100 100 100 77 83 86 100 100 100 100 100 100 100 90 59 83 88 94 100 100 100 100 100 100 100 100 100 100 100 100 100 100 100 100 100 100 100
100 100 100 100 100 100 100 100 100 100 100 100 99 100 100 100 100 100 52 5 8 48 74 87 46 80 92 100 100 100 100 100 100 100 100 100 100 100 100 100 100 100 100 100
100 100 100 100 100 100 100 100 100 100 100 100 100 100 100 100 100 100 100 96 94 74 11 47 54 49 86 96 95 100 100 100 100 85 100 100 100 96 36 63 83 95 82 34
100 100 100 100 100 100 100 100 100 100 100 100 100 100 100 100 100 100 100 95 88 81 57 77 77 60 85 97 100 100 100 100 100 100 100 100 100 95 82 46 38 61 35 56
100 100 100 100 100 100 100 100 100 100 100 100 100 100 100 100 100 100 100 100 100 100 100 100 100 100 100 100 100 100 100 100 87 32 33 11 11 5 5 5 6 5 25 14
100 100 100 100 100 100 100 100 100 100 100 100 100 100 100 100 100 100 100 100 100 100 100 100 100 100 100 100 100 100 100 100 97 44 5 5 5 5 5 5 5 14 36 34
100 100 100 100 100 100 100 100 100 100 100 100 100 100 100 100 100 100 100 100 100 100 100 100 100 100 99 82 70 25 26 29 10 5 24 94 55 11 8 38 81 31 38 69
100 100 100 100 100 100 100 100 100 100 100 100 100 100 100 100 100 100 100 100 100 100 92 97 100 100 100 87 84 52 49 35 73 25 40 8 12 12 96 59 64 44 68 72
100 100 100 100 100 100 100 100 100 100 99 99 100 100 100 88 76 37 24 13 30 48 62 92 96 55 68 49 5 5 5 5 5 31 24 5 5 71 82 99 92 89 69 84
100 100 100 100 94 62 33 11 5 5 12 54 47 15 43 76 71 16 11 14 21 5 8 5 5 6 5 19 5 5 5 5 7 80 100 100 100 99 93 8 39 91 69 66
73 91 85 86 91 100 100 100 100 100 94 68 99 100 76 85 64 78 95 100 96 50 17 5 5 5 5 5 5 5 5 9 28 9 66 100 100 100 100 95 29 19 6 54
100 100 100 100 100 100 100 100 77 33 23 71 92 100 100 100 99 57 53 44 29 16 5 5 5 5 5 5 5 7 36 53 70 94 85 99 95 80 79 78 49 5 92 100

GFSCGP_prec_cloud_075.txt.gz
Cloud_Cover
100 100 100 100 100 100 100 100 14 100 100 100 100 94 100 99 10 65 91 32 100 76 91 86 5 0 0 0 0 0 2 30 54 100 100 100 100 100 100 100 100 100 91 100
100 99 100 100 100 33 100 33 29 97 100 100 100 100 70 78 71 23 20 16 8 24 10 85 84 5 0 0 0 0 0 12 36 55 97 100 100 100 100 100 100 100 100 81
100 100 98 100 99 36 84 100 100 100 100 20 80 89 99 99 80 18 5 5 9 8 56 75 100 50 4 0 0 0 0 0 9 47 96 100 100 100 100 100 100 100 100 100
100 100 91 86 100 87 95 100 67 100 100 100 100 92 98 67 6 10 31 5 7 5 30 63 97 100 20 5 4 0 0 0 16 26 63 96 100 100 100 100 98 100 100 100
100 100 99 100 100 97 76 100 38 27 56 96 100 100 100 100 100 100 47 86 5 74 91 5 18 16 5 5 1 0 0 0 3 33 41 98 100 36 6 0 11 32 71 100
100 100 100 98 100 86 100 76 44 40 100 77 99 52 100 100 81 11 83 5 9 5 5 4 0 5 5 4 0 0 0 2 7 26 21 24 39 26 36 31 22 15 11 25
100 100 100 100 100 72 100 100 50 100 85 100 100 100 100 100 100 97 15 5 6 5 5 5 5 5 5 3 0 0 0 92 94 100 100 97 88 76 59 46 38 41 26 18
100 100 100 100 100 100 100 100 100 100 42 80 100 100 100 100 100 100 54 4 5 5 5 5 5 5 5 2 5 0 4 5 5 14 41 47 100 98 100 100 94 57 37 5
100 100 100 100 100 100 100 100 100 100 65 5 5 72 51 77 47 52 41 19 8 5 5 5 5 5 5 5 5 5 5 5 5 5 5 1 0 0 0 0 0 5 5 5
100 100 100 100 100 100 67 100 96 73 7 13 97 100 72 16 62 12 68 100 100 43 5 5 5 5 5 5 3 6 5 5 5 5 5 4 5 3 0 0 1 4 4 3
100 100 100 100 100 100 100 100 100 100 91 100 29 27 16 5 11 55 81 53 52 100 100 100 91 26 5 5 0 1 4 5 5 5 2 1 0 0 5 5 4 5 5 5
100 100 100 100 100 100 100 100 100 100 48 38 95 76 36 57 94 100 100 41 100 100 100 100 100 100 100 78 20 5 7 11 5 5 5 5 5 5 5 5 5 5 10 18
100 100 100 100 100 100 100 100 99 94 99 86 96 55 98 95 88 98 100 100 100 59 8 11 71 86 99 100 100 100 100 100 100 100 100 100 100 100 100 100 100 100 100 100
100 100 100 91 80 100 100 100 100 100 94 36 66 48 47 57 75 100 100 100 86 86 82 26 5 5 19 98 99 100 100 100 100 100 100 100 100 100 100 100 100 100 100 100
100 100 99 100 100 100 100 99 100 98 88 98 96 100 100 93 100 68 62 93 82 97 100 100 100 100 100 98 96 93 96 75 70 72 68 68 64 66 92 100 100 100 100 100
100 98 96 82 63 88 100 100 100 75 52 7 43 100 100 100 100 100 100 100 83 32 40 78 44 10 32 18 12 6 28 46 5 6 5 7 5 21 42 90 100 100 100 100
100 100 100 99 94 97 94 63 96 100 100 100 100 100 100 100 69 54 61 86 49 98 100 100 100 96 69 26 15 38 72 66 12 8 7 14 50 96 99 100 100 100 100 100
100 99 100 100 100 100 100 100 100 100 100 100 97 100 100 100 100 100 100 100 100 100 92 73 80 69 50 72 64 89 96 47 32 70 99 100 100 100 100 100 81 61 85 67
100 100 100 100 100 98 100 100 100 100 100 100 100 100 100 100 100 100 100 100 100 100 100 100 99 93 95 97 90 98 100 100 100 100 100 100 100 98 68 97 15 30 81 69
100 100 100 100 100 100 100 100 100 100 100 100 100 100 100 100 100 100 100 100 100 100 100 100 100 100 100 100 100 100 100 100 100 100 100 100 93 30 85 57 32 46 88 74
100 100 100 100 100 100 95 100 100 100 100 100 100 100 100 100 100 100 100 100 100 100 100 100 100 100 100 100 100 100 100 100 100 100 100 87 29 80 64 66 77 38 12 35
100 100 100 100 100 100 100 100 100 100 100 100 100 100 100 100 100 100 100 100 100 100 100 100 100 100 100 100 100 100 100 100 98 98 97 94 66 47 8 90 92 9 16 73
100 100 100 100 100 100 100 100 100 100 100 100 100 100 100 100 100 100 100 100 100 100 100 100 100 100 100 100 22 71 100 100 60 10 5 7 53 72 80 100 100 78 73 97
100 100 100 100 100 100 100 100 100 100 100 100 100 100 100 100 100 100 100 100 100 100 100 100 100 100 100 90 30 6 5 5 5 5 5 5 5 13 53 98 100 100 89 68
97 100 80 71 99 100 100 100 100 100 100 100 100 100 100 100 100 100 100 100 100 100 100 100 100 95 80 58 23 5 5 5 21 18 43 49 77 100 98 98 97 70 36 25
77 95 100 100 100 100 100 100 100 100 100 100 100 100 100 43 33 74 89 94 100 74 29 14 10 5 6 11 80 81 14 5 72 99 95 92 97 89 98 100 100 93 54 38

GFSCGP_prec_cloud_078.txt.gz
Cloud_Cover
43 100 71 100 100 100 100 99 100 100 70 86 100 100 100 100 81 100 5 5 38 100 12 5 1 4 80 4 0 0 0 0 49 100 100 100 100 100 100 100 100 100 100 97
42 80 100 100 99 100 97 96 95 100 100 78 100 100 100 93 47 1 4 8 17 70 81 27 38 5 5 20 26 12 2 0 19 50 100 100 100 100 100 100 100 100 100 100
93 92 100 100 100 82 100 100 100 100 100 100 96 99 100 100 100 91 96 18 65 25 5 5 5 5 5 6 38 39 56 5 0 17 95 100 100 100 100 100 100 100 100 100
100 100 100 100 92 100 100 100 71 100 100 98 100 27 9 66 67 78 36 93 11 9 5 2 5 23 5 5 5 5 5 5 3 22 94 100 100 100 100 100 100 100 100 75
95 99 44 100 96 100 100 100 100 100 65 66 24 68 100 100 100 100 45 34 25 63 44 7 6 5 5 5 3 0 0 0 0 0 25 100 100 100 100 100 100 100 100 97
100 100 100 100 100 100 100 43 5 50 100 84 13 47 100 100 100 100 66 61 100 100 80 97 75 5 5 5 1 0 0 0 4 1 10 95 100 100 100 100 97 98 95 86
100 100 94 92 100 100 82 26 5 12 100 41 100 89 100 77 58 73 85 80 89 100 100 100 52 5 5 1 0 0 21 100 97 100 100 100 100 100 100 100 100 100 99 79
100 100 100 89 87 100 100 97 96 96 97 81 100 37 61 98 99 54 87 95 100 100 100 95 59 6 5 1 4 1 0 2 13 46 72 100 100 87 93 98 91 65 28 4
100 100 100 100 100 100 100 100 100 91 38 45 68 98 100 95 100 100 96 95 98 26 9 6 6 5 5 5 5 2 4 5 5 7 16 8 5 5 5 4 5 5 2 0
100 100 100 100 100 100 100 100 100 88 100 82 71 100 100 100 100 96 38 62 35 8 48 5 5 5 5 5 5 5 5 18 45 71 30 5 5 5 5 5 4 5 5 0
100 100 100 100 100 100 100 97 100 100 53 58 100 59 97 100 96 100 52 90 100 100 94 7 5 5 5 5 4 5 5 5 5 5 5 5 3 0 5 1 0 0 0 0
100 100 100 100 100 100 100 100 100 100 12 100 100 45 81 92 70 88 100 100 100 100 100 92 36 33 31 7 5 5 5 5 5 5 5 5 5 5 5 5 8 28 16 34
100 100 100 100 100 100 100 100 100 53 41 14 19 29 66 75 99 100 100 100 88 67 50 100 100 100 100 100 94 64 91 95 98 74 64 61 82 82 100 100 86 16 38 60
100 100 100 100 100 100 100 100 100 100 100 100 100 94 98 90 45 90 100 87 83 99 100 100 72 92 98 100 100 100 100 100 100 100 100 100 100 100 100 100 100 100 100 98
100 100 100 100 98 100 100 100 100 100 98 79 37 54 67 93 91 100 95 92 97 99 100 100 100 100 100 100 100 87 89 99 100 100 100 100 100 100 100 100 94 100 96 73
100 100 100 100 100 100 100 100 100 67 100 5 29 24 100 100 90 75 56 53 99 98 98 99 99 100 100 100 96 72 76 76 99 100 100 100 99 84 24 20 14 5 5 65
100 100 100 100 100 100 100 92 95 100 99 95 48 96 97 99 100 94 95 40 5 9 92 96 69 10 27 41 96 75 40 64 66 94 68 12 18 50 48 20 17 81 98 100
100 100 100 100 100 92 46 100 100 98 100 85 31 47 100 100 100 93 25 5 39 68 94 100 78 100 100 76 70 44 58 78 71 59 66 52 54 21 14 66 74 100 100 100
100 100 100 100 100 72 7 81 92 100 98 100 99 87 98 86 100 98 100 100 100 86 27 72 88 35 40 55 76 73 98 84 87 73 14 30 93 100 100 100 100 100 98 92
100 100 100 100 100 100 100 100 100 100 100 100 100 100 100 100 99 93 100 98 87 100 100 100 100 100 100 100 100 100 100 100 98 100 100 99 100 100 100 100 93 100 100 99
100 100 100 100 100 100 100 100 100 100 100 100 100 100 100 100 100 100 100 100 100 100 100 100 100 100 100 100 100 100 100 100 100 100 91 100 100 97 87 86 98 86 58 53
100 100 100 100 100 100 100 100 100 100 100 100 100 100 100 100 100 100 100 100 100 100 100 100 100 100 100 100 100 100 100 100 97 100 100 100 100 100 99 90 85 97 69 39
100 100 100 100 100 100 100 100 100 100 100 100 100 100 100 100 100 100 100 100 100 100 100 100 100 100 100 100 100 100 100 100 100 100 100 100 99 96 100 91 15 74 99 98
100 100 100 100 100 100 100 100 100 100 100 100 100 100 100 100 100 100 100 100 100 100 100 100 100 100 100 100 100 100 100 100 100 100 99 53 75 52 45 9 17 9 61 100
100 100 100 100 100 100 100 100 100 100 100 100 100 100 100 100 100 100 100 100 100 100 100 100 100 100 100 100 100 100 100 84 74 51 60 41 5 5 5 5 5 5 5 72
98 100 100 100 100 100 100 100 100 100 100 100 100 100 100 100 100 100 100 100 100 100 100 100 100 100 100 100 100 71 28 65 40 5 5 5 6 5 5 5 5 5 5 60

GFSCGP_prec_cloud_081.txt.gz
Cloud_Cover
98 97 100 100 99 95 100 100 100 100 53 52 96 100 79 100 100 100 100 100 100 17 97 6 5 54 18 5 4 4 5 2 44 100 100 100 100 100 100 100 100 100 100 100
86 100 99 100 100 100 100 100 96 8 21 96 100 100 100 61 100 96 100 100 100 96 5 5 5 5 34 5 0 0 0 1 6 19 98 100 100 100 100 100 100 100 100 100
100 100 11 100 100 100 94 100 100 100 83 77 99 100 100 89 10 100 100 100 100 26 5 5 28 11 5 3 0 0 0 0 0 23 68 100 100 100 96 96 100 100 100 100
100 70 100 100 71 100 100 99 100 100 100 100 100 99 100 100 43 91 100 100 91 74 93 100 10 5 5 2 5 1 0 0 0 25 31 100 100 100 100 100 100 100 100 100
98 100 100 79 88 100 100 100 79 100 90 100 74 89 5 92 54 5 98 75 73 96 5 40 6 5 5 4 50 18 2 0 0 0 11 98 100 100 100 100 100 100 100 100
100 100 100 100 100 90 68 74 44 94 100 8 38 74 72 13 82 70 10 100 68 5 45 87 94 100 100 81 71 12 1 2 0 0 16 52 100 100 100 100 100 100 100 100
100 100 100 100 100 52 71 63 14 5 6 83 23 98 100 94 10 84 41 46 67 66 95 100 100 100 100 97 32 100 82 51 19 13 28 84 100 100 100 100 100 100 100 100
100 100 98 100 100 91 84 98 23 78 56 95 100 21 99 100 100 88 94 88 78 94 60 100 100 100 100 66 21 46 8 48 88 100 100 100 100 100 98 93 50 19 6 0
100 100 100 100 100 100 75 36 26 100 100 68 98 26 71 52 82 42 84 98 100 100 22 88 98 100 100 95 35 6 5 4 2 5 5 4 0 0 1 2 5 5 0 0
100 100 100 100 100 100 100 100 100 42 66 75 42 40 90 100 100 90 96 100 85 100 71 100 83 90 27 28 32 8 5 6 5 5 5 4 2 2 5 5 5 5 5 5
100 100 100 100 100 100 100 100 100 37 95 100 100 100 100 98 100 85 77 99 100 100 100 100 90 26 55 85 69 97 71 37 21 5 5 5 5 5 5 5 11 6 5 5
100 100 100 100 100 100 100 100 100 100 100 100 71 99 100 100 100 100 100 100 100 100 100 82 47 36 5 16 16 6 66 20 5 5 5 5 5 5 5 5 5 5 5 12
100 100 100 100 100 94 43 98 100 100 95 100 86 100 100 100 100 100 100 100 100 100 86 95 90 52 97 30 7 33 5 16 5 5 29 61 42 68 95 97 84 83 70 34
100 100 100 100 100 100 100 100 100 100 100 100 52 100 100 100 100 100 100 100 100 100 100 100 100 100 100 97 48 98 100 100 72 51 72 100 100 100 100 100 100 100 100 100
100 96 98 100 100 100 100 100 100 100 93 97 91 86 72 100 93 100 100 100 100 100 100 100 100 90 74 89 100 100 100 100 100 100 100 100 100 100 100 100 100 100 100 100
100 100 82 100 100 100 100 100 100 100 87 75 99 42 100 100 100 100 100 100 100 100 99 87 94 97 100 100 96 31 94 99 100 100 100 100 100 100 100 100 100 56 68 88
100 100 100 100 100 100 100 100 85 98 100 100 91 92 100 100 100 100 100 82 48 6 36 95 73 99 86 6 28 82 81 87 99 100 100 100 100 90 83 33 55 98 100 100
100 100 100 100 100 100 93 100 100 100 100 93 90 100 100 100 100 100 90 92 69 100 100 88 15 44 78 97 100 100 100 100 100 100 100 100 96 33 65 100 100 100 100 100
100 100 100 100 100 100 100 100 100 100 100 100 100 100 100 100 100 98 78 79 95 100 100 95 83 98 100 100 100 100 100 100 100 100 50 50 46 56 92 100 100 100 86 91
100 100 100 100 84 5 9 59 100 100 52 100 100 100 100 100 100 100 100 100 100 100 100 100 100 100 100 100 91 72 92 100 100 90 100 100 100 100 100 95 100 100 100 96
100 100 100 99 81 81 99 100 97 84 74 100 100 100 100 100 100 100 100 100 100 100 100 100 100 100 100 100 100 94 100 100 100 100 100 100 100 100 79 86 98 98 92 32
100 100 100 100 100 100 100 100 100 100 100 100 100 100 100 100 100 100 100 100 100 100 100 100 100 100 100 100 100 95 99 99 100 100 100 100 100 100 100 100 100 100 94 44
100 100 100 100 100 100 100 100 100 100 100 100 100 100 100 100 100 100 100 100 100 100 100 100 100 100 100 100 100 100 100 100 100 100 100 100 100 100 100 100 100 36 5 5
100 100 100 100 100 100 100 100 100 100 100 100 100 100 100 100 100 100 100 100 100 100 100 100 100 100 100 100 100 100 100 100 100 100 100 95 22 5 5 5 5 5 5 5
100 100 100 100 100 100 100 100 100 100 100 100 100 100 100 100 100 100 100 100 100 100 100 100 100 100 100 100 100 100 100 100 100 82 82 68 52 33 5 5 5 5 6 76
100 100 100 100 100 100 100 100 100 100 100 100 100 100 100 100 100 100 100 100 100 100 100 100 100 100 100 100 100 100 86 90 90 42 9 9 5 5 13 48 6 35 5 5

GFSCGP_prec_cloud_084.txt.gz
Cloud_Cover
100 100 44 97 100 89 100 100 100 100 100 100 100 40 97 100 100 100 100 100 100 99 94 100 100 100 43 3 0 0 0 0 0 84 100 100 100 100 100 100 100 100 100 100
100 100 100 100 100 100 100 100 100 100 100 100 100 100 100 31 90 100 92 100 100 100 100 100 100 100 99 1 0 2 0 0 0 0 66 100 100 100 100 100 100 100 100 100
100 100 100 100 99 92 90 100 100 100 75 74 90 90 100 69 54 100 100 100 100 100 100 100 100 100 92 1 8 5 0 0 0 0 19 91 100 99 100 100 100 100 100 100
100 100 100 100 84 39 100 100 100 100 98 100 91 100 8 5 41 100 100 96 86 100 100 100 100 15 70 95 92 5 5 0 0 12 38 98 100 100 100 100 100 100 100 100
100 100 100 100 99 89 92 70 100 100 84 35 79 100 100 66 87 100 100 100 100 100 100 100 100 100 100 80 45 2 6 51 34 37 58 87 100 100 100 100 100 100 100 100
100 100 100 100 100 64 99 97 100 100 100 53 13 5 99 100 37 100 100 100 100 88 37 57 57 55 85 40 5 83 80 54 86 46 92 100 100 100 100 100 100 100 100 100
100 100 100 100 100 100 84 92 68 70 12 76 80 91 100 100 99 100 100 100 52 64 80 63 10 5 10 89 29 76 100 100 100 23 24 91 100 100 100 100 100 100 100 100
100 100 100 100 100 100 100 99 6 56 55 96 22 7 85 100 100 57 11 38 8 15 82 20 43 56 11 95 100 100 100 95 40 100 78 80 100 100 100 100 88 13 4 0
100 100 100 92 57 66 100 40 40 45 99 84 10 16 95 89 100 86 46 6 51 99 100 100 81 100 100 100 100 100 100 68 31 49 28 9 21 5 5 5 3 5 5 5
100 100 100 100 100 77 11 99 33 60 69 38 96 94 100 100 100 100 100 73 72 60 72 58 69 96 68 96 98 100 98 45 16 5 3 5 52 5 5 5 5 5 5 12
100 100 100 100 99 100 92 87 21 92 40 5 5 99 100 100 100 100 100 100 96 97 94 84 47 84 87 85 98 100 100 100 100 100 9 14 5 8 90 68 77 58 20 8
100 100 100 100 100 100 100 100 100 100 100 100 100 100 100 100 100 100 100 100 100 100 72 91 100 98 96 29 98 100 100 86 6 5 15 97 99 90 100 100 100 90 54 75
100 100 100 100 100 100 100 100 100 100 100 100 100 99 100 100 100 100 100 100 100 99 100 100 99 98 100 100 100 96 44 5 5 5 68 96 100 99 100 100 100 91 100 70
100 100 100 100 100 100 100 99 100 100 100 100 17 74 100 100 100 100 100 100 86 100 100 100 100 100 100 98 52 5 6 49 88 87 94 99 95 100 82 100 90 99 95 100
100 100 100 100 100 100 100 100 100 100 100 88 84 93 100 100 100 100 89 100 100 100 100 100 100 100 64 15 5 33 97 100 100 100 60 66 100 100 99 92 69 98 100 100
100 100 100 100 100 100 100 100 100 100 100 100 25 9 72 100 100 100 100 100 100 100 100 100 100 67 60 100 100 100 100 92 100 100 100 100 100 100 100 100 100 100 100 100
100 100 100 100 100 100 100 100 100 100 100 100 100 100 100 100 100 100 100 100 100 100 100 100 100 100 100 100 100 96 72 82 100 100 100 100 100 100 100 100 100 100 100 100
100 100 100 100 100 100 41 100 100 100 100 100 100 100 100 100 100 100 100 100 84 100 100 100 100 100 100 100 100 100 100 100 100 100 100 100 100 100 100 91 100 100 100 100
100 100 100 100 100 100 96 71 92 100 92 100 100 100 100 100 97 15 87 96 100 100 100 99 25 70 100 100 100 100 100 100 100 100 100 97 100 100 98 95 100 100 100 100
100 100 100 100 100 70 98 100 100 100 27 100 100 100 100 100 43 9 100 100 100 100 100 88 100 100 100 100 100 100 100 100 100 100 100 100 76 59 80 100 100 100 100 99
100 100 100 100 100 100 100 100 96 86 57 100 100 100 100 100 100 100 99 86 100 100 100 100 100 100 100 100 100 100 100 100 100 90 93 81 96 100 100 96 40 28 44 100
100 100 100 100 100 100 100 100 100 100 100 100 100 100 100 100 100 100 100 100 100 100 100 100 100 100 100 100 100 100 100 99 100 97 99 100 98 64 6 16 78 100 97 99
100 100 100 100 100 100 100 100 100 100 100 100 100 100 100 100 100 100 100 100 100 100 98 100 100 100 100 100 100 100 100 100 100 100 100 100 92 49 76 64 77 78 95 24
100 100 100 100 100 100 100 100 100 100 100 100 100 100 100 100 100 100 100 100 100 100 100 100 100 100 100 100 100 100 100 100 100 100 100 98 99 100 100 100 62 5 7 12
100 100 100 100 100 100 100 100 100 100 100 100 100 100 100 100 100 100 100 100 100 100 100 100 100 100 100 100 100 100 100 100 100 100 100 100 88 100 100 91 59 21 13 5
100 100 100 100 100 100 100 100 100 100 100 100 100 100 100 100 100 100 100 100 100 100 100 100 100 100 100 100 100 100 100 100 100 100 100 100 100 98 98 64 72 5 5 5

GFSCGP_prec_cloud_087.txt.gz
Cloud_Cover
100 100 100 100 99 100 100 100 100 100 100 100 97 100 100 100 100 100 100 100 34 6 83 100 100 100 100 99 100 100 96 6 0 23 100 100 100 100 100 100 100 100 100 100
100 100 100 100 100 100 100 98 96 100 100 100 100 100 81 85 100 100 100 100 100 95 88 100 100 100 100 100 100 100 100 72 4 4 80 100 100 100 100 100 100 100 100 100
100 100 100 100 100 100 100 100 48 98 95 100 100 100 100 100 100 100 100 100 100 100 99 91 100 100 98 64 100 100 100 41 62 5 3 88 100 100 100 100 100 100 100 100
100 100 100 100 100 100 100 67 100 100 98 100 36 73 100 100 100 100 100 100 100 100 100 100 97 89 100 88 94 100 100 100 95 42 5 90 100 100 100 100 100 100 100 100
100 100 100 100 100 100 100 100 100 100 98 77 16 100 100 100 100 100 100 100 100 100 100 99 100 100 100 100 100 79 100 100 91 5 100 100 100 100 100 100 100 100 100 100
100 100 100 100 100 100 100 100 99 100 93 42 22 100 100 100 100 100 100 100 97 92 100 100 100 100 95 100 100 100 100 43 36 39 100 100 100 100 100 100 100 100 100 100
100 100 100 100 100 100 70 100 100 100 37 100 96 76 100 100 100 100 100 100 100 100 100 100 100 100 100 100 88 5 35 52 85 82 95 100 100 100 100 100 100 100 100 100
100 100 100 100 100 100 100 97 37 33 100 100 100 79 100 100 100 100 100 100 100 100 100 100 81 98 100 47 57 89 67 57 47 98 100 100 100 100 100 100 100 100 80 8
100 100 100 100 100 100 100 95 96 56 100 100 100 100 100 100 100 100 99 99 100 100 73 100 73 13 88 52 43 85 98 100 100 100 43 100 100 100 96 61 4 0 5 5
100 100 100 100 100 100 100 99 87 8 46 100 100 100 100 100 100 100 100 100 100 100 100 99 97 82 100 100 92 99 100 100 100 82 83 100 100 90 54 5 5 5 5 9
100 100 100 100 100 100 100 99 41 94 94 23 100 100 100 100 100 100 100 100 100 100 79 100 87 100 88 100 95 99 90 95 96 81 100 100 78 5 5 5 5 5 5 5
100 100 100 100 100 100 100 100 100 100 61 53 78 100 100 100 100 100 100 100 84 78 100 100 100 100 100 95 80 93 74 99 95 100 100 99 25 5 6 94 92 72 56 5
100 100 100 100 100 92 100 100 100 67 98 99 84 93 100 100 100 100 100 100 100 95 90 97 100 88 97 79 87 36 39 80 88 100 94 52 18 8 85 98 29 8 25 5
100 100 100 100 100 100 100 100 100 100 100 98 73 100 73 100 100 100 100 90 78 62 100 100 100 76 97 100 99 99 100 100 100 100 98 99 99 100 100 92 36 24 5 5
100 100 100 100 100 100 100 100 100 100 100 100 92 34 99 100 100 100 94 100 94 92 95 100 100 96 100 100 100 100 100 99 100 61 98 95 90 84 42 11 6 82 71 14
100 100 100 100 100 100 100 100 100 100 100 70 62 83 62 92 98 100 100 100 100 100 100 100 100 100 100 100 100 100 62 57 98 100 100 100 100 56 25 43 77 100 100 98
100 100 100 100 100 100 100 100 100 100 100 100 50 91 99 100 100 100 100 100 100 100 100 100 100 100 100 100 100 78 62 80 73 47 79 77 93 100 100 100 100 100 100 99
100 100 100 100 100 100 100 100 100 100 100 32 71 100 100 100 100 100 100 100 100 100 100 100 100 100 100 82 71 82 100 84 89 84 100 100 100 99 98 98 100 100 100 50
100 100 100 100 100 100 100 100 100 100 100 100 100 100 100 100 100 100 100 100 100 100 100 100 100 100 60 63 96 100 86 99 96 100 100 100 100 100 100 100 100 100 100 97
100 100 100 100 100 100 100 100 100 100 62 100 100 100 100 100 100 82 100 100 100 100 89 49 62 60 100 98 99 100 100 100 100 100 100 100 100 100 100 100 100 100 99 91
100 100 100 100 100 100 100 100 100 94 100 100 100 100 100 100 100 69 61 15 28 24 93 100 99 87 100 100 83 98 93 100 100 100 100 100 100 100 100 100 88 86 62 98
100 100 100 100 100 100 100 100 100 100 100 100 100 100 100 100 100 100 100 100 100 100 100 100 100 100 100 100 100 100 100 100 100 100 100 100 100 100 100 100 99 96 91 90
100 100 100 100 100 100 100 100 100 100 100 100 100 100 100 100 100 100 100 100 100 100 100 100 100 100 100 100 100 100 100 100 100 100 100 100 100 100 100 100 100 100 68 65
100 100 100 100 100 100 100 100 100 100 100 100 100 100 100 100 100 100 100 100 100 100 100 100 100 100 100 100 100 100 100 100 100 100 100 100 100 100 100 100 100 96 98 100
100 100 100 100 100 100 100 100 100 100 100 100 100 100 100 100 100 100 100 100 100 100 98 100 100 100 100 100 100 100 100 100 100 100 100 100 100 100 100 100 100 100 99 100
100 100 100 100 100 100 100 100 100 100 100 100 100 100 100 100 100 100 100 100 100 100 100 100 100 100 100 100 100 100 100 100 100 100 100 100 100 100 100 100 100 100 100 100

GFSCGP_prec_cloud_090.txt.gz
Cloud_Cover
100 100 100 100 100 100 100 100 100 100 100 100 100 100 100 100 99 100 100 100 100 30 100 98 29 42 94 99 100 100 100 76 95 100 97 100 100 100 100 100 100 100 100 100
100 100 100 100 100 100 100 100 100 100 100 100 100 100 100 100 100 100 100 100 100 100 100 100 100 100 100 100 100 100 100 73 98 38 98 71 100 100 100 100 100 100 100 100
100 100 100 100 100 100 100 100 100 100 88 100 100 98 100 100 89 76 100 100 100 100 100 100 100 100 100 100 100 100 100 87 36 91 61 62 100 100 100 100 100 100 100 100
100 100 100 100 100 100 100 100 100 100 100 82 92 100 100 100 87 14 90 100 100 100 100 88 100 100 100 100 100 100 98 81 36 66 100 74 100 99 100 100 100 100 100 100
100 100 100 100 99 100 100 100 100 100 100 100 28 94 99 59 100 100 100 100 100 100 100 100 100 100 100 99 100 100 100 100 44 18 100 100 100 100 100 100 100 100 100 100
100 100 100 100 100 100 100 100 100 100 100 86 88 6 68 100 100 100 100 100 100 100 100 100 100 100 100 96 100 100 100 100 100 100 100 100 100 100 100 100 100 100 100 100
100 100 100 100 100 100 100 100 100 95 66 3 4 12 100 100 100 100 100 100 100 100 100 100 100 100 94 81 90 100 100 100 100 100 77 100 100 100 100 100 100 100 100 100
100 100 100 100 100 100 100 100 95 5 5 26 5 2 100 100 100 100 100 100 100 100 100 95 100 100 100 23 37 95 100 99 99 96 65 100 100 100 100 100 100 100 100 100
100 100 100 100 100 100 100 99 72 100 98 8 88 100 44 99 100 100 100 100 100 100 100 100 100 100 100 95 38 94 100 94 100 93 70 100 100 100 100 100 100 100 100 55
100 100 100 100 100 100 100 100 100 100 55 23 5 4 74 98 100 100 100 100 100 100 100 100 100 100 100 100 94 98 100 100 98 80 54 86 91 98 100 94 46 35 9 5
100 100 100 100 100 100 100 100 100 100 100 100 99 99 100 100 100 100 100 100 100 100 100 100 100 100 100 100 100 100 99 89 98 96 100 100 100 96 90 72 76 42 30 23
100 100 100 100 100 100 100 100 100 100 100 100 71 100 100 100 100 100 100 100 100 100 100 100 100 100 100 100 100 100 100 100 100 100 100 100 100 66 80 74 22 85 69 100
100 100 100 100 100 99 100 100 100 100 100 100 100 100 46 93 100 100 100 100 100 100 100 100 100 100 100 100 100 100 92 99 19 61 100 100 100 96 41 51 6 22 98 65
100 100 100 100 100 100 100 100 100 100 100 100 100 100 100 100 100 100 100 100 100 100 100 100 100 100 100 96 73 5 96 100 100 100 100 100 100 98 98 84 95 97 18 6
100 100 100 100 100 100 100 100 100 100 100 100 100 79 100 100 100 100 71 95 100 99 100 100 100 100 85 39 75 85 100 100 100 100 100 100 100 96 100 100 70 5 5 5
100 100 100 100 100 100 100 100 100 100 100 93 65 93 100 100 100 92 100 100 94 78 100 100 100 100 100 100 100 100 100 100 100 100 100 100 100 100 100 64 6 5 6 5
100 100 100 100 100 100 100 100 100 100 100 100 18 100 100 100 78 92 100 100 100 42 96 93 67 100 100 100 100 100 100 100 100 92 99 100 100 100 100 62 60 79 7 10
100 100 100 100 100 100 100 100 100 100 100 89 100 100 100 100 100 78 52 100 100 100 100 100 100 100 100 100 100 100 100 100 88 100 100 100 63 40 94 100 100 44 70 72
100 100 100 100 100 100 100 100 100 100 100 100 100 100 100 100 100 99 100 100 100 100 100 100 100 100 100 100 100 100 100 100 100 96 59 5 5 43 100 100 100 100 100 95
100 100 100 100 100 100 100 100 100 100 100 100 100 100 100 100 100 100 100 100 100 100 100 100 100 100 100 100 100 100 98 35 91 99 91 100 100 100 100 100 100 100 100 100
100 100 100 100 100 100 100 100 100 100 100 100 100 100 100 100 100 100 100 100 100 100 100 100 100 100 95 30 10 52 100 100 100 100 100 100 100 100 100 100 100 100 100 100
100 100 100 100 100 100 100 100 100 100 100 100 100 100 100 100 100 100 100 100 98 91 49 22 80 89 96 100 100 100 100 100 100 100 100 100 100 100 100 100 100 100 100 100
100 100 100 100 100 100 100 100 100 100 100 100 100 100 100 100 100 100 96 54 83 97 100 89 100 100 100 100 100 100 100 100 100 100 100 100 100 100 100 100 100 100 100 100
100 100 100 100 100 100 100 100 100 100 100 100 100 100 100 100 100 100 100 100 100 100 100 100 100 100 100 100 100 100 100 100 100 100 100 100 100 100 100 100 100 100 100 100
100 100 100 100 100 100 100 100 100 100 100 100 100 100 100 100 100 100 100 100 100 100 100 100 100 100 100 100 100 100 100 100 100 100 100 100 100 100 100 100 100 100 100 100
100 100 100 100 100 100 100 100 100 100 100 100 100 100 100 100 100 100 100 100 100 100 100 100 100 100 100 100 100 100 100 100 100 100 100 100 100 100 100 100 100 100 100 100

GFSCGP_prec_cloud_093.txt.gz
Cloud_Cover
100 100 100 100 100 100 100 98 100 100 100 100 100 100 100 100 100 84 100 100 100 100 100 100 100 24 91 88 6 97 100 100 100 85 94 100 100 100 100 100 100 100 100 100
100 100 100 100 100 100 100 100 100 100 95 100 100 100 90 100 100 100 67 93 99 100 100 100 64 60 98 100 100 100 98 100 100 100 69 45 42 100 100 100 100 100 100 100
100 100 100 100 100 100 100 97 100 100 100 100 99 100 100 98 97 23 100 100 100 100 100 100 100 100 100 100 100 100 100 100 100 100 100 100 99 100 100 100 100 100 100 100
100 100 100 100 100 100 100 99 100 100 100 100 100 70 100 100 97 4 95 100 100 100 100 100 100 100 100 100 100 100 100 100 100 100 100 51 69 12 100 100 100 100 100 100
100 100 100 100 100 100 100 100 100 100 100 100 100 36 66 99 98 91 79 74 100 100 100 100 100 100 100 100 100 100 100 100 100 88 90 100 100 99 100 100 100 100 100 100
100 100 100 100 100 100 100 100 100 100 100 96 20 9 90 81 100 100 100 100 100 94 100 100 100 100 100 100 100 99 100 100 100 100 100 100 100 100 100 100 100 100 100 100
100 100 89 100 100 100 100 100 100 100 100 37 59 5 5 53 74 100 100 100 98 88 66 100 100 100 100 100 100 100 100 100 100 100 98 100 100 100 100 100 100 100 100 100
100 100 100 100 100 100 100 100 100 87 98 4 18 2 23 18 31 100 100 100 100 100 100 100 100 100 100 100 100 100 100 100 100 100 95 86 100 100 100 100 100 100 100 100
34 99 32 100 100 100 100 100 100 100 100 96 5 18 1 33 45 100 100 100 100 100 100 100 100 100 100 100 100 100 100 100 99 100 100 100 76 100 100 100 100 100 100 100
5 92 38 100 100 100 100 100 100 100 76 100 11 5 98 100 100 98 100 100 100 100 100 100 100 100 100 95 95 100 100 100 100 100 100 100 100 100 100 100 100 100 100 100
6 82 34 91 100 100 100 100 100 100 100 100 100 98 100 100 100 97 57 98 100 100 100 100 100 89 72 98 100 100 100 100 100 100 100 100 100 100 100 100 100 91 100 99
39 95 100 22 100 100 100 100 100 100 94 100 100 100 100 100 100 100 100 100 100 100 100 100 100 100 100 100 100 100 100 100 100 100 100 100 100 100 100 99 38 46 80 100
60 55 99 100 100 100 100 100 100 100 100 100 78 69 100 100 100 100 100 100 100 100 100 100 100 100 100 100 100 100 100 100 100 100 100 100 100 100 100 98 70 55 100 100
100 36 5 1 22 100 100 100 100 100 100 90 55 100 100 100 100 100 100 100 100 85 61 100 100 68 100 100 100 100 100 100 100 100 100 100 100 100 86 78 82 81 100 100
11 5 2 1 5 100 100 100 100 100 100 100 100 100 100 100 100 100 100 100 98 34 73 100 100 78 94 99 100 100 100 100 100 100 100 100 100 100 100 65 92 100 100 100
21 5 5 100 100 100 100 100 100 100 100 100 86 59 100 100 100 100 100 100 100 100 80 98 60 74 72 97 100 100 100 100 100 100 100 100 100 100 100 100 100 100 100 100
81 21 94 55 100 100 100 100 100 100 100 100 91 100 100 100 100 100 100 100 100 90 68 49 48 67 33 99 100 100 100 100 100 100 100 100 100 100 100 100 100 100 100 100
100 100 100 98 100 100 100 100 100 100 100 100 100 100 100 100 100 100 100 100 100 87 47 55 95 97 100 100 100 100 100 100 100 100 100 100 100 98 100 100 100 100 100 99
100 100 100 100 100 99 100 100 100 100 100 100 100 100 100 100 100 100 100 100 100 100 100 100 100 100 100 100 100 100 100 100 100 100 100 100 100 100 100 100 100 100 97 89
100 100 100 98 100 9 99 100 100 100 100 100 100 100 100 100 100 100 100 100 100 100 100 100 100 100 100 100 100 100 100 100 100 100 100 100 100 100 100 100 100 100 100 100
100 100 86 92 74 5 22 100 100 100 100 100 100 100 100 100 100 100 100 100 100 100 100 100 100 100 100 100 100 100 100 100 100 100 100 100 100 100 100 100 100 100 100 100
100 100 100 100 86 29 5 100 100 100 100 100 100 100 100 100 100 100 100 100 100 100 100 100 100 100 100 100 100 100 100 100 100 100 100 100 100 100 100 100 100 100 100 100
100 100 100 100 100 100 100 100 100 100 100 100 100 100 100 100 100 100 100 100 100 100 100 100 100 100 100 100 100 100 100 100 100 100 100 100 100 100 100 100 100 100 100 100
100 100 100 100 100 100 100 100 100 100 100 100 100 100 100 100 100 100 100 100 100 100 100 100 100 100 100 100 100 100 100 100 100 100 100 100 100 100 100 100 100 100 100 100
100 100 100 100 91 100 100 100 100 100 100 100 100 100 100 100 100 100 100 100 100 100 100 100 100 100 100 100 100 100 100 100 100 100 100 100 100 100 100 100 100 100 100 100
100 100 100 100 100 97 100 100 100 100 100 100 100 100 100 100 100 100 100 100 100 100 100 100 100 100 100 100 100 100 100 100 100 100 100 100 100 100 100 100 100 100 100 100

GFSCGP_prec_cloud_096.txt.gz
Cloud_Cover
100 100 100 100 100 100 100 100 100 100 100 100 100 100 5 100 100 98 100 100 100 100 100 99 100 100 99 100 90 72 92 100 100 100 100 100 100 100 100 100 100 100 100 100
100 100 100 100 100 100 100 100 100 100 100 95 100 100 88 100 100 100 100 99 100 100 100 100 93 100 100 100 91 65 98 100 100 100 100 100 100 100 100 100 100 100 100 100
100 100 99 100 100 100 100 100 100 100 100 100 99 100 90 97 100 100 100 100 100 100 100 95 79 100 61 100 100 100 100 100 100 100 100 100 100 100 100 100 100 100 100 100
100 100 99 100 100 100 100 100 100 100 100 100 95 39 42 5 76 100 100 100 100 100 100 100 100 95 100 68 99 100 100 100 100 100 100 100 100 100 100 93 100 100 100 100
100 100 76 100 100 96 100 100 100 100 100 98 100 15 77 5 97 70 100 100 100 100 100 100 100 84 100 100 100 100 100 100 100 100 100 100 100 100 100 100 100 100 100 100
100 100 100 98 100 100 100 100 100 100 100 99 47 77 95 38 100 98 100 100 100 100 82 100 33 78 100 100 100 100 100 100 100 100 100 100 100 100 100 100 100 100 100 100
100 100 100 100 100 100 100 100 100 100 100 38 15 75 96 100 100 100 100 100 100 93 6 65 93 98 88 80 87 100 100 100 100 100 100 100 100 100 100 100 100 100 100 100
100 100 100 100 100 95 100 100 100 100 100 99 99 29 99 100 100 100 100 100 70 49 95 100 98 97 100 87 100 100 100 100 100 100 100 100 100 100 100 100 100 100 100 100
100 100 100 100 100 100 100 100 100 100 100 100 100 100 62 97 54 98 100 100 100 100 100 100 100 100 100 100 100 100 100 100 100 100 100 100 100 100 100 100 100 100 100 100
98 100 100 100 100 100 100 82 100 100 100 100 75 98 100 98 100 82 100 100 100 100 100 100 100 100 100 100 100 100 100 100 100 100 100 100 100 100 100 100 100 100 100 100
100 100 100 100 100 100 100 100 100 100 100 100 100 94 100 100 100 99 100 100 100 100 100 100 100 44 8 60 100 100 100 100 100 100 100 100 100 100 100 100 100 100 100 100
100 100 100 100 100 100 90 44 89 98 100 100 100 100 100 100 100 100 100 100 100 100 100 100 75 41 30 34 56 93 100 100 100 100 100 100 100 100 100 100 100 100 100 100
100 100 100 100 100 99 65 45 16 87 100 100 100 100 100 100 100 100 100 100 100 100 100 100 100 100 100 100 98 80 88 100 100 100 100 100 100 100 100 100 100 100 100 100
100 100 100 100 86 100 100 40 64 99 100 100 100 100 100 100 100 100 100 100 100 100 100 100 100 100 100 98 22 86 100 100 100 100 100 100 100 100 100 100 100 100 100 100
80 98 100 100 98 100 100 70 5 39 6 90 100 100 100 100 100 100 100 100 100 100 100 100 100 100 21 20 86 42 86 100 100 100 100 100 100 100 100 100 100 100 100 92
46 86 100 100 100 100 100 84 6 5 5 6 100 100 100 100 100 100 100 100 100 100 100 100 90 23 76 100 100 100 66 100 100 100 100 100 100 100 100 100 100 99 100 100
100 100 98 100 100 100 63 5 35 5 0 0 99 100 100 100 100 100 100 100 100 100 100 100 100 16 69 98 100 94 100 90 100 100 100 100 100 100 100 100 100 100 100 100
78 82 96 93 100 100 5 0 0 0 0 0 86 100 100 100 100 100 100 100 100 100 100 100 100 100 100 100 99 100 82 100 100 100 100 100 100 100 100 100 100 100 100 100
82 100 100 100 62 2 0 0 0 0 0 0 7 100 100 100 100 100 100 100 100 100 100 100 100 100 100 100 100 100 100 100 100 100 100 100 100 100 100 100 100 100 100 100
100 100 100 92 51 32 0 0 0 3 0 1 0 52 100 100 82 64 100 100 100 100 100 100 100 100 100 100 100 100 100 100 100 100 100 100 100 100 100 100 100 100 100 100
95 100 72 80 56 5 3 6 26 0 11 39 57 98 100 100 100 100 100 100 100 100 100 100 100 100 100 100 100 100 100 100 100 100 100 100 100 100 100 100 100 100 100 100
92 91 74 84 83 40 27 87 100 99 100 100 100 100 100 100 100 100 100 100 100 100 100 100 100 100 100 100 100 100 100 100 100 100 100 100 100 100 100 100 100 100 100 100
18 74 97 100 100 45 100 100 100 100 100 100 100 100 100 100 100 100 100 100 100 100 100 100 100 100 100 100 100 100 100 100 100 100 100 100 100 100 100 100 100 100 100 100
5 95 69 49 86 100 90 100 100 100 100 100 100 100 100 90 100 100 100 100 100 100 100 100 100 100 100 100 100 100 100 100 100 100 100 100 100 100 100 100 100 100 100 100
38 97 16 22 100 100 100 100 100 100 100 100 100 100 100 100 100 100 100 100 100 100 100 100 100 100 100 100 100 100 100 100 100 100 100 100 100 100 100 100 100 100 100 100
91 67 26 94 94 100 100 100 100 100 100 100 100 100 100 100 100 100 100 100 100 100 100 100 100 100 100 100 100 100 100 100 100 100 100 100 100 100 100 100 100 100 100 100

GFSCGP_prec_cloud_102.txt.gz
Cloud_Cover
100 74 73 100 100 100 100 100 100 100 100 100 97 100 100 29 16 5 5 5 5 4 65 96 66 97 100 100 90 22 98 100 100 100 100 40 88 76 55 99 100 100 100 91
96 97 100 100 100 100 100 100 100 100 100 95 83 100 85 56 5 5 5 11 85 5 7 39 83 84 100 95 87 100 100 100 100 38 100 100 100 34 30 61 100 100 100 100
100 100 100 100 100 100 100 100 100 100 100 100 51 82 100 100 95 5 5 9 5 6 8 58 46 100 64 12 8 100 100 100 100 96 13 100 78 80 95 100 100 100 100 100
100 96 100 100 100 100 100 100 100 100 100 100 100 100 100 100 31 4 5 5 94 92 68 69 45 77 96 28 15 5 100 100 100 100 91 98 83 69 32 92 85 100 100 100
84 75 85 100 100 100 100 100 100 100 100 99 100 93 37 81 100 100 56 90 53 100 41 100 100 100 79 99 100 97 100 100 100 100 100 51 29 80 100 100 100 100 100 23
100 100 100 100 100 100 100 100 100 100 100 100 100 100 100 58 100 100 100 95 98 98 75 64 91 100 100 95 100 89 100 100 100 100 92 100 100 99 57 91 100 100 100 77
100 100 100 100 100 100 100 100 100 100 100 94 96 99 100 100 100 100 100 100 100 100 99 96 85 25 100 100 100 97 100 100 75 83 100 100 100 98 27 64 98 100 100 100
100 100 77 100 29 88 100 100 100 100 86 94 100 75 100 100 100 100 100 100 100 100 100 100 100 100 100 100 100 100 100 100 100 100 100 100 97 100 98 81 89 71 100 100
100 100 100 100 100 100 100 100 100 100 100 93 9 99 100 100 100 100 86 86 100 100 97 86 100 100 100 100 100 52 100 100 90 100 100 95 20 30 40 39 70 91 100 100
100 100 100 100 100 100 100 100 100 100 90 92 5 79 100 100 100 100 100 100 71 28 31 100 100 100 94 99 100 100 37 70 92 91 100 100 100 100 100 100 100 100 100 85
100 100 100 100 100 100 100 100 100 100 100 67 10 9 100 100 100 100 100 100 100 100 25 9 100 100 100 97 100 98 97 39 52 100 75 87 100 100 100 100 100 100 100 100
100 100 100 100 100 100 100 100 100 100 100 91 89 25 26 82 100 100 100 100 100 100 100 99 26 100 100 85 100 100 98 100 100 100 90 94 95 100 100 100 100 92 100 100
100 100 100 100 100 100 100 100 100 100 91 67 22 31 100 66 100 100 100 100 100 100 88 40 100 96 75 86 99 100 62 35 100 100 100 100 100 100 100 100 100 100 100 100
100 100 100 100 100 100 100 100 100 100 91 7 5 4 0 5 2 58 96 100 100 41 6 5 7 53 5 6 80 93 100 61 47 100 100 100 100 100 100 100 100 100 100 100
100 100 100 100 100 100 100 100 97 100 30 49 4 0 5 5 5 5 5 10 92 98 76 56 47 12 5 60 84 93 100 100 100 77 100 100 100 99 100 100 100 100 100 100
68 97 100 100 100 100 100 98 85 21 29 5 5 5 63 5 16 5 0 0 3 5 5 73 89 13 57 44 42 99 96 100 100 100 100 100 100 100 100 100 100 100 100 100
45 43 93 100 94 60 83 100 100 95 87 5 8 89 88 0 0 5 0 0 0 5 5 5 6 5 5 5 99 100 100 100 100 100 100 100 100 100 100 100 100 100 100 100
100 85 52 5 5 48 5 29 89 100 18 5 5 87 9 0 1 0 0 0 2 0 4 2 29 27 5 5 1 89 100 100 100 100 100 100 100 100 100 100 100 100 100 100
5 58 16 5 5 4 4 5 5 5 96 8 5 70 88 5 4 5 0 0 0 0 0 3 4 5 5 1 0 0 70 100 100 100 100 100 100 100 100 100 100 100 100 100
5 1 6 22 14 5 0 4 4 0 1 3 2 5 5 5 0 5 0 0 0 3 0 0 0 5 6 5 5 4 5 100 100 100 100 100 100 100 100 100 100 100 100 100
57 70 6 5 5 4 0 0 0 0 1 0 2 1 0 0 0 5 0 0 0 0 0 0 0 5 8 52 94 100 100 100 100 100 100 100 100 100 100 100 100 100 100 100
11 10 55 54 17 4 0 0 2 1 2 0 2 12 5 5 5 5 2 0 0 0 0 0 0 5 6 84 95 100 100 100 100 100 100 100 100 100 100 100 100 100 100 100
0 0 2 2 2 0 0 0 0 0 0 0 0 5 5 5 5 5 4 5 1 2 5 5 5 6 15 53 94 100 100 100 100 100 100 100 100 100 100 100 100 100 100 100
0 2 0 0 0 0 0 0 0 0 0 0 0 0 3 0 0 0 1 4 2 5 5 8 21 5 5 7 100 100 100 100 100 100 100 100 100 100 100 100 100 100 100 100
4 3 4 0 0 2 4 0 14 12 1 0 1 0 5 5 5 5 3 5 5 18 33 85 94 100 100 100 100 100 100 100 100 100 100 100 100 100 100 100 100 100 100 100
4 4 3 5 5 7 5 4 5 2 1 0 4 5 4 5 5 12 46 85 82 100 100 100 100 100 100 100 100 100 100 100 100 100 100 100 100 100 100 100 100 100 100 100

GFSCGP_prec_cloud_105.txt.gz
Cloud_Cover
88 100 100 100 100 100 100 100 100 100 100 100 100 100 100 69 49 9 35 72 5 5 5 5 5 5 82 100 100 76 100 100 100 5 69 10 100 100 72 16 56 36 5 72
100 97 100 100 100 100 100 100 100 100 100 100 100 100 100 23 6 20 5 19 8 5 5 5 5 1 5 90 24 98 89 100 97 99 100 100 88 40 2 6 82 38 19 8
98 93 100 100 100 100 100 100 100 100 100 100 100 100 100 66 56 19 5 28 51 5 5 7 79 18 40 100 65 93 46 71 80 99 100 100 100 100 99 100 84 72 5 76
100 86 100 100 100 100 100 100 100 100 100 100 100 100 100 99 8 6 91 9 58 25 11 21 31 81 100 88 5 5 16 19 22 6 100 100 100 100 64 88 30 47 95 100
60 48 100 100 100 100 100 100 100 100 100 100 100 100 100 100 72 100 100 100 100 94 96 46 68 59 74 6 16 82 94 86 43 12 100 100 100 100 100 100 100 100 100 76
100 100 100 100 100 100 100 100 100 100 100 100 100 100 100 100 100 100 100 94 70 99 82 32 95 42 17 16 20 36 88 100 85 99 100 100 100 100 100 100 100 100 100 79
100 100 100 100 100 100 100 100 100 100 100 90 100 100 100 100 100 100 100 100 100 100 94 66 14 68 88 100 94 56 5 87 100 100 100 100 79 74 100 100 92 100 100 99
100 100 98 100 100 100 100 100 100 100 59 100 100 100 100 100 100 100 100 100 69 99 98 90 30 64 96 60 86 100 97 84 91 100 100 100 100 26 54 54 30 100 100 100
100 100 100 100 100 100 100 100 100 100 100 100 94 100 100 100 100 76 100 100 6 4 100 100 86 18 59 73 99 76 99 100 75 100 99 100 100 100 100 100 100 100 93 98
100 100 100 100 100 97 96 100 100 100 100 100 100 100 100 100 100 100 86 92 97 5 7 83 100 100 100 77 50 89 90 97 98 100 100 100 97 98 90 75 100 84 100 100
100 100 100 100 100 100 100 100 100 100 100 71 100 100 100 100 100 100 100 100 92 83 36 18 63 58 100 100 74 52 15 5 8 48 96 100 100 100 100 100 100 100 100 94
100 100 100 100 100 100 100 100 100 100 100 100 100 100 100 100 100 100 100 100 98 5 6 10 82 6 17 42 100 81 78 13 94 33 49 54 97 100 100 100 100 100 100 100
100 100 100 100 100 100 100 100 100 100 100 100 86 96 100 100 100 100 100 100 100 96 5 5 5 5 20 20 42 6 5 28 27 94 91 93 93 94 100 100 100 100 100 100
100 100 100 100 100 100 100 100 100 98 87 59 20 100 100 100 100 100 100 100 100 5 5 5 5 6 5 9 5 80 100 62 24 5 42 27 100 100 100 100 100 100 100 100
100 100 100 100 100 100 100 100 100 100 81 45 13 33 100 100 100 100 100 100 100 100 100 56 7 5 11 11 54 11 13 98 100 44 73 93 100 100 100 100 100 100 100 100
100 100 100 100 100 100 100 100 100 100 100 85 45 8 100 100 50 100 72 5 5 65 100 46 38 6 0 0 5 76 75 89 24 60 26 39 15 100 100 100 100 100 100 100
100 100 100 100 100 100 100 100 100 100 100 100 84 100 100 15 5 5 3 10 6 5 4 4 5 5 0 0 0 0 0 2 1 33 26 10 33 96 99 100 100 100 100 100
100 100 100 100 100 100 100 100 100 100 100 100 100 100 100 94 5 0 5 2 0 2 1 0 0 0 0 0 2 3 0 0 0 8 17 9 9 95 100 100 100 100 100 100
100 100 100 100 100 100 100 100 100 100 100 100 100 100 100 56 2 20 6 5 4 0 0 0 0 0 0 0 0 0 0 0 5 26 12 12 29 68 100 100 100 100 100 100
100 100 100 98 33 74 100 100 100 100 100 100 100 100 100 19 5 5 2 0 0 0 0 0 0 0 0 0 0 0 0 5 5 46 18 11 43 100 100 100 100 100 100 100
94 100 43 76 84 9 0 5 46 68 47 99 91 53 40 13 5 5 0 0 0 0 0 0 0 0 0 0 0 0 3 5 20 25 90 100 73 56 100 100 100 100 100 100
100 97 64 100 21 3 0 0 3 27 2 1 5 4 5 5 5 4 0 0 0 0 0 0 0 0 0 1 3 0 0 7 21 24 46 78 98 99 97 100 100 100 100 100
100 100 100 97 10 5 0 0 0 0 0 0 0 0 0 0 0 0 0 0 0 0 0 0 11 4 4 13 20 62 11 22 6 7 30 95 68 78 100 100 100 100 100 100
100 100 100 87 5 0 0 0 0 0 0 0 0 0 0 0 0 0 0 0 0 0 0 0 0 0 5 34 100 96 40 5 14 90 100 100 85 47 97 100 100 100 100 100
99 100 28 67 3 0 0 0 0 0 0 0 0 0 0 0 0 0 0 0 1 1 1 5 5 5 9 5 9 18 20 11 95 100 72 99 98 97 100 86 100 100 100 100
99 96 7 5 2 0 0 0 0 0 0 0 0 0 0 0 0 0 0 3 5 5 5 5 5 5 6 5 6 24 31 86 66 99 100 95 100 98 100 100 100 100 100 100

GFSCGP_prec_cloud_108.txt.gz
Cloud_Cover
94 53 32 69 100 100 100 100 100 100 100 99 44 100 97 92 65 100 86 61 35 86 54 80 67 100 92 6 5 29 70 100 100 70 100 92 97 100 100 100 100 5 13 4
100 93 3 100 99 100 100 100 100 100 100 100 96 100 98 24 49 55 92 62 40 57 54 12 21 24 64 5 5 5 84 85 36 5 88 100 100 64 100 100 100 100 100 99
97 58 70 100 100 84 100 100 100 100 100 100 100 100 100 87 15 59 60 97 57 66 52 95 14 72 9 87 8 5 5 28 6 12 18 92 31 30 11 46 58 100 100 100
87 100 98 100 100 90 100 100 100 100 100 100 100 100 100 100 79 75 100 100 82 8 22 8 60 49 62 14 5 23 5 5 98 100 99 48 100 69 5 88 100 100 100 100
76 96 99 100 51 100 100 100 100 100 100 100 100 100 100 100 76 100 100 76 12 5 5 16 39 25 6 5 5 5 6 18 23 14 86 94 100 71 73 94 100 100 100 100
90 98 100 100 100 100 100 100 100 100 100 100 100 100 100 97 100 100 100 92 86 43 7 14 38 5 95 82 83 55 54 6 15 16 28 93 100 100 60 40 100 100 100 100
100 100 98 100 100 100 100 100 100 100 100 99 98 100 100 100 100 100 100 100 56 36 5 56 5 20 5 28 60 25 97 70 23 100 95 88 99 100 100 100 100 100 100 100
100 100 100 100 100 90 97 100 100 100 57 100 100 98 100 100 100 100 100 100 86 98 5 5 5 9 74 49 91 16 82 56 47 85 100 25 5 100 99 99 93 100 100 100
100 100 80 83 100 100 100 98 100 100 100 100 100 100 100 100 100 96 70 100 100 100 100 100 100 52 54 100 61 25 60 92 47 26 5 7 49 100 100 100 95 100 100 100
100 100 100 100 100 100 100 100 100 98 100 100 100 100 100 100 100 100 100 97 92 100 100 100 96 100 100 100 100 98 5 5 5 5 5 32 76 75 92 100 68 100 100 100
100 100 100 100 100 100 100 90 100 42 100 100 100 100 100 100 100 100 100 100 96 77 83 42 19 9 14 67 100 94 100 72 10 5 5 60 12 5 24 44 73 100 69 97
100 100 100 100 93 100 100 100 100 100 100 100 100 100 100 100 100 100 100 100 100 89 59 61 100 74 98 48 74 34 20 94 100 99 98 67 84 80 92 64 100 40 96 100
100 100 100 100 100 100 100 100 100 100 100 99 100 100 100 100 100 100 100 100 100 100 58 15 6 6 61 45 71 100 46 6 5 7 7 43 96 98 97 85 81 65 83 100
100 100 78 52 47 85 100 100 100 100 99 99 58 100 100 100 100 100 100 100 100 100 100 99 69 44 43 33 7 7 85 100 100 100 74 15 21 28 50 69 100 100 100 100
100 100 94 100 100 100 100 100 100 100 100 100 100 100 100 100 100 100 100 100 100 100 100 100 100 94 84 42 51 10 5 5 4 4 5 5 5 6 38 100 100 100 100 100
100 100 71 100 100 100 100 100 100 100 100 100 100 100 100 100 100 100 99 100 100 100 100 100 100 65 100 100 100 100 99 70 5 5 0 2 3 46 72 100 100 100 100 100
100 100 100 100 100 100 100 100 100 100 100 100 100 100 100 100 42 5 6 97 97 100 100 100 100 100 100 92 98 38 9 5 5 4 0 0 3 46 64 86 100 100 100 100
100 100 100 100 100 100 55 100 100 100 100 100 100 100 100 98 65 8 70 100 100 100 100 100 100 100 100 100 100 100 96 9 5 0 1 11 11 14 36 67 100 100 100 100
100 100 100 100 100 100 12 91 100 100 100 100 100 100 100 100 96 75 100 78 100 100 100 100 100 100 100 100 100 100 99 37 5 5 10 13 18 44 98 100 100 100 100 100
100 100 100 100 100 100 99 100 100 100 100 100 100 100 100 100 99 100 97 52 11 32 63 95 100 52 58 53 23 22 32 23 27 5 5 5 9 45 100 100 100 100 100 100
100 100 100 100 100 98 96 100 100 100 100 100 100 100 100 100 100 100 100 100 100 100 100 90 44 17 7 5 5 5 46 27 9 5 8 23 26 79 100 100 100 100 100 100
93 100 100 100 86 81 70 25 60 100 91 100 100 100 93 98 100 100 100 99 24 9 7 5 6 29 5 5 3 3 10 12 26 27 17 19 65 61 98 100 100 100 100 100
100 100 100 98 83 89 99 5 21 5 0 2 5 20 100 100 99 99 14 6 5 5 5 3 3 0 1 8 8 44 46 20 16 6 38 61 78 98 100 100 100 100 100 100
100 100 100 100 100 100 100 100 100 92 5 3 1 0 2 4 4 4 0 0 0 4 12 7 3 5 32 11 24 44 20 14 53 24 34 26 17 21 73 100 100 100 100 100
100 100 100 100 100 6 32 5 1 0 0 0 0 0 0 0 0 0 0 0 1 5 5 5 6 16 43 6 20 30 36 17 93 10 19 19 14 8 8 65 100 100 100 100
100 100 100 100 100 98 100 100 57 6 0 0 0 0 0 0 0 0 7 5 5 6 5 5 6 9 25 5 59 49 24 18 15 10 37 99 95 97 57 10 10 81 100 100

GFSCGP_prec_cloud_111.txt.gz
Cloud_Cover
100 98 91 100 100 100 100 56 8 100 100 100 100 90 5 56 54 98 47 55 71 5 12 5 88 66 100 100 100 100 100 100 81 49 64 92 48 95 100 100 56 5 90 100
86 99 84 100 100 100 100 71 20 80 100 100 100 100 50 74 64 92 98 89 100 58 31 51 15 8 5 34 89 100 100 68 98 16 32 84 100 44 6 96 32 5 5 11
99 73 100 100 100 100 100 67 39 79 100 100 100 100 10 16 18 55 83 83 32 42 53 6 5 5 5 4 4 11 53 26 5 95 72 77 93 87 66 26 51 100 98 14
59 31 86 100 100 99 100 100 100 100 100 100 100 100 100 42 98 11 97 100 91 88 100 97 25 20 29 50 44 5 6 17 24 11 29 47 92 100 53 97 63 100 100 100
100 100 98 19 67 100 100 100 100 100 100 80 100 100 100 77 5 60 100 95 99 46 100 100 100 24 5 37 6 25 10 16 5 5 8 69 72 100 100 100 100 100 100 100
6 96 100 99 100 100 100 100 100 100 100 99 33 100 100 100 98 100 96 38 56 37 96 90 99 72 58 64 7 71 90 68 21 100 62 98 100 87 97 92 100 100 100 98
72 23 100 100 100 100 98 100 100 100 100 83 14 38 100 100 100 100 25 50 14 50 25 78 91 100 98 97 27 11 31 95 63 90 100 100 100 100 100 100 100 100 99 100
100 100 27 100 82 17 2 92 100 88 36 8 98 29 100 100 100 100 100 9 25 100 96 100 95 51 100 93 60 36 64 98 91 62 100 100 100 100 99 68 92 98 100 100
100 100 39 88 22 48 85 84 64 100 100 6 5 4 100 100 100 100 100 100 63 100 100 94 23 41 35 86 86 28 56 100 58 96 51 76 62 98 100 100 100 100 80 89
11 98 100 100 97 100 87 25 100 100 30 57 3 4 5 100 100 100 100 99 97 100 100 100 51 30 33 61 78 51 62 98 89 90 95 100 100 96 80 51 78 82 100 56
100 60 100 100 100 100 31 90 62 36 15 9 5 4 42 36 100 100 100 100 97 45 67 100 100 100 100 100 43 98 97 100 100 100 100 100 100 100 100 80 85 59 5 12
100 100 100 100 100 99 35 38 89 99 29 5 5 1 6 9 100 100 100 100 100 100 69 68 100 95 78 100 100 100 100 100 100 100 100 100 100 100 100 100 100 5 6 32
100 100 100 100 100 100 98 67 100 97 98 43 28 23 93 100 96 100 100 100 100 100 100 100 100 100 99 100 100 100 100 100 100 100 100 100 100 24 27 5 5 7 18 40
100 100 86 100 100 98 30 27 65 25 86 1 2 6 5 75 100 100 100 100 100 100 100 100 100 100 100 100 100 100 100 100 95 68 62 58 13 5 6 20 6 20 62 100
100 100 100 100 100 100 96 100 100 100 53 93 2 32 100 100 100 100 100 100 100 100 100 100 100 100 100 100 100 100 100 100 90 61 98 100 100 81 5 5 6 44 99 100
96 81 91 100 65 100 100 100 97 47 99 98 97 38 79 100 98 53 100 100 100 100 100 100 100 100 100 100 100 100 100 100 60 100 95 48 100 100 78 100 100 98 100 100
100 100 100 100 100 100 100 20 90 29 48 5 14 10 100 100 100 100 100 100 100 100 100 100 100 100 100 100 100 100 100 100 100 100 100 88 100 100 100 100 100 100 100 100
100 100 100 100 100 100 47 74 3 5 83 96 22 70 100 100 100 100 100 100 100 100 100 100 100 100 100 100 100 100 95 90 89 24 17 22 58 90 49 98 98 100 96 100
100 100 100 100 100 100 91 10 31 8 28 85 89 100 100 100 100 100 100 100 100 100 100 100 100 100 100 100 100 100 100 100 100 97 87 69 56 98 97 98 100 91 100 100
100 100 100 100 100 100 99 100 100 100 63 100 59 100 100 100 88 79 100 100 100 100 100 100 100 100 100 100 100 100 100 100 100 100 100 100 100 100 91 100 100 100 100 100
100 100 100 100 100 100 100 99 100 100 3 100 100 100 100 100 100 100 100 97 99 100 100 100 100 100 100 100 100 100 100 100 100 100 100 100 100 100 100 100 100 100 100 100
100 100 100 100 100 100 100 100 100 76 100 100 100 100 100 94 100 100 100 100 100 100 100 82 74 93 100 96 96 58 72 73 75 85 83 90 100 100 100 100 100 100 100 100
100 100 100 100 100 100 100 100 100 100 63 98 100 90 100 100 100 100 100 98 100 100 100 100 85 60 44 44 54 97 77 34 11 19 74 100 85 100 100 100 100 100 100 100
100 100 100 100 100 100 80 100 100 79 16 13 29 98 100 100 95 24 100 100 100 40 26 6 6 44 66 31 66 98 86 100 86 31 40 31 21 28 76 100 100 100 100 100
100 100 100 100 100 100 100 100 100 100 65 100 39 4 74 96 100 100 27 17 33 30 15 6 21 82 90 11 53 61 30 8 5 5 11 15 52 70 14 21 76 99 100 100
100 100 100 100 100 100 100 100 98 5 54 100 95 36 58 98 31 5 56 32 13 25 5 36 62 30 66 37 87 92 73 15 5 7 7 17 57 67 49 13 5 5 5 5

GFSCGP_prec_cloud_114.txt.gz
Cloud_Cover
100 97 68 100 100 100 92 12 43 5 72 2 2 100 10 90 100 100 100 32 74 41 5 5 6 5 15 100 100 100 100 100 100 100 24 77 100 57 81 97 7 5 11 98
98 83 92 100 100 100 99 29 38 97 18 4 5 26 100 22 98 20 100 100 52 58 6 7 5 8 5 16 100 100 100 100 100 100 100 100 82 12 20 36 93 87 50 29
56 25 100 100 100 100 100 100 100 98 100 0 5 1 5 12 61 37 98 11 89 100 98 37 23 98 54 10 26 81 100 98 100 100 99 94 95 54 29 26 81 100 100 100
29 5 36 100 100 100 100 100 100 100 100 56 5 18 5 69 41 76 100 99 99 71 31 38 98 100 100 80 5 11 86 90 47 24 89 6 63 66 40 57 20 24 14 30
47 100 100 100 100 100 100 100 100 100 100 99 100 74 5 8 6 100 97 100 98 100 100 69 92 100 61 26 31 36 93 62 36 5 17 99 100 85 95 100 83 98 92 100
100 91 90 33 72 100 100 100 100 100 100 93 5 59 5 24 78 100 95 82 100 100 100 100 62 53 88 100 100 82 19 67 81 85 76 100 78 28 66 73 99 100 97 100
94 31 100 79 100 100 89 99 100 100 98 23 5 8 0 100 91 100 100 99 89 100 100 100 100 100 100 96 100 90 100 52 74 90 90 95 100 100 98 98 99 96 92 100
68 6 12 72 100 77 100 100 100 100 84 5 93 20 0 23 100 100 100 100 100 100 98 100 100 100 100 100 28 84 88 93 96 64 99 99 98 100 100 100 87 78 99 64
99 63 5 3 16 100 99 98 98 100 68 46 5 0 0 1 100 100 100 100 100 100 94 100 100 100 100 100 73 94 97 100 100 99 100 99 88 100 100 100 96 100 100 100
10 94 81 41 42 33 52 57 97 100 47 19 1 2 0 0 61 100 100 91 100 100 100 100 85 100 100 100 99 64 82 100 100 100 100 100 100 100 100 96 100 100 100 91
58 9 86 100 100 100 100 100 100 94 83 16 5 1 0 3 9 88 100 98 59 67 100 100 97 38 100 100 100 93 92 100 100 100 100 100 100 100 96 91 100 100 98 100
32 5 6 8 67 98 98 96 37 100 9 5 5 1 0 0 70 100 100 100 100 86 68 100 100 22 100 100 100 100 100 100 100 100 100 100 100 100 100 100 100 100 100 100
19 34 61 93 69 100 100 100 77 66 44 6 25 1 0 0 6 100 100 100 100 100 58 6 8 53 94 100 100 100 100 100 100 100 100 100 100 100 100 100 100 100 99 100
64 14 75 12 10 19 100 75 91 77 96 4 4 0 0 0 2 3 95 100 100 100 99 100 88 30 63 100 100 100 100 100 100 100 100 100 100 100 100 100 100 100 100 100
100 99 6 5 5 64 8 17 96 86 7 92 0 0 0 2 4 54 98 95 100 100 100 100 100 100 91 99 100 100 100 100 100 100 100 100 100 100 98 100 94 72 84 96
100 100 100 100 72 58 100 100 100 100 67 87 0 1 0 17 100 65 5 4 93 100 100 35 20 99 100 100 100 100 100 100 100 100 100 100 100 100 100 100 100 100 100 100
18 100 100 100 94 100 100 74 12 71 35 2 2 0 20 100 100 100 75 6 5 100 100 100 100 100 100 100 100 100 100 100 100 100 100 100 100 100 100 100 100 100 100 100
19 99 100 82 100 100 7 5 11 68 1 100 74 6 31 100 100 100 100 16 5 6 94 100 100 100 100 100 100 100 100 100 100 100 100 100 100 100 100 100 100 100 100 100
85 100 100 97 99 26 5 2 32 24 50 84 11 4 1 52 100 100 24 14 83 88 5 94 100 100 100 100 100 100 100 100 100 100 100 100 100 89 96 100 100 100 100 100
100 100 100 99 100 93 0 75 100 100 50 5 8 0 90 98 85 1 100 100 100 100 100 100 100 100 100 100 100 100 100 100 100 100 98 70 97 100 100 100 100 100 100 100
100 100 100 81 100 38 98 100 100 100 11 100 45 58 100 17 3 100 100 100 100 90 70 100 100 100 100 100 100 100 100 100 100 100 100 100 100 100 100 100 100 100 100 100
100 100 100 100 100 51 100 100 100 90 90 100 100 99 4 1 93 98 100 100 50 18 99 100 100 100 100 100 100 100 100 100 100 100 100 100 100 100 100 100 100 100 100 100
100 97 100 99 100 100 100 100 100 100 100 100 96 64 4 5 90 100 100 100 99 100 100 100 100 100 100 100 100 100 100 100 100 100 100 100 100 100 100 100 100 100 100 100
100 100 100 100 100 100 100 100 100 100 100 100 99 100 100 59 63 100 100 100 100 100 100 100 100 100 100 100 100 100 100 100 49 58 77 30 14 50 99 100 100 100 100 100
100 100 100 100 100 100 100 100 100 97 100 100 100 100 100 100 100 100 100 100 100 100 100 100 100 100 100 100 100 100 82 8 5 6 8 14 56 73 28 17 75 98 99 99
100 100 100 100 100 100 100 100 100 100 100 100 100 100 100 100 100 100 100 100 100 100 100 100 100 100 100 100 100 100 80 21 40 5 5 51 28 63 43 14 5 5 5 5

GFSCGP_prec_cloud_117.txt.gz
Cloud_Cover
69 100 99 88 73 100 100 7 78 100 75 0 0 77 5 5 81 68 100 100 95 84 8 38 6 8 83 100 48 62 100 100 100 79 100 99 20 5 56 100 95 10 90 100
100 83 97 100 100 95 100 5 12 95 100 3 0 1 98 2 12 47 92 100 70 95 100 96 80 49 97 5 89 8 4 35 93 100 100 100 100 100 84 100 100 94 20 47
100 38 28 100 100 80 99 98 99 100 100 42 0 0 5 0 0 0 60 100 100 100 100 100 94 59 80 69 42 5 4 5 27 96 100 100 100 100 100 100 100 100 63 72
88 3 5 92 100 100 100 100 100 100 100 100 11 9 5 4 0 0 1 41 100 100 100 100 100 96 100 100 9 8 66 5 9 46 72 100 100 91 46 82 97 91 99 97
20 0 11 7 75 100 90 100 100 100 100 99 5 53 0 4 0 0 0 5 100 100 100 100 100 100 100 100 100 80 63 76 92 96 26 81 89 67 87 59 89 82 37 22
3 5 5 0 5 16 100 100 100 100 100 91 2 8 0 4 0 5 5 3 48 100 100 100 95 100 100 100 100 98 87 99 96 83 100 78 83 71 92 100 51 93 100 100
71 42 78 86 19 22 92 100 100 100 100 30 5 6 0 3 4 14 59 5 2 16 100 100 100 99 99 100 100 94 94 98 99 100 100 100 93 72 82 98 91 96 88 100
97 99 100 100 99 100 100 100 94 100 54 5 6 18 0 0 100 100 100 95 6 6 100 100 100 100 100 100 100 100 98 100 76 100 100 100 100 100 100 100 45 98 100 100
61 80 53 100 100 99 100 100 59 44 55 33 17 4 0 0 5 100 100 93 17 5 88 100 100 100 100 100 100 100 100 100 100 100 100 100 100 100 100 100 100 100 100 100
13 60 43 94 100 51 59 72 100 100 96 94 4 5 4 3 5 37 100 100 43 1 6 100 100 100 100 100 100 100 100 100 100 100 100 100 100 100 100 100 100 100 100 100
4 7 56 100 87 52 100 95 100 100 73 21 4 0 0 0 8 94 99 100 100 16 0 44 100 100 100 100 100 100 100 100 100 100 100 93 100 100 100 100 100 100 100 100
5 95 82 4 39 83 92 36 89 100 24 92 11 1 0 0 0 92 100 100 100 100 10 4 71 100 100 100 100 100 100 100 100 100 100 100 100 96 94 100 100 100 100 100
10 20 99 58 39 84 79 100 94 69 86 5 45 1 0 0 0 5 5 100 100 100 95 36 5 32 100 100 100 100 100 100 100 100 100 100 100 100 100 100 100 100 100 100
6 23 6 23 1 0 39 79 93 100 100 5 46 0 0 0 0 0 4 20 100 100 100 48 62 5 5 58 100 100 100 100 100 100 100 100 100 100 100 100 100 100 100 100
97 100 61 21 5 4 6 66 87 93 29 100 15 3 0 0 0 0 7 26 17 99 100 100 67 72 24 5 5 53 100 100 100 100 100 100 100 100 100 100 100 100 100 100
100 71 48 62 100 100 5 5 36 54 10 6 3 4 0 0 0 0 4 5 5 16 93 100 30 23 29 47 10 61 79 100 100 100 100 100 100 100 100 100 100 100 100 100
88 41 70 78 32 100 100 5 5 7 69 54 66 1 3 0 0 0 55 11 2 7 30 32 98 8 6 5 5 80 83 30 95 100 100 100 100 100 100 100 100 100 100 100
41 75 41 15 5 92 0 0 0 1 0 0 2 0 0 0 0 0 3 14 63 94 13 2 5 38 82 31 5 47 99 98 97 100 100 100 100 100 100 100 100 100 100 100
0 4 10 46 45 2 0 0 1 20 0 36 10 0 0 2 35 0 0 1 5 24 59 5 5 97 98 95 100 90 57 61 99 100 100 98 100 100 92 100 100 100 100 100
4 5 1 96 82 27 0 0 0 43 50 0 0 0 0 25 26 0 6 5 13 98 82 68 6 97 100 100 99 97 99 100 100 100 100 97 100 100 100 100 100 100 100 100
94 100 100 8 6 2 0 0 85 93 3 0 1 2 97 38 0 17 43 2 5 8 73 37 47 14 98 100 100 100 100 100 100 100 100 100 100 100 100 100 100 100 100 100
52 96 100 100 100 30 0 0 4 0 0 0 12 100 100 60 3 0 0 0 4 8 22 8 94 87 94 100 100 100 100 100 100 100 100 100 100 100 100 100 100 100 100 100
42 14 5 33 6 0 0 4 11 4 4 81 7 100 100 96 2 11 6 9 44 43 45 63 100 100 100 100 100 100 100 100 100 100 100 100 100 100 100 100 100 100 100 100
65 95 92 7 4 34 54 90 100 99 43 34 100 100 100 92 100 97 90 90 79 60 96 100 100 100 100 100 100 100 100 100 100 100 100 100 100 100 100 100 100 100 100 100
81 91 98 82 62 62 100 98 100 100 100 100 100 100 100 100 37 45 94 100 91 90 83 100 100 100 100 100 100 100 100 100 100 100 100 100 100 100 100 100 90 89 91 86
100 98 100 100 100 100 94 99 100 100 100 100 100 100 100 81 95 100 100 98 86 98 100 100 100 100 100 100 100 100 100 100 100 100 100 100 100 100 100 95 43 6 10 8

GFSCGP_prec_cloud_120.txt.gz
Cloud_Cover
84 81 55 21 52 100 100 78 23 5 27 0 0 0 0 0 4 4 5 15 100 100 100 100 100 100 100 98 60 68 14 23 99 100 100 100 100 100 100 100 34 17 36 96
100 74 25 100 100 75 81 77 59 81 78 3 0 0 0 0 0 0 5 14 71 100 100 100 100 100 100 99 95 98 81 8 14 73 29 77 93 97 100 100 56 50 100 100
98 100 100 71 83 71 71 87 96 96 99 23 4 0 0 0 0 0 1 8 37 51 100 100 100 100 100 100 99 50 74 65 11 45 21 87 75 80 100 100 100 100 100 100
89 85 86 14 20 100 100 98 100 100 100 30 2 11 0 0 0 0 0 97 100 100 50 100 100 100 100 100 100 100 100 100 98 59 78 5 40 31 18 74 98 100 100 100
12 99 100 98 68 1 91 100 100 100 100 100 3 64 0 0 0 0 2 5 99 100 93 49 100 100 100 100 100 100 100 100 100 100 100 59 65 19 5 5 24 77 42 78
90 3 2 5 4 5 5 39 100 96 100 93 3 10 0 3 0 5 2 5 20 100 100 100 99 82 100 100 100 100 100 100 100 100 100 100 63 90 82 80 100 94 96 65
48 12 11 4 14 32 43 52 84 100 98 28 5 4 0 5 3 3 79 12 10 69 98 100 100 100 97 87 100 100 100 100 100 100 100 100 100 34 100 100 97 100 67 49
100 98 87 57 5 8 100 68 66 69 43 5 4 9 0 0 98 5 30 93 70 60 100 100 100 89 25 100 99 100 100 100 96 100 100 100 100 100 100 100 91 93 95 93
99 100 51 78 16 70 99 96 46 87 69 83 7 0 0 0 2 91 60 98 57 99 98 14 51 100 99 39 100 7 91 100 100 100 100 100 100 100 100 96 94 100 100 100
96 92 58 78 63 29 100 100 100 100 100 90 3 4 0 0 0 5 84 100 100 30 5 5 31 94 90 100 66 62 90 100 100 100 100 100 100 100 100 100 100 100 100 58
100 82 93 84 91 56 100 100 100 96 100 98 30 1 0 0 0 0 57 100 100 100 10 5 14 86 76 42 69 97 100 100 100 100 100 100 100 100 100 100 100 100 100 100
100 100 94 27 51 34 98 100 100 100 76 96 100 17 0 0 0 0 7 100 100 100 86 5 5 5 5 5 5 42 89 100 100 100 100 100 80 78 74 99 100 100 100 100
36 73 100 74 13 47 70 67 98 100 100 5 80 1 0 0 0 0 3 10 68 98 100 68 47 18 11 13 5 5 29 91 100 99 78 69 91 99 82 100 100 100 100 100
4 3 3 1 0 1 40 5 1 97 98 40 14 0 0 0 0 0 0 0 0 10 94 100 84 39 95 49 5 3 1 5 30 100 86 89 56 100 100 100 100 100 100 100
5 74 6 5 0 0 1 0 2 16 3 59 0 2 0 0 0 0 0 0 0 0 3 87 100 100 65 58 88 60 5 5 5 6 89 100 100 100 94 100 100 100 100 100
100 98 100 100 99 98 91 5 63 25 26 5 3 4 0 0 0 0 0 2 0 0 0 0 2 5 68 18 42 88 100 95 29 66 24 36 100 100 100 99 100 100 100 100
56 88 80 69 100 99 71 65 11 4 24 82 100 2 0 0 0 0 0 0 0 0 0 0 0 0 22 100 65 5 69 100 100 100 100 100 100 100 100 100 100 100 100 100
100 53 80 32 45 85 0 0 0 0 2 5 2 0 0 0 0 0 0 0 0 4 0 0 0 0 0 13 84 6 5 51 98 100 100 100 100 100 100 100 100 100 100 100
5 5 22 55 59 0 0 0 0 0 0 0 0 0 0 0 0 0 0 0 0 4 8 0 0 0 0 0 0 10 6 6 31 63 90 100 100 100 100 100 100 100 100 100
5 5 2 93 63 3 0 0 0 0 0 0 0 0 0 0 0 0 0 0 0 3 46 0 0 3 4 0 0 0 94 100 100 100 100 100 100 100 100 100 100 100 100 100
78 7 17 3 18 2 0 0 0 0 0 1 0 0 0 0 0 0 0 0 0 0 0 0 0 1 1 0 1 100 100 100 100 100 100 100 100 100 100 100 100 100 100 100
13 30 61 88 98 35 0 0 0 42 21 3 1 0 0 0 0 0 0 0 0 6 20 1 26 99 98 16 58 100 100 100 100 100 100 100 100 100 100 100 100 100 100 100
5 2 4 2 2 0 35 58 100 97 100 100 100 89 47 5 1 16 79 5 2 18 35 24 99 100 100 100 100 100 100 100 100 100 100 100 100 100 100 100 100 100 100 100
57 97 99 22 4 14 12 8 46 74 73 96 99 100 100 85 54 10 86 97 100 72 79 68 100 100 100 100 100 100 93 96 100 100 100 100 100 100 100 100 100 100 100 100
70 79 90 61 6 5 48 98 70 51 31 5 40 85 100 81 92 35 100 100 100 100 75 44 95 100 100 100 100 91 100 100 100 100 100 100 100 100 100 100 100 100 100 100
85 78 56 53 100 98 39 6 66 100 99 97 99 100 100 100 100 100 100 100 100 100 97 100 100 100 100 100 100 100 100 100 100 100 100 100 100 100 100 100 100 100 100 100

GFSCGP_prec_cloud_123.txt.gz
Cloud_Cover
100 100 89 0 2 53 76 99 13 88 40 0 0 0 5 0 0 0 0 5 22 90 67 100 100 100 100 100 100 100 88 100 100 60 82 98 100 100 100 100 100 100 94 73
100 89 3 27 5 8 100 100 95 100 100 3 0 0 5 0 0 0 0 5 97 73 71 96 100 100 100 100 100 100 100 100 98 78 38 41 87 100 100 96 5 8 70 97
40 98 79 42 36 14 36 84 96 100 96 9 0 0 5 1 0 0 0 1 97 100 96 98 90 100 100 100 100 100 100 100 100 100 100 100 48 39 79 44 24 5 8 64
100 89 53 44 12 22 81 65 99 100 100 97 4 8 0 4 0 0 0 0 12 100 15 5 7 12 100 100 100 100 100 100 99 100 100 100 100 100 26 11 62 26 74 56
100 76 100 96 22 86 99 74 92 100 100 100 60 95 0 0 0 0 1 5 5 39 83 28 91 89 55 100 100 100 100 100 100 83 100 100 100 100 100 99 96 34 7 5
100 100 100 100 100 69 54 57 91 65 95 96 4 16 0 41 5 5 5 5 5 88 84 15 12 63 92 29 71 88 100 100 85 99 95 100 100 82 100 99 100 100 82 50
100 100 100 79 98 70 90 99 100 100 100 43 4 5 0 59 58 55 74 10 5 6 82 37 5 5 5 50 5 38 9 50 36 100 100 100 100 68 45 100 100 80 84 89
100 100 96 7 5 44 70 98 93 24 65 5 4 1 0 91 94 80 99 30 5 5 5 16 5 5 52 97 5 45 27 5 5 65 88 90 100 100 100 94 100 100 99 100
100 100 94 100 100 14 28 5 37 23 90 37 18 0 0 4 96 98 100 100 100 12 4 0 0 0 5 6 63 5 16 64 5 21 49 71 73 83 100 100 76 100 100 78
100 100 100 96 99 73 74 38 98 100 100 96 4 4 0 0 2 94 37 100 100 100 39 4 0 0 0 13 70 84 87 85 61 5 5 52 84 100 100 100 93 100 98 100
100 100 100 100 100 100 100 94 97 100 100 63 67 1 0 0 0 0 84 24 96 100 100 29 0 0 5 5 5 28 12 33 88 45 5 5 14 95 100 77 100 100 100 100
100 100 100 100 100 100 99 8 98 100 96 100 98 15 0 0 0 0 0 10 38 30 100 100 73 3 0 4 5 5 5 79 50 30 5 5 5 7 100 100 97 99 100 100
100 100 100 100 100 97 72 15 14 89 100 52 99 1 0 0 0 0 0 0 0 3 3 5 41 40 21 8 5 5 5 5 7 30 25 7 6 5 6 51 100 100 100 100
100 100 100 100 90 28 22 5 5 37 100 52 8 0 0 0 0 0 0 0 0 0 0 0 2 4 12 44 62 68 19 5 5 11 52 44 32 34 85 46 56 80 98 100
100 100 100 11 35 23 1 1 5 48 11 18 0 0 0 0 0 0 0 0 0 0 0 0 0 0 0 1 20 99 100 100 49 5 5 7 25 72 100 100 100 100 100 100
98 93 5 5 3 50 50 5 5 3 5 4 4 2 0 0 0 0 0 0 0 0 0 0 0 0 0 0 0 5 5 43 100 100 100 98 77 100 94 85 100 100 100 100
100 85 53 64 97 96 61 8 5 3 0 1 4 0 0 0 0 0 0 0 0 0 4 0 0 0 0 0 0 0 0 3 2 5 6 100 100 100 100 100 100 100 100 100
99 100 100 100 100 92 0 0 0 0 0 0 0 0 0 0 0 0 0 0 0 0 5 4 5 0 0 0 0 0 0 0 0 0 19 100 100 100 100 100 100 100 100 100
100 98 100 100 75 0 0 0 0 1 0 0 0 0 0 0 0 0 0 0 0 0 0 0 0 0 0 0 0 0 0 0 8 41 99 100 100 100 100 100 100 100 100 100
100 100 95 81 22 3 0 0 0 0 0 0 0 5 1 0 0 0 0 0 0 0 0 0 0 0 0 0 0 0 98 100 100 100 100 100 100 100 100 100 100 100 100 100
100 100 100 100 40 2 1 0 0 0 6 97 99 100 100 81 20 24 1 0 5 0 0 0 0 0 0 0 3 100 100 100 100 100 100 100 100 100 100 100 100 100 100 100
97 90 83 32 16 3 59 5 0 48 68 100 87 97 100 100 100 98 93 4 2 6 0 0 34 93 53 2 91 100 100 100 100 100 100 100 100 100 100 100 100 100 100 100
4 5 14 8 4 30 74 92 98 92 97 90 96 94 82 88 75 100 100 79 9 86 17 61 100 100 100 100 100 100 100 100 100 100 100 100 100 100 100 100 100 100 100 100
93 99 62 3 3 5 68 91 91 56 81 88 74 78 61 98 80 100 100 100 100 100 100 100 100 100 100 100 100 100 100 100 100 100 100 100 100 100 100 100 100 100 100 100
50 57 85 53 11 6 44 81 89 70 82 61 47 82 84 94 84 99 100 100 100 100 100 100 100 100 100 100 100 100 100 100 100 100 100 100 100 100 100 100 100 100 100 100
97 94 91 74 100 98 35 5 5 100 98 98 94 85 91 99 100 100 100 100 100 100 100 100 100 100 100 100 100 100 100 96 98 100 100 100 100 100 100 100 100 100 100 100

GFSCGP_prec_cloud_126.txt.gz
Cloud_Cover
100 100 68 0 13 5 6 1 1 0 5 17 3 0 37 1 0 3 5 5 5 56 47 62 100 100 100 100 100 100 32 10 57 97 100 100 100 73 37 36 12 5 67 100
100 96 7 65 83 9 0 0 0 3 5 5 3 0 5 5 0 0 5 5 5 5 36 100 97 100 100 100 100 100 96 5 32 100 100 100 100 100 49 84 100 100 100 100
100 80 83 99 100 96 33 8 4 7 5 5 0 1 5 61 2 0 4 5 5 5 42 100 98 96 100 100 99 81 77 57 99 100 100 100 100 100 100 87 64 88 100 100
100 100 58 100 100 89 92 87 24 11 40 7 4 1 5 95 22 1 5 7 61 99 10 85 100 63 97 88 60 100 98 86 57 54 100 100 100 100 100 97 87 98 59 17
100 100 100 75 12 44 66 17 8 63 51 99 53 96 5 53 100 72 5 14 99 100 79 5 43 82 5 5 5 41 98 88 52 38 28 87 100 100 98 97 90 100 100 100
100 100 100 99 93 99 57 34 78 82 70 84 4 13 2 11 100 100 88 58 95 95 100 24 1 0 4 5 5 5 4 58 92 94 40 25 66 98 74 97 67 67 98 93
100 100 100 100 100 99 100 100 100 100 99 9 4 10 0 14 75 100 100 100 100 100 100 54 2 0 0 0 2 5 5 5 5 12 17 88 97 47 34 44 42 18 85 100
100 100 100 100 100 100 98 100 84 95 74 14 5 1 0 11 16 100 100 100 100 57 13 100 11 0 0 0 0 0 1 8 5 4 5 5 15 79 100 18 5 9 56 14
100 100 100 100 100 96 97 98 84 67 72 28 6 0 0 0 28 88 99 100 100 100 96 12 6 3 0 0 0 0 0 0 1 5 4 4 5 5 29 60 7 83 58 37
100 100 100 100 100 72 19 44 93 89 68 94 2 0 0 0 1 6 17 76 98 100 97 50 87 5 5 5 5 2 4 2 0 0 1 4 5 5 5 38 17 47 96 16
100 100 100 100 100 100 95 87 66 67 45 20 8 0 0 0 0 3 16 8 69 100 100 64 5 5 4 5 5 5 5 5 5 4 3 1 1 4 65 60 100 100 95 94
100 100 100 100 100 100 100 100 100 42 67 81 60 15 0 0 0 0 5 15 38 94 61 60 9 5 0 3 4 0 5 5 5 5 5 5 5 6 24 44 93 77 100 100
100 100 100 100 100 100 97 100 72 51 100 82 66 1 2 0 0 0 0 1 1 9 5 3 1 4 6 2 3 5 2 3 5 5 5 5 21 38 44 56 97 99 100 100
100 100 95 100 100 100 100 100 100 100 94 3 13 0 4 5 4 0 0 3 4 0 5 5 5 4 3 8 7 5 5 5 5 5 16 8 5 33 59 73 84 100 100 100
99 98 89 100 100 100 100 100 100 72 39 28 2 0 3 3 0 4 3 0 0 0 0 1 5 5 5 0 0 0 3 3 5 5 23 88 98 55 52 69 91 75 89 90
100 100 100 100 100 100 100 100 100 100 100 78 4 0 0 0 0 0 0 0 0 0 0 0 0 0 0 5 0 0 0 0 0 4 4 2 4 42 96 92 100 100 100 100
100 100 100 100 100 100 100 69 32 93 92 5 4 4 0 0 0 0 0 0 0 0 0 0 0 0 0 0 0 1 0 0 0 0 0 76 42 53 51 89 100 100 100 100
100 100 100 100 100 100 98 100 100 65 91 87 5 5 0 0 0 0 0 0 0 0 0 0 0 0 0 0 0 0 0 0 0 0 18 100 98 95 96 100 100 100 100 100
100 100 100 100 82 17 24 29 100 100 16 12 0 0 0 0 0 0 0 0 0 0 0 0 0 0 0 0 0 0 0 0 0 0 14 100 95 100 99 100 100 100 100 100
100 100 100 100 100 47 5 5 25 5 0 5 5 6 10 8 0 0 1 3 5 0 1 0 0 0 0 0 0 0 0 1 1 32 100 100 100 100 100 100 100 100 100 100
100 100 100 100 75 5 5 17 9 3 3 5 51 85 95 76 26 29 5 5 5 5 18 60 3 0 0 0 0 0 24 93 91 98 100 100 100 100 100 100 100 100 100 100
81 86 59 79 42 10 96 89 84 38 35 11 78 91 99 95 54 76 18 5 5 5 90 100 98 92 89 94 98 97 100 100 100 100 100 100 100 100 100 100 100 100 100 100
93 66 12 8 14 74 100 100 100 99 98 91 78 86 88 32 6 5 5 5 24 55 98 100 100 100 100 100 100 100 100 100 100 100 100 100 100 100 100 100 100 100 100 100
58 95 11 4 83 82 73 94 95 98 85 71 76 69 19 24 5 5 17 87 86 81 78 81 100 100 100 100 100 100 100 100 100 100 100 100 100 100 100 100 100 100 100 100
76 55 71 72 78 77 82 90 47 5 9 36 62 56 70 92 81 99 81 96 99 100 100 100 100 100 100 100 100 100 100 100 100 100 100 100 100 100 100 100 100 100 100 100
99 90 65 15 100 96 26 5 5 99 86 100 100 64 98 100 100 100 100 100 100 100 100 98 100 100 100 100 100 100 100 100 100 100 100 100 100 100 100 100 100 100 100 100